<?xml version="1.0" encoding="UTF-8" standalone="no" ?>
<gpx xmlns="http://www.topografix.com/GPX/1/1" xmlns:xsi="http://www.w3.org/2001/XMLSchema-instance" xsi:schemaLocation="http://www.topografix.com/GPX/1/1 http://www.topografix.com/GPX/1/1/gpx.xsd" version="1.1" creator="VisuGPX - https://www.visugpx.com">
  <metadata>
    <name>Escalade Ceuse</name>
  </metadata>
  <trk>
    <name><![CDATA[Escalade Ceuse_1]]></name>
    <trkseg>
      <trkpt lat="44.49366" lon="5.96448">
        <ele>1337.1</ele>
        <time>2026-06-14T12:21:10.000Z</time>
      </trkpt>
      <trkpt lat="44.49365" lon="5.96444">
        <ele>1337.8</ele>
        <time>2026-06-14T12:21:15.618Z</time>
      </trkpt>
      <trkpt lat="44.49358" lon="5.96435">
        <ele>1338.7</ele>
        <time>2026-06-14T12:21:26.737Z</time>
      </trkpt>
      <trkpt lat="44.49353" lon="5.96427">
        <ele>1340</ele>
        <time>2026-06-14T12:21:37.896Z</time>
      </trkpt>
      <trkpt lat="44.49346" lon="5.96419">
        <ele>1341.3</ele>
        <time>2026-06-14T12:21:50.045Z</time>
      </trkpt>
      <trkpt lat="44.49344" lon="5.96417">
        <ele>1341.7</ele>
        <time>2026-06-14T12:21:53.556Z</time>
      </trkpt>
      <trkpt lat="44.49343" lon="5.96416">
        <ele>1341.9</ele>
        <time>2026-06-14T12:21:55.312Z</time>
      </trkpt>
      <trkpt lat="44.49338" lon="5.96414">
        <ele>1342.1</ele>
        <time>2026-06-14T12:22:00.670Z</time>
      </trkpt>
      <trkpt lat="44.49335" lon="5.96413">
        <ele>1342.2</ele>
        <time>2026-06-14T12:22:03.810Z</time>
      </trkpt>
      <trkpt lat="44.49331" lon="5.96413">
        <ele>1341.7</ele>
        <time>2026-06-14T12:22:07.223Z</time>
      </trkpt>
      <trkpt lat="44.49328" lon="5.96413">
        <ele>1341.3</ele>
        <time>2026-06-14T12:22:09.777Z</time>
      </trkpt>
      <trkpt lat="44.49326" lon="5.96413">
        <ele>1341.1</ele>
        <time>2026-06-14T12:22:11.502Z</time>
      </trkpt>
      <trkpt lat="44.49323" lon="5.96412">
        <ele>1341</ele>
        <time>2026-06-14T12:22:14.334Z</time>
      </trkpt>
      <trkpt lat="44.49318" lon="5.9641">
        <ele>1341</ele>
        <time>2026-06-14T12:22:19.337Z</time>
      </trkpt>
      <trkpt lat="44.4931" lon="5.964">
        <ele>1343.4</ele>
        <time>2026-06-14T12:22:38.523Z</time>
      </trkpt>
      <trkpt lat="44.49302" lon="5.96388">
        <ele>1346</ele>
        <time>2026-06-14T12:22:59.326Z</time>
      </trkpt>
      <trkpt lat="44.49294" lon="5.96375">
        <ele>1346.9</ele>
        <time>2026-06-14T12:23:12.935Z</time>
      </trkpt>
      <trkpt lat="44.49286" lon="5.96365">
        <ele>1346.5</ele>
        <time>2026-06-14T12:23:22.719Z</time>
      </trkpt>
      <trkpt lat="44.49281" lon="5.96359">
        <ele>1345.8</ele>
        <time>2026-06-14T12:23:28.377Z</time>
      </trkpt>
      <trkpt lat="44.49277" lon="5.96353">
        <ele>1345.1</ele>
        <time>2026-06-14T12:23:33.384Z</time>
      </trkpt>
      <trkpt lat="44.49276" lon="5.96347">
        <ele>1345.7</ele>
        <time>2026-06-14T12:23:39.164Z</time>
      </trkpt>
      <trkpt lat="44.49275" lon="5.96337">
        <ele>1347</ele>
        <time>2026-06-14T12:23:50.100Z</time>
      </trkpt>
      <trkpt lat="44.49275" lon="5.96326">
        <ele>1348.2</ele>
        <time>2026-06-14T12:24:00.958Z</time>
      </trkpt>
      <trkpt lat="44.49272" lon="5.96312">
        <ele>1347.9</ele>
        <time>2026-06-14T12:24:10.581Z</time>
      </trkpt>
      <trkpt lat="44.49267" lon="5.96298">
        <ele>1347.9</ele>
        <time>2026-06-14T12:24:21.325Z</time>
      </trkpt>
      <trkpt lat="44.49263" lon="5.96287">
        <ele>1348.7</ele>
        <time>2026-06-14T12:24:31.533Z</time>
      </trkpt>
      <trkpt lat="44.49259" lon="5.9628">
        <ele>1349.1</ele>
        <time>2026-06-14T12:24:38.468Z</time>
      </trkpt>
      <trkpt lat="44.49256" lon="5.96275">
        <ele>1349.6</ele>
        <time>2026-06-14T12:24:44.106Z</time>
      </trkpt>
      <trkpt lat="44.49252" lon="5.96272">
        <ele>1349.4</ele>
        <time>2026-06-14T12:24:48.214Z</time>
      </trkpt>
      <trkpt lat="44.49248" lon="5.96271">
        <ele>1348.8</ele>
        <time>2026-06-14T12:24:51.667Z</time>
      </trkpt>
      <trkpt lat="44.49238" lon="5.96266">
        <ele>1348.4</ele>
        <time>2026-06-14T12:25:01.354Z</time>
      </trkpt>
      <trkpt lat="44.49229" lon="5.96262">
        <ele>1348</ele>
        <time>2026-06-14T12:25:09.921Z</time>
      </trkpt>
      <trkpt lat="44.49222" lon="5.96256">
        <ele>1348.8</ele>
        <time>2026-06-14T12:25:19.594Z</time>
      </trkpt>
      <trkpt lat="44.49215" lon="5.96247">
        <ele>1349.3</ele>
        <time>2026-06-14T12:25:29.670Z</time>
      </trkpt>
      <trkpt lat="44.4921" lon="5.96237">
        <ele>1349.7</ele>
        <time>2026-06-14T12:25:38.782Z</time>
      </trkpt>
      <trkpt lat="44.49209" lon="5.96227">
        <ele>1351.3</ele>
        <time>2026-06-14T12:25:51.583Z</time>
      </trkpt>
      <trkpt lat="44.49209" lon="5.96217">
        <ele>1352.5</ele>
        <time>2026-06-14T12:26:01.964Z</time>
      </trkpt>
      <trkpt lat="44.49211" lon="5.96207">
        <ele>1353.8</ele>
        <time>2026-06-14T12:26:13.016Z</time>
      </trkpt>
      <trkpt lat="44.49216" lon="5.9618">
        <ele>1357.3</ele>
        <time>2026-06-14T12:26:42.746Z</time>
      </trkpt>
      <trkpt lat="44.49219" lon="5.96156">
        <ele>1359.3</ele>
        <time>2026-06-14T12:27:04.225Z</time>
      </trkpt>
      <trkpt lat="44.49221" lon="5.96143">
        <ele>1360.4</ele>
        <time>2026-06-14T12:27:15.978Z</time>
      </trkpt>
      <trkpt lat="44.49222" lon="5.96136">
        <ele>1361.1</ele>
        <time>2026-06-14T12:27:22.694Z</time>
      </trkpt>
      <trkpt lat="44.49222" lon="5.96128">
        <ele>1361.7</ele>
        <time>2026-06-14T12:27:29.558Z</time>
      </trkpt>
      <trkpt lat="44.49219" lon="5.96119">
        <ele>1361.1</ele>
        <time>2026-06-14T12:27:35.733Z</time>
      </trkpt>
      <trkpt lat="44.49214" lon="5.96096">
        <ele>1362.3</ele>
        <time>2026-06-14T12:27:54.638Z</time>
      </trkpt>
      <trkpt lat="44.4921" lon="5.96076">
        <ele>1363.8</ele>
        <time>2026-06-14T12:28:12.277Z</time>
      </trkpt>
      <trkpt lat="44.49208" lon="5.96053">
        <ele>1366</ele>
        <time>2026-06-14T12:28:33.791Z</time>
      </trkpt>
      <trkpt lat="44.49207" lon="5.96033">
        <ele>1367</ele>
        <time>2026-06-14T12:28:49.553Z</time>
      </trkpt>
      <trkpt lat="44.49208" lon="5.96018">
        <ele>1368.2</ele>
        <time>2026-06-14T12:29:02.710Z</time>
      </trkpt>
      <trkpt lat="44.49209" lon="5.96007">
        <ele>1369</ele>
        <time>2026-06-14T12:29:12.124Z</time>
      </trkpt>
      <trkpt lat="44.4921" lon="5.96001">
        <ele>1369.7</ele>
        <time>2026-06-14T12:29:18.333Z</time>
      </trkpt>
      <trkpt lat="44.4921" lon="5.95993">
        <ele>1370.2</ele>
        <time>2026-06-14T12:29:24.894Z</time>
      </trkpt>
      <trkpt lat="44.4921" lon="5.95986">
        <ele>1370.7</ele>
        <time>2026-06-14T12:29:30.821Z</time>
      </trkpt>
      <trkpt lat="44.49209" lon="5.95977">
        <ele>1370.9</ele>
        <time>2026-06-14T12:29:37.418Z</time>
      </trkpt>
      <trkpt lat="44.49206" lon="5.95961">
        <ele>1371.4</ele>
        <time>2026-06-14T12:29:49.674Z</time>
      </trkpt>
      <trkpt lat="44.49202" lon="5.95952">
        <ele>1371</ele>
        <time>2026-06-14T12:29:56.456Z</time>
      </trkpt>
      <trkpt lat="44.49198" lon="5.95944">
        <ele>1370.5</ele>
        <time>2026-06-14T12:30:02.592Z</time>
      </trkpt>
      <trkpt lat="44.49197" lon="5.95939">
        <ele>1371.2</ele>
        <time>2026-06-14T12:30:08.390Z</time>
      </trkpt>
      <trkpt lat="44.49193" lon="5.95927">
        <ele>1372.3</ele>
        <time>2026-06-14T12:30:20.110Z</time>
      </trkpt>
      <trkpt lat="44.4919" lon="5.95912">
        <ele>1374</ele>
        <time>2026-06-14T12:30:35.491Z</time>
      </trkpt>
      <trkpt lat="44.49188" lon="5.95902">
        <ele>1374.5</ele>
        <time>2026-06-14T12:30:43.611Z</time>
      </trkpt>
      <trkpt lat="44.49186" lon="5.95894">
        <ele>1374.7</ele>
        <time>2026-06-14T12:30:49.777Z</time>
      </trkpt>
      <trkpt lat="44.49184" lon="5.95881">
        <ele>1374.9</ele>
        <time>2026-06-14T12:30:59.237Z</time>
      </trkpt>
      <trkpt lat="44.49184" lon="5.95872">
        <ele>1375.5</ele>
        <time>2026-06-14T12:31:06.727Z</time>
      </trkpt>
      <trkpt lat="44.49185" lon="5.95859">
        <ele>1376.6</ele>
        <time>2026-06-14T12:31:18.347Z</time>
      </trkpt>
      <trkpt lat="44.49187" lon="5.95847">
        <ele>1377.4</ele>
        <time>2026-06-14T12:31:28.540Z</time>
      </trkpt>
      <trkpt lat="44.4919" lon="5.95837">
        <ele>1378.8</ele>
        <time>2026-06-14T12:31:40.307Z</time>
      </trkpt>
      <trkpt lat="44.49193" lon="5.95823">
        <ele>1379.9</ele>
        <time>2026-06-14T12:31:52.861Z</time>
      </trkpt>
      <trkpt lat="44.49197" lon="5.95808">
        <ele>1381.6</ele>
        <time>2026-06-14T12:32:08.464Z</time>
      </trkpt>
      <trkpt lat="44.492" lon="5.95792">
        <ele>1382.3</ele>
        <time>2026-06-14T12:32:21.164Z</time>
      </trkpt>
      <trkpt lat="44.49203" lon="5.95775">
        <ele>1383</ele>
        <time>2026-06-14T12:32:34.513Z</time>
      </trkpt>
      <trkpt lat="44.49209" lon="5.95754">
        <ele>1385.2</ele>
        <time>2026-06-14T12:32:55.722Z</time>
      </trkpt>
      <trkpt lat="44.49216" lon="5.95735">
        <ele>1387</ele>
        <time>2026-06-14T12:33:14.728Z</time>
      </trkpt>
      <trkpt lat="44.49223" lon="5.95714">
        <ele>1388.7</ele>
        <time>2026-06-14T12:33:34.495Z</time>
      </trkpt>
      <trkpt lat="44.49228" lon="5.95694">
        <ele>1389.9</ele>
        <time>2026-06-14T12:33:51.530Z</time>
      </trkpt>
      <trkpt lat="44.49231" lon="5.95682">
        <ele>1390.7</ele>
        <time>2026-06-14T12:34:01.974Z</time>
      </trkpt>
      <trkpt lat="44.49238" lon="5.95662">
        <ele>1392.2</ele>
        <time>2026-06-14T12:34:20.560Z</time>
      </trkpt>
      <trkpt lat="44.49244" lon="5.95646">
        <ele>1392.8</ele>
        <time>2026-06-14T12:34:34.065Z</time>
      </trkpt>
      <trkpt lat="44.4925" lon="5.95629">
        <ele>1393.2</ele>
        <time>2026-06-14T12:34:47.769Z</time>
      </trkpt>
      <trkpt lat="44.49252" lon="5.95622">
        <ele>1393.1</ele>
        <time>2026-06-14T12:34:52.802Z</time>
      </trkpt>
      <trkpt lat="44.49254" lon="5.95615">
        <ele>1392.9</ele>
        <time>2026-06-14T12:34:57.713Z</time>
      </trkpt>
      <trkpt lat="44.49256" lon="5.95605">
        <ele>1392.2</ele>
        <time>2026-06-14T12:35:04.125Z</time>
      </trkpt>
      <trkpt lat="44.49264" lon="5.95588">
        <ele>1393.8</ele>
        <time>2026-06-14T12:35:21.836Z</time>
      </trkpt>
      <trkpt lat="44.4927" lon="5.95571">
        <ele>1395.8</ele>
        <time>2026-06-14T12:35:40.258Z</time>
      </trkpt>
      <trkpt lat="44.49273" lon="5.95557">
        <ele>1396.5</ele>
        <time>2026-06-14T12:35:51.678Z</time>
      </trkpt>
      <trkpt lat="44.49274" lon="5.95546">
        <ele>1396.7</ele>
        <time>2026-06-14T12:35:59.626Z</time>
      </trkpt>
      <trkpt lat="44.49273" lon="5.95539">
        <ele>1395.9</ele>
        <time>2026-06-14T12:36:03.955Z</time>
      </trkpt>
      <trkpt lat="44.49271" lon="5.95531">
        <ele>1394.7</ele>
        <time>2026-06-14T12:36:09.171Z</time>
      </trkpt>
      <trkpt lat="44.49269" lon="5.95527">
        <ele>1393.6</ele>
        <time>2026-06-14T12:36:12.847Z</time>
      </trkpt>
      <trkpt lat="44.49267" lon="5.95519">
        <ele>1393</ele>
        <time>2026-06-14T12:36:18.066Z</time>
      </trkpt>
      <trkpt lat="44.49266" lon="5.95507">
        <ele>1393.1</ele>
        <time>2026-06-14T12:36:26.517Z</time>
      </trkpt>
      <trkpt lat="44.49267" lon="5.95494">
        <ele>1394</ele>
        <time>2026-06-14T12:36:37.485Z</time>
      </trkpt>
      <trkpt lat="44.49268" lon="5.95485">
        <ele>1394.4</ele>
        <time>2026-06-14T12:36:44.512Z</time>
      </trkpt>
      <trkpt lat="44.49269" lon="5.9548">
        <ele>1394.9</ele>
        <time>2026-06-14T12:36:49.361Z</time>
      </trkpt>
      <trkpt lat="44.49273" lon="5.95473">
        <ele>1396.8</ele>
        <time>2026-06-14T12:37:05.287Z</time>
      </trkpt>
      <trkpt lat="44.49277" lon="5.95466">
        <ele>1398.6</ele>
        <time>2026-06-14T12:37:20.048Z</time>
      </trkpt>
      <trkpt lat="44.49278" lon="5.9546">
        <ele>1399.1</ele>
        <time>2026-06-14T12:37:25.460Z</time>
      </trkpt>
      <trkpt lat="44.4928" lon="5.95451">
        <ele>1400.1</ele>
        <time>2026-06-14T12:37:34.642Z</time>
      </trkpt>
      <trkpt lat="44.4928" lon="5.95438">
        <ele>1400.6</ele>
        <time>2026-06-14T12:37:44.506Z</time>
      </trkpt>
      <trkpt lat="44.49278" lon="5.95424">
        <ele>1400.6</ele>
        <time>2026-06-14T12:37:54.305Z</time>
      </trkpt>
      <trkpt lat="44.49277" lon="5.95411">
        <ele>1400.6</ele>
        <time>2026-06-14T12:38:03.278Z</time>
      </trkpt>
      <trkpt lat="44.49277" lon="5.95402">
        <ele>1400.6</ele>
        <time>2026-06-14T12:38:09.455Z</time>
      </trkpt>
      <trkpt lat="44.49278" lon="5.9539">
        <ele>1401.1</ele>
        <time>2026-06-14T12:38:18.703Z</time>
      </trkpt>
      <trkpt lat="44.49282" lon="5.95376">
        <ele>1402.9</ele>
        <time>2026-06-14T12:38:34.312Z</time>
      </trkpt>
      <trkpt lat="44.49286" lon="5.9536">
        <ele>1404.5</ele>
        <time>2026-06-14T12:38:50.016Z</time>
      </trkpt>
      <trkpt lat="44.49289" lon="5.95349">
        <ele>1405.4</ele>
        <time>2026-06-14T12:39:00.175Z</time>
      </trkpt>
      <trkpt lat="44.4929" lon="5.9534">
        <ele>1405.5</ele>
        <time>2026-06-14T12:39:06.588Z</time>
      </trkpt>
      <trkpt lat="44.49292" lon="5.95327">
        <ele>1406</ele>
        <time>2026-06-14T12:39:16.653Z</time>
      </trkpt>
      <trkpt lat="44.49293" lon="5.95315">
        <ele>1406.2</ele>
        <time>2026-06-14T12:39:25.280Z</time>
      </trkpt>
      <trkpt lat="44.49294" lon="5.95302">
        <ele>1406.6</ele>
        <time>2026-06-14T12:39:34.977Z</time>
      </trkpt>
      <trkpt lat="44.49294" lon="5.95291">
        <ele>1407</ele>
        <time>2026-06-14T12:39:43.272Z</time>
      </trkpt>
      <trkpt lat="44.49294" lon="5.95278">
        <ele>1407.6</ele>
        <time>2026-06-14T12:39:53.371Z</time>
      </trkpt>
      <trkpt lat="44.49293" lon="5.95267">
        <ele>1407.7</ele>
        <time>2026-06-14T12:40:01.143Z</time>
      </trkpt>
      <trkpt lat="44.49291" lon="5.95256">
        <ele>1407.4</ele>
        <time>2026-06-14T12:40:08.537Z</time>
      </trkpt>
      <trkpt lat="44.49289" lon="5.95246">
        <ele>1407.1</ele>
        <time>2026-06-14T12:40:15.273Z</time>
      </trkpt>
      <trkpt lat="44.49289" lon="5.95239">
        <ele>1407.6</ele>
        <time>2026-06-14T12:40:21.201Z</time>
      </trkpt>
      <trkpt lat="44.49288" lon="5.9523">
        <ele>1407.9</ele>
        <time>2026-06-14T12:40:28.001Z</time>
      </trkpt>
      <trkpt lat="44.49289" lon="5.95223">
        <ele>1408.8</ele>
        <time>2026-06-14T12:40:35.631Z</time>
      </trkpt>
      <trkpt lat="44.4929" lon="5.95215">
        <ele>1409.9</ele>
        <time>2026-06-14T12:40:44.728Z</time>
      </trkpt>
      <trkpt lat="44.4929" lon="5.95209">
        <ele>1410.4</ele>
        <time>2026-06-14T12:40:50.043Z</time>
      </trkpt>
      <trkpt lat="44.4929" lon="5.95204">
        <ele>1410.9</ele>
        <time>2026-06-14T12:40:54.786Z</time>
      </trkpt>
      <trkpt lat="44.49289" lon="5.95198">
        <ele>1410.9</ele>
        <time>2026-06-14T12:40:59.015Z</time>
      </trkpt>
      <trkpt lat="44.49283" lon="5.95182">
        <ele>1410.2</ele>
        <time>2026-06-14T12:41:10.560Z</time>
      </trkpt>
      <trkpt lat="44.49275" lon="5.95159">
        <ele>1410.5</ele>
        <time>2026-06-14T12:41:28.611Z</time>
      </trkpt>
      <trkpt lat="44.49267" lon="5.95135">
        <ele>1412.3</ele>
        <time>2026-06-14T12:41:50.761Z</time>
      </trkpt>
      <trkpt lat="44.49258" lon="5.95111">
        <ele>1413.8</ele>
        <time>2026-06-14T12:42:12.461Z</time>
      </trkpt>
      <trkpt lat="44.4925" lon="5.9509">
        <ele>1413.8</ele>
        <time>2026-06-14T12:42:28.800Z</time>
      </trkpt>
      <trkpt lat="44.49241" lon="5.95067">
        <ele>1413.5</ele>
        <time>2026-06-14T12:42:46.372Z</time>
      </trkpt>
      <trkpt lat="44.49237" lon="5.95057">
        <ele>1413.2</ele>
        <time>2026-06-14T12:42:53.843Z</time>
        <extensions>
          <visugpx:TrkExtension xmlns:visugpx="https://www.visugpx.com/editgpx/">
            <visugpx:node>1</visugpx:node>
            </visugpx:TrkExtension>
        </extensions>
      </trkpt>
      <trkpt lat="44.49235" lon="5.9505">
        <ele>1413.1</ele>
        <time>2026-06-14T12:42:58.875Z</time>
      </trkpt>
      <trkpt lat="44.4923" lon="5.95035">
        <ele>1412.6</ele>
        <time>2026-06-14T12:43:09.592Z</time>
      </trkpt>
      <trkpt lat="44.49228" lon="5.95025">
        <ele>1413</ele>
        <time>2026-06-14T12:43:17.474Z</time>
      </trkpt>
      <trkpt lat="44.49227" lon="5.9502">
        <ele>1413.5</ele>
        <time>2026-06-14T12:43:22.322Z</time>
      </trkpt>
      <trkpt lat="44.49226" lon="5.9501">
        <ele>1414.9</ele>
        <time>2026-06-14T12:43:33.820Z</time>
      </trkpt>
      <trkpt lat="44.49223" lon="5.94996">
        <ele>1416.4</ele>
        <time>2026-06-14T12:43:47.843Z</time>
      </trkpt>
      <trkpt lat="44.4922" lon="5.94984">
        <ele>1418.2</ele>
        <time>2026-06-14T12:44:02.544Z</time>
      </trkpt>
      <trkpt lat="44.49218" lon="5.94977">
        <ele>1419.2</ele>
        <time>2026-06-14T12:44:10.870Z</time>
      </trkpt>
      <trkpt lat="44.49214" lon="5.94969">
        <ele>1419.6</ele>
        <time>2026-06-14T12:44:18.338Z</time>
      </trkpt>
      <trkpt lat="44.49207" lon="5.94958">
        <ele>1419.8</ele>
        <time>2026-06-14T12:44:28.785Z</time>
      </trkpt>
      <trkpt lat="44.49199" lon="5.94945">
        <ele>1419.8</ele>
        <time>2026-06-14T12:44:40.568Z</time>
      </trkpt>
      <trkpt lat="44.49191" lon="5.94931">
        <ele>1420.1</ele>
        <time>2026-06-14T12:44:53.382Z</time>
      </trkpt>
      <trkpt lat="44.49183" lon="5.94917">
        <ele>1420.4</ele>
        <time>2026-06-14T12:45:06.196Z</time>
      </trkpt>
      <trkpt lat="44.4918" lon="5.9491">
        <ele>1420.7</ele>
        <time>2026-06-14T12:45:12.361Z</time>
      </trkpt>
      <trkpt lat="44.4917" lon="5.94894">
        <ele>1420.2</ele>
        <time>2026-06-14T12:45:26.288Z</time>
      </trkpt>
      <trkpt lat="44.49166" lon="5.94884">
        <ele>1420.8</ele>
        <time>2026-06-14T12:45:35.374Z</time>
      </trkpt>
      <trkpt lat="44.49155" lon="5.94866">
        <ele>1420.2</ele>
        <time>2026-06-14T12:45:50.843Z</time>
      </trkpt>
      <trkpt lat="44.49149" lon="5.94855">
        <ele>1421.2</ele>
        <time>2026-06-14T12:46:02.602Z</time>
      </trkpt>
      <trkpt lat="44.49145" lon="5.94848">
        <ele>1422.3</ele>
        <time>2026-06-14T12:46:12.031Z</time>
      </trkpt>
      <trkpt lat="44.49143" lon="5.94841">
        <ele>1424.3</ele>
        <time>2026-06-14T12:46:31.864Z</time>
      </trkpt>
      <trkpt lat="44.49141" lon="5.94836">
        <ele>1425.6</ele>
        <time>2026-06-14T12:46:43.181Z</time>
      </trkpt>
      <trkpt lat="44.49139" lon="5.94834">
        <ele>1425.8</ele>
        <time>2026-06-14T12:46:45.963Z</time>
      </trkpt>
      <trkpt lat="44.49137" lon="5.9483">
        <ele>1427.4</ele>
        <time>2026-06-14T12:47:05.090Z</time>
      </trkpt>
      <trkpt lat="44.49133" lon="5.94829">
        <ele>1427.7</ele>
        <time>2026-06-14T12:47:09.609Z</time>
      </trkpt>
      <trkpt lat="44.49128" lon="5.94828">
        <ele>1428.1</ele>
        <time>2026-06-14T12:47:15.298Z</time>
      </trkpt>
      <trkpt lat="44.49118" lon="5.94828">
        <ele>1427.8</ele>
        <time>2026-06-14T12:47:24.510Z</time>
      </trkpt>
      <trkpt lat="44.49108" lon="5.94828">
        <ele>1428.2</ele>
        <time>2026-06-14T12:47:34.846Z</time>
      </trkpt>
      <trkpt lat="44.491" lon="5.94829">
        <ele>1429</ele>
        <time>2026-06-14T12:47:44.367Z</time>
      </trkpt>
      <trkpt lat="44.49096" lon="5.94832">
        <ele>1428.3</ele>
        <time>2026-06-14T12:47:48.223Z</time>
      </trkpt>
      <trkpt lat="44.4909" lon="5.94838">
        <ele>1426.6</ele>
        <time>2026-06-14T12:47:54.764Z</time>
      </trkpt>
      <trkpt lat="44.49084" lon="5.94841">
        <ele>1426.3</ele>
        <time>2026-06-14T12:48:00.512Z</time>
      </trkpt>
      <trkpt lat="44.49078" lon="5.94843">
        <ele>1426.6</ele>
        <time>2026-06-14T12:48:07.000Z</time>
      </trkpt>
      <trkpt lat="44.4907" lon="5.94843">
        <ele>1428.2</ele>
        <time>2026-06-14T12:48:20.041Z</time>
      </trkpt>
      <trkpt lat="44.49059" lon="5.94844">
        <ele>1430.1</ele>
        <time>2026-06-14T12:48:36.311Z</time>
      </trkpt>
      <trkpt lat="44.49045" lon="5.94845">
        <ele>1430.9</ele>
        <time>2026-06-14T12:48:51.324Z</time>
      </trkpt>
      <trkpt lat="44.49032" lon="5.94846">
        <ele>1431.1</ele>
        <time>2026-06-14T12:49:04.175Z</time>
      </trkpt>
      <trkpt lat="44.49023" lon="5.94843">
        <ele>1431.4</ele>
        <time>2026-06-14T12:49:13.596Z</time>
      </trkpt>
      <trkpt lat="44.49021" lon="5.94841">
        <ele>1431.5</ele>
        <time>2026-06-14T12:49:16.139Z</time>
      </trkpt>
      <trkpt lat="44.4902" lon="5.94839">
        <ele>1431.9</ele>
        <time>2026-06-14T12:49:19.331Z</time>
      </trkpt>
      <trkpt lat="44.49019" lon="5.94836">
        <ele>1432.4</ele>
        <time>2026-06-14T12:49:23.358Z</time>
      </trkpt>
      <trkpt lat="44.49019" lon="5.94832">
        <ele>1433.2</ele>
        <time>2026-06-14T12:49:29.911Z</time>
      </trkpt>
      <trkpt lat="44.4902" lon="5.94828">
        <ele>1433.7</ele>
        <time>2026-06-14T12:49:34.269Z</time>
      </trkpt>
      <trkpt lat="44.49021" lon="5.94825">
        <ele>1434.2</ele>
        <time>2026-06-14T12:49:38.296Z</time>
      </trkpt>
      <trkpt lat="44.49023" lon="5.94821">
        <ele>1435.1</ele>
        <time>2026-06-14T12:49:45.520Z</time>
      </trkpt>
      <trkpt lat="44.49025" lon="5.94814">
        <ele>1436.3</ele>
        <time>2026-06-14T12:49:55.117Z</time>
      </trkpt>
      <trkpt lat="44.49029" lon="5.94801">
        <ele>1437.9</ele>
        <time>2026-06-14T12:50:09.344Z</time>
      </trkpt>
      <trkpt lat="44.49033" lon="5.94785">
        <ele>1437.8</ele>
        <time>2026-06-14T12:50:20.831Z</time>
      </trkpt>
      <trkpt lat="44.49037" lon="5.94774">
        <ele>1438.1</ele>
        <time>2026-06-14T12:50:29.829Z</time>
      </trkpt>
      <trkpt lat="44.49041" lon="5.94769">
        <ele>1438.5</ele>
        <time>2026-06-14T12:50:35.801Z</time>
      </trkpt>
      <trkpt lat="44.49046" lon="5.94764">
        <ele>1439.4</ele>
        <time>2026-06-14T12:50:44.130Z</time>
      </trkpt>
      <trkpt lat="44.49054" lon="5.94757">
        <ele>1441.2</ele>
        <time>2026-06-14T12:50:58.991Z</time>
      </trkpt>
      <trkpt lat="44.49063" lon="5.94748">
        <ele>1443.4</ele>
        <time>2026-06-14T12:51:16.946Z</time>
      </trkpt>
      <trkpt lat="44.49068" lon="5.94738">
        <ele>1444.3</ele>
        <time>2026-06-14T12:51:27.373Z</time>
      </trkpt>
      <trkpt lat="44.49075" lon="5.94726">
        <ele>1446.4</ele>
        <time>2026-06-14T12:51:44.738Z</time>
      </trkpt>
      <trkpt lat="44.4908" lon="5.94715">
        <ele>1448.1</ele>
        <time>2026-06-14T12:51:58.976Z</time>
      </trkpt>
      <trkpt lat="44.49083" lon="5.94702">
        <ele>1449.1</ele>
        <time>2026-06-14T12:52:10.621Z</time>
      </trkpt>
      <trkpt lat="44.49083" lon="5.94698">
        <ele>1449</ele>
        <time>2026-06-14T12:52:13.233Z</time>
      </trkpt>
      <trkpt lat="44.49086" lon="5.94685">
        <ele>1450</ele>
        <time>2026-06-14T12:52:24.878Z</time>
      </trkpt>
      <trkpt lat="44.4909" lon="5.94662">
        <ele>1451.4</ele>
        <time>2026-06-14T12:52:44.071Z</time>
      </trkpt>
      <trkpt lat="44.49092" lon="5.94649">
        <ele>1452</ele>
        <time>2026-06-14T12:52:54.370Z</time>
      </trkpt>
      <trkpt lat="44.49098" lon="5.94614">
        <ele>1454.9</ele>
        <time>2026-06-14T12:53:25.917Z</time>
      </trkpt>
      <trkpt lat="44.49104" lon="5.94582">
        <ele>1457.4</ele>
        <time>2026-06-14T12:53:54.366Z</time>
      </trkpt>
      <trkpt lat="44.49107" lon="5.94559">
        <ele>1458.9</ele>
        <time>2026-06-14T12:54:13.654Z</time>
      </trkpt>
      <trkpt lat="44.49108" lon="5.94535">
        <ele>1459.4</ele>
        <time>2026-06-14T12:54:31.012Z</time>
      </trkpt>
      <trkpt lat="44.49111" lon="5.94506">
        <ele>1460.2</ele>
        <time>2026-06-14T12:54:52.544Z</time>
      </trkpt>
      <trkpt lat="44.49112" lon="5.94496">
        <ele>1460</ele>
        <time>2026-06-14T12:54:59.200Z</time>
      </trkpt>
      <trkpt lat="44.49114" lon="5.9449">
        <ele>1460.2</ele>
        <time>2026-06-14T12:55:04.106Z</time>
      </trkpt>
      <trkpt lat="44.49116" lon="5.94486">
        <ele>1460.5</ele>
        <time>2026-06-14T12:55:08.097Z</time>
      </trkpt>
      <trkpt lat="44.49119" lon="5.94482">
        <ele>1461.2</ele>
        <time>2026-06-14T12:55:14.139Z</time>
      </trkpt>
      <trkpt lat="44.49124" lon="5.94477">
        <ele>1462.4</ele>
        <time>2026-06-14T12:55:23.980Z</time>
      </trkpt>
      <trkpt lat="44.49129" lon="5.94471">
        <ele>1463.1</ele>
        <time>2026-06-14T12:55:31.923Z</time>
      </trkpt>
      <trkpt lat="44.49138" lon="5.94465">
        <ele>1464.6</ele>
        <time>2026-06-14T12:55:45.608Z</time>
      </trkpt>
      <trkpt lat="44.49149" lon="5.94457">
        <ele>1465.7</ele>
        <time>2026-06-14T12:55:59.897Z</time>
      </trkpt>
      <trkpt lat="44.49166" lon="5.94449">
        <ele>1468.3</ele>
        <time>2026-06-14T12:56:24.098Z</time>
      </trkpt>
      <trkpt lat="44.49181" lon="5.94442">
        <ele>1470.2</ele>
        <time>2026-06-14T12:56:43.918Z</time>
      </trkpt>
      <trkpt lat="44.49192" lon="5.94435">
        <ele>1470.6</ele>
        <time>2026-06-14T12:56:56.237Z</time>
      </trkpt>
      <trkpt lat="44.492" lon="5.94428">
        <ele>1470.4</ele>
        <time>2026-06-14T12:57:05.028Z</time>
      </trkpt>
      <trkpt lat="44.49208" lon="5.94423">
        <ele>1471.3</ele>
        <time>2026-06-14T12:57:15.497Z</time>
      </trkpt>
      <trkpt lat="44.49213" lon="5.9442">
        <ele>1471.9</ele>
        <time>2026-06-14T12:57:22.131Z</time>
      </trkpt>
      <trkpt lat="44.4922" lon="5.94418">
        <ele>1473.7</ele>
        <time>2026-06-14T12:57:36.532Z</time>
      </trkpt>
      <trkpt lat="44.49225" lon="5.94415">
        <ele>1474.7</ele>
        <time>2026-06-14T12:57:44.889Z</time>
      </trkpt>
      <trkpt lat="44.49229" lon="5.94412">
        <ele>1475.5</ele>
        <time>2026-06-14T12:57:51.677Z</time>
      </trkpt>
      <trkpt lat="44.49233" lon="5.94408">
        <ele>1476.2</ele>
        <time>2026-06-14T12:57:58.256Z</time>
      </trkpt>
      <trkpt lat="44.49236" lon="5.94404">
        <ele>1476.5</ele>
        <time>2026-06-14T12:58:02.846Z</time>
      </trkpt>
      <trkpt lat="44.49241" lon="5.94395">
        <ele>1476.5</ele>
        <time>2026-06-14T12:58:10.675Z</time>
      </trkpt>
      <trkpt lat="44.49245" lon="5.94383">
        <ele>1476.4</ele>
        <time>2026-06-14T12:58:19.618Z</time>
      </trkpt>
      <trkpt lat="44.49251" lon="5.94359">
        <ele>1477.4</ele>
        <time>2026-06-14T12:58:38.965Z</time>
      </trkpt>
      <trkpt lat="44.49255" lon="5.94343">
        <ele>1478.2</ele>
        <time>2026-06-14T12:58:52.180Z</time>
      </trkpt>
      <trkpt lat="44.49258" lon="5.94328">
        <ele>1478.6</ele>
        <time>2026-06-14T12:59:03.576Z</time>
      </trkpt>
      <trkpt lat="44.49262" lon="5.94314">
        <ele>1479.7</ele>
        <time>2026-06-14T12:59:16.417Z</time>
      </trkpt>
      <trkpt lat="44.49264" lon="5.94308">
        <ele>1480.2</ele>
        <time>2026-06-14T12:59:22.110Z</time>
      </trkpt>
      <trkpt lat="44.49266" lon="5.94301">
        <ele>1481.2</ele>
        <time>2026-06-14T12:59:30.436Z</time>
      </trkpt>
      <trkpt lat="44.49265" lon="5.94294">
        <ele>1480.8</ele>
        <time>2026-06-14T12:59:34.894Z</time>
      </trkpt>
      <trkpt lat="44.49265" lon="5.9428">
        <ele>1481.1</ele>
        <time>2026-06-14T12:59:45.019Z</time>
      </trkpt>
      <trkpt lat="44.49266" lon="5.9427">
        <ele>1482.1</ele>
        <time>2026-06-14T12:59:54.557Z</time>
      </trkpt>
      <trkpt lat="44.49268" lon="5.94247">
        <ele>1484.7</ele>
        <time>2026-06-14T13:00:17.755Z</time>
      </trkpt>
      <trkpt lat="44.49268" lon="5.94231">
        <ele>1486.6</ele>
        <time>2026-06-14T13:00:34.267Z</time>
      </trkpt>
      <trkpt lat="44.49268" lon="5.94219">
        <ele>1487.8</ele>
        <time>2026-06-14T13:00:45.650Z</time>
      </trkpt>
      <trkpt lat="44.49266" lon="5.94203">
        <ele>1487.1</ele>
        <time>2026-06-14T13:00:55.960Z</time>
      </trkpt>
      <trkpt lat="44.49265" lon="5.94192">
        <ele>1486.8</ele>
        <time>2026-06-14T13:01:03.176Z</time>
      </trkpt>
      <trkpt lat="44.49266" lon="5.94182">
        <ele>1487.8</ele>
        <time>2026-06-14T13:01:12.714Z</time>
      </trkpt>
      <trkpt lat="44.49267" lon="5.9417">
        <ele>1488.9</ele>
        <time>2026-06-14T13:01:23.753Z</time>
      </trkpt>
      <trkpt lat="44.49272" lon="5.94137">
        <ele>1492.5</ele>
        <time>2026-06-14T13:01:56.703Z</time>
      </trkpt>
      <trkpt lat="44.49275" lon="5.94119">
        <ele>1495</ele>
        <time>2026-06-14T13:02:17.387Z</time>
      </trkpt>
      <trkpt lat="44.49277" lon="5.94106">
        <ele>1496.4</ele>
        <time>2026-06-14T13:02:30.294Z</time>
      </trkpt>
      <trkpt lat="44.49279" lon="5.94092">
        <ele>1497.1</ele>
        <time>2026-06-14T13:02:41.488Z</time>
      </trkpt>
      <trkpt lat="44.49283" lon="5.94069">
        <ele>1499.4</ele>
        <time>2026-06-14T13:03:03.674Z</time>
      </trkpt>
      <trkpt lat="44.49285" lon="5.94054">
        <ele>1500.8</ele>
        <time>2026-06-14T13:03:17.656Z</time>
      </trkpt>
      <trkpt lat="44.49285" lon="5.94052">
        <ele>1500.9</ele>
        <time>2026-06-14T13:03:19.229Z</time>
        <extensions>
          <visugpx:TrkExtension xmlns:visugpx="https://www.visugpx.com/editgpx/">
            <visugpx:node>2</visugpx:node>
            </visugpx:TrkExtension>
        </extensions>
      </trkpt>
      <trkpt lat="44.49285" lon="5.94037">
        <ele>1501.7</ele>
        <time>2026-06-14T13:03:31.155Z</time>
      </trkpt>
      <trkpt lat="44.49287" lon="5.94021">
        <ele>1504</ele>
        <time>2026-06-14T13:03:49.938Z</time>
      </trkpt>
      <trkpt lat="44.49288" lon="5.94013">
        <ele>1505.1</ele>
        <time>2026-06-14T13:03:59.034Z</time>
      </trkpt>
      <trkpt lat="44.49289" lon="5.94018">
        <ele>1505.6</ele>
        <time>2026-06-14T13:04:03.883Z</time>
      </trkpt>
      <trkpt lat="44.49291" lon="5.94027">
        <ele>1506.6</ele>
        <time>2026-06-14T13:04:13.064Z</time>
      </trkpt>
      <trkpt lat="44.49292" lon="5.94029">
        <ele>1507.2</ele>
        <time>2026-06-14T13:04:18.607Z</time>
      </trkpt>
      <trkpt lat="44.49294" lon="5.94031">
        <ele>1508.4</ele>
        <time>2026-06-14T13:04:32.504Z</time>
      </trkpt>
      <trkpt lat="44.49296" lon="5.94037">
        <ele>1509.4</ele>
        <time>2026-06-14T13:04:40.557Z</time>
      </trkpt>
      <trkpt lat="44.49297" lon="5.94041">
        <ele>1509.7</ele>
        <time>2026-06-14T13:04:44.138Z</time>
      </trkpt>
      <trkpt lat="44.49299" lon="5.94048">
        <ele>1510.4</ele>
        <time>2026-06-14T13:04:51.078Z</time>
      </trkpt>
      <trkpt lat="44.493" lon="5.94053">
        <ele>1510.6</ele>
        <time>2026-06-14T13:04:55.019Z</time>
      </trkpt>
      <trkpt lat="44.49302" lon="5.9406">
        <ele>1511.7</ele>
        <time>2026-06-14T13:05:03.938Z</time>
      </trkpt>
      <trkpt lat="44.49303" lon="5.94063">
        <ele>1512.3</ele>
        <time>2026-06-14T13:05:08.743Z</time>
      </trkpt>
      <trkpt lat="44.49304" lon="5.94068">
        <ele>1513</ele>
        <time>2026-06-14T13:05:14.541Z</time>
      </trkpt>
      <trkpt lat="44.49305" lon="5.94072">
        <ele>1513.6</ele>
        <time>2026-06-14T13:05:19.441Z</time>
      </trkpt>
      <trkpt lat="44.49306" lon="5.94078">
        <ele>1514.3</ele>
        <time>2026-06-14T13:05:25.649Z</time>
      </trkpt>
      <trkpt lat="44.49306" lon="5.94081">
        <ele>1514.3</ele>
        <time>2026-06-14T13:05:27.708Z</time>
      </trkpt>
      <trkpt lat="44.49306" lon="5.94087">
        <ele>1514.4</ele>
        <time>2026-06-14T13:05:31.994Z</time>
      </trkpt>
      <trkpt lat="44.49307" lon="5.94091">
        <ele>1515.2</ele>
        <time>2026-06-14T13:05:38.444Z</time>
      </trkpt>
      <trkpt lat="44.49308" lon="5.94094">
        <ele>1515.9</ele>
        <time>2026-06-14T13:05:44.306Z</time>
      </trkpt>
      <trkpt lat="44.49308" lon="5.94098">
        <ele>1516</ele>
        <time>2026-06-14T13:05:47.227Z</time>
      </trkpt>
      <trkpt lat="44.49308" lon="5.941">
        <ele>1516.1</ele>
        <time>2026-06-14T13:05:48.800Z</time>
      </trkpt>
      <trkpt lat="44.49308" lon="5.94101">
        <ele>1516.1</ele>
        <time>2026-06-14T13:05:49.486Z</time>
      </trkpt>
      <trkpt lat="44.49312" lon="5.94113">
        <ele>1518.7</ele>
        <time>2026-06-14T13:06:10.658Z</time>
      </trkpt>
      <trkpt lat="44.49314" lon="5.94121">
        <ele>1520.1</ele>
        <time>2026-06-14T13:06:21.826Z</time>
      </trkpt>
      <trkpt lat="44.49314" lon="5.94131">
        <ele>1520.3</ele>
        <time>2026-06-14T13:06:29.030Z</time>
      </trkpt>
      <trkpt lat="44.49314" lon="5.94133">
        <ele>1520.3</ele>
        <time>2026-06-14T13:06:30.403Z</time>
      </trkpt>
      <trkpt lat="44.49314" lon="5.94136">
        <ele>1520.4</ele>
        <time>2026-06-14T13:06:32.645Z</time>
      </trkpt>
      <trkpt lat="44.49316" lon="5.94144">
        <ele>1521.8</ele>
        <time>2026-06-14T13:06:43.813Z</time>
      </trkpt>
      <trkpt lat="44.4932" lon="5.9415">
        <ele>1524.3</ele>
        <time>2026-06-14T13:07:12.311Z</time>
      </trkpt>
      <trkpt lat="44.4932" lon="5.94154">
        <ele>1524.3</ele>
        <time>2026-06-14T13:07:15.056Z</time>
      </trkpt>
      <trkpt lat="44.49319" lon="5.94156">
        <ele>1523.7</ele>
        <time>2026-06-14T13:07:17.097Z</time>
      </trkpt>
      <trkpt lat="44.49319" lon="5.94159">
        <ele>1523.7</ele>
        <time>2026-06-14T13:07:19.156Z</time>
      </trkpt>
      <trkpt lat="44.4932" lon="5.94163">
        <ele>1524.3</ele>
        <time>2026-06-14T13:07:24.056Z</time>
      </trkpt>
      <trkpt lat="44.49321" lon="5.94165">
        <ele>1524.9</ele>
        <time>2026-06-14T13:07:29.599Z</time>
      </trkpt>
      <trkpt lat="44.49322" lon="5.94167">
        <ele>1525.5</ele>
        <time>2026-06-14T13:07:35.142Z</time>
      </trkpt>
      <trkpt lat="44.49323" lon="5.94177">
        <ele>1526.3</ele>
        <time>2026-06-14T13:07:43.946Z</time>
      </trkpt>
      <trkpt lat="44.49323" lon="5.9418">
        <ele>1526.3</ele>
        <time>2026-06-14T13:07:46.004Z</time>
      </trkpt>
      <trkpt lat="44.49325" lon="5.94186">
        <ele>1527.7</ele>
        <time>2026-06-14T13:07:57.728Z</time>
      </trkpt>
      <trkpt lat="44.49326" lon="5.94189">
        <ele>1528.4</ele>
        <time>2026-06-14T13:08:03.590Z</time>
      </trkpt>
      <trkpt lat="44.49326" lon="5.94196">
        <ele>1528.5</ele>
        <time>2026-06-14T13:08:08.560Z</time>
      </trkpt>
      <trkpt lat="44.49326" lon="5.94198">
        <ele>1528.5</ele>
        <time>2026-06-14T13:08:09.932Z</time>
      </trkpt>
      <trkpt lat="44.49329" lon="5.94207">
        <ele>1530.3</ele>
        <time>2026-06-14T13:08:24.347Z</time>
      </trkpt>
      <trkpt lat="44.49331" lon="5.94209">
        <ele>1531.6</ele>
        <time>2026-06-14T13:08:38.244Z</time>
      </trkpt>
      <trkpt lat="44.49331" lon="5.94215">
        <ele>1531.6</ele>
        <time>2026-06-14T13:08:42.361Z</time>
      </trkpt>
      <trkpt lat="44.49333" lon="5.94222">
        <ele>1532.8</ele>
        <time>2026-06-14T13:08:51.957Z</time>
      </trkpt>
      <trkpt lat="44.49338" lon="5.94235">
        <ele>1533.8</ele>
        <time>2026-06-14T13:09:04.296Z</time>
      </trkpt>
      <trkpt lat="44.49342" lon="5.9424">
        <ele>1535.4</ele>
        <time>2026-06-14T13:09:17.741Z</time>
      </trkpt>
      <trkpt lat="44.49344" lon="5.94244">
        <ele>1536</ele>
        <time>2026-06-14T13:09:22.881Z</time>
      </trkpt>
      <trkpt lat="44.49345" lon="5.94246">
        <ele>1536.3</ele>
        <time>2026-06-14T13:09:25.451Z</time>
      </trkpt>
      <trkpt lat="44.49348" lon="5.94251">
        <ele>1537.3</ele>
        <time>2026-06-14T13:09:33.487Z</time>
      </trkpt>
      <trkpt lat="44.49351" lon="5.94257">
        <ele>1538.3</ele>
        <time>2026-06-14T13:09:41.738Z</time>
      </trkpt>
      <trkpt lat="44.49355" lon="5.94268">
        <ele>1539</ele>
        <time>2026-06-14T13:09:51.665Z</time>
      </trkpt>
      <trkpt lat="44.49358" lon="5.94271">
        <ele>1540.3</ele>
        <time>2026-06-14T13:10:03.928Z</time>
      </trkpt>
      <trkpt lat="44.49359" lon="5.94275">
        <ele>1540.3</ele>
        <time>2026-06-14T13:10:06.837Z</time>
      </trkpt>
      <trkpt lat="44.49359" lon="5.94277">
        <ele>1540</ele>
        <time>2026-06-14T13:10:08.078Z</time>
      </trkpt>
      <trkpt lat="44.4936" lon="5.94279">
        <ele>1540.4</ele>
        <time>2026-06-14T13:10:11.270Z</time>
      </trkpt>
      <trkpt lat="44.49362" lon="5.94282">
        <ele>1541.5</ele>
        <time>2026-06-14T13:10:22.288Z</time>
      </trkpt>
      <trkpt lat="44.49362" lon="5.94285">
        <ele>1541.5</ele>
        <time>2026-06-14T13:10:24.347Z</time>
      </trkpt>
      <trkpt lat="44.49361" lon="5.94288">
        <ele>1540.9</ele>
        <time>2026-06-14T13:10:26.511Z</time>
      </trkpt>
      <trkpt lat="44.49361" lon="5.94292">
        <ele>1540.9</ele>
        <time>2026-06-14T13:10:29.256Z</time>
      </trkpt>
      <trkpt lat="44.49362" lon="5.94296">
        <ele>1541.5</ele>
        <time>2026-06-14T13:10:34.156Z</time>
      </trkpt>
      <trkpt lat="44.49364" lon="5.94298">
        <ele>1542.6</ele>
        <time>2026-06-14T13:10:47.156Z</time>
      </trkpt>
      <trkpt lat="44.49365" lon="5.94303">
        <ele>1543.1</ele>
        <time>2026-06-14T13:10:52.004Z</time>
      </trkpt>
      <trkpt lat="44.49365" lon="5.94305">
        <ele>1543.1</ele>
        <time>2026-06-14T13:10:53.377Z</time>
      </trkpt>
      <trkpt lat="44.49366" lon="5.94309">
        <ele>1543.8</ele>
        <time>2026-06-14T13:10:58.961Z</time>
      </trkpt>
      <trkpt lat="44.49366" lon="5.9431">
        <ele>1543.9</ele>
        <time>2026-06-14T13:10:59.909Z</time>
      </trkpt>
      <trkpt lat="44.49364" lon="5.94316">
        <ele>1543.1</ele>
        <time>2026-06-14T13:11:03.933Z</time>
      </trkpt>
      <trkpt lat="44.49366" lon="5.94323">
        <ele>1544.6</ele>
        <time>2026-06-14T13:11:16.198Z</time>
      </trkpt>
      <trkpt lat="44.49365" lon="5.94326">
        <ele>1544.1</ele>
        <time>2026-06-14T13:11:18.255Z</time>
      </trkpt>
      <trkpt lat="44.49366" lon="5.94327">
        <ele>1544.8</ele>
        <time>2026-06-14T13:11:25.203Z</time>
      </trkpt>
      <trkpt lat="44.49366" lon="5.9433">
        <ele>1545</ele>
        <time>2026-06-14T13:11:27.700Z</time>
      </trkpt>
      <trkpt lat="44.49368" lon="5.94335">
        <ele>1546.4</ele>
        <time>2026-06-14T13:11:40.570Z</time>
      </trkpt>
      <trkpt lat="44.49367" lon="5.94344">
        <ele>1545.5</ele>
        <time>2026-06-14T13:11:46.097Z</time>
      </trkpt>
      <trkpt lat="44.49368" lon="5.94344">
        <ele>1546.2</ele>
        <time>2026-06-14T13:11:51.754Z</time>
      </trkpt>
      <trkpt lat="44.49369" lon="5.9435">
        <ele>1546.7</ele>
        <time>2026-06-14T13:11:57.166Z</time>
      </trkpt>
      <trkpt lat="44.49371" lon="5.94353">
        <ele>1548</ele>
        <time>2026-06-14T13:12:12.446Z</time>
      </trkpt>
      <trkpt lat="44.49374" lon="5.9436">
        <ele>1549.8</ele>
        <time>2026-06-14T13:12:27.848Z</time>
      </trkpt>
      <trkpt lat="44.49376" lon="5.94364">
        <ele>1550.9</ele>
        <time>2026-06-14T13:12:37.382Z</time>
      </trkpt>
      <trkpt lat="44.49379" lon="5.94373">
        <ele>1552</ele>
        <time>2026-06-14T13:12:47.261Z</time>
      </trkpt>
      <trkpt lat="44.49379" lon="5.94378">
        <ele>1551.4</ele>
        <time>2026-06-14T13:12:50.298Z</time>
      </trkpt>
      <trkpt lat="44.49382" lon="5.9439">
        <ele>1552.1</ele>
        <time>2026-06-14T13:13:00.466Z</time>
      </trkpt>
      <trkpt lat="44.49383" lon="5.94391">
        <ele>1552.6</ele>
        <time>2026-06-14T13:13:05.910Z</time>
      </trkpt>
      <trkpt lat="44.49383" lon="5.94394">
        <ele>1552.1</ele>
        <time>2026-06-14T13:13:07.816Z</time>
      </trkpt>
      <trkpt lat="44.49384" lon="5.94393">
        <ele>1552.9</ele>
        <time>2026-06-14T13:13:14.764Z</time>
      </trkpt>
      <trkpt lat="44.49384" lon="5.94392">
        <ele>1553.1</ele>
        <time>2026-06-14T13:13:16.402Z</time>
        <extensions>
          <visugpx:TrkExtension xmlns:visugpx="https://www.visugpx.com/editgpx/">
            <visugpx:node>3</visugpx:node>
            </visugpx:TrkExtension>
        </extensions>
      </trkpt>
      <trkpt lat="44.49384" lon="5.94391">
        <ele>1553.3</ele>
        <time>2026-06-14T13:13:18.041Z</time>
      </trkpt>
      <trkpt lat="44.49384" lon="5.94388">
        <ele>1553.8</ele>
        <time>2026-06-14T13:13:22.028Z</time>
      </trkpt>
      <trkpt lat="44.49385" lon="5.94379">
        <ele>1555.4</ele>
        <time>2026-06-14T13:13:34.803Z</time>
      </trkpt>
      <trkpt lat="44.49384" lon="5.94376">
        <ele>1555</ele>
        <time>2026-06-14T13:13:36.814Z</time>
      </trkpt>
      <trkpt lat="44.49385" lon="5.94371">
        <ele>1556.3</ele>
        <time>2026-06-14T13:13:49.021Z</time>
      </trkpt>
      <trkpt lat="44.49386" lon="5.9437">
        <ele>1557.1</ele>
        <time>2026-06-14T13:13:55.970Z</time>
      </trkpt>
      <trkpt lat="44.49385" lon="5.94362">
        <ele>1557.2</ele>
        <time>2026-06-14T13:14:01.707Z</time>
      </trkpt>
      <trkpt lat="44.49386" lon="5.9435">
        <ele>1558.1</ele>
        <time>2026-06-14T13:14:12.054Z</time>
      </trkpt>
      <trkpt lat="44.49387" lon="5.94349">
        <ele>1558.7</ele>
        <time>2026-06-14T13:14:19.002Z</time>
      </trkpt>
      <trkpt lat="44.4939" lon="5.94345">
        <ele>1560.8</ele>
        <time>2026-06-14T13:14:42.421Z</time>
      </trkpt>
      <trkpt lat="44.49391" lon="5.9434">
        <ele>1561.5</ele>
        <time>2026-06-14T13:14:48.218Z</time>
      </trkpt>
      <trkpt lat="44.49391" lon="5.94339">
        <ele>1561.5</ele>
        <time>2026-06-14T13:14:48.905Z</time>
      </trkpt>
      <trkpt lat="44.49391" lon="5.94337">
        <ele>1561.5</ele>
        <time>2026-06-14T13:14:50.277Z</time>
      </trkpt>
      <trkpt lat="44.49393" lon="5.94335">
        <ele>1563</ele>
        <time>2026-06-14T13:15:04.174Z</time>
      </trkpt>
      <trkpt lat="44.49396" lon="5.94333">
        <ele>1565.1</ele>
        <time>2026-06-14T13:15:22.964Z</time>
      </trkpt>
      <trkpt lat="44.49396" lon="5.94325">
        <ele>1563.7</ele>
        <time>2026-06-14T13:15:28.124Z</time>
      </trkpt>
      <trkpt lat="44.49397" lon="5.94322">
        <ele>1563.9</ele>
        <time>2026-06-14T13:15:30.820Z</time>
      </trkpt>
      <trkpt lat="44.49397" lon="5.94321">
        <ele>1563.7</ele>
        <time>2026-06-14T13:15:31.507Z</time>
      </trkpt>
      <trkpt lat="44.49399" lon="5.94318">
        <ele>1564.5</ele>
        <time>2026-06-14T13:15:38.007Z</time>
      </trkpt>
      <trkpt lat="44.494" lon="5.94315">
        <ele>1564.6</ele>
        <time>2026-06-14T13:15:40.460Z</time>
      </trkpt>
      <trkpt lat="44.49404" lon="5.94307">
        <ele>1565.5</ele>
        <time>2026-06-14T13:15:49.425Z</time>
      </trkpt>
      <trkpt lat="44.49405" lon="5.943">
        <ele>1566.1</ele>
        <time>2026-06-14T13:15:55.767Z</time>
      </trkpt>
      <trkpt lat="44.49407" lon="5.94298">
        <ele>1567.4</ele>
        <time>2026-06-14T13:16:09.663Z</time>
      </trkpt>
      <trkpt lat="44.49408" lon="5.94297">
        <ele>1568</ele>
        <time>2026-06-14T13:16:16.612Z</time>
      </trkpt>
      <trkpt lat="44.49407" lon="5.94295">
        <ele>1567.5</ele>
        <time>2026-06-14T13:16:18.312Z</time>
      </trkpt>
      <trkpt lat="44.49406" lon="5.94294">
        <ele>1566.9</ele>
        <time>2026-06-14T13:16:21.786Z</time>
      </trkpt>
      <trkpt lat="44.49408" lon="5.94282">
        <ele>1568.5</ele>
        <time>2026-06-14T13:16:35.205Z</time>
      </trkpt>
      <trkpt lat="44.49406" lon="5.94269">
        <ele>1569.4</ele>
        <time>2026-06-14T13:16:46.313Z</time>
      </trkpt>
      <trkpt lat="44.49404" lon="5.94261">
        <ele>1569.9</ele>
        <time>2026-06-14T13:16:53.182Z</time>
      </trkpt>
      <trkpt lat="44.49401" lon="5.94242">
        <ele>1571.7</ele>
        <time>2026-06-14T13:17:11.067Z</time>
      </trkpt>
      <trkpt lat="44.49401" lon="5.9424">
        <ele>1572.1</ele>
        <time>2026-06-14T13:17:14.344Z</time>
      </trkpt>
      <trkpt lat="44.494" lon="5.94236">
        <ele>1572.1</ele>
        <time>2026-06-14T13:17:17.253Z</time>
      </trkpt>
      <trkpt lat="44.494" lon="5.94234">
        <ele>1572.5</ele>
        <time>2026-06-14T13:17:20.529Z</time>
      </trkpt>
      <trkpt lat="44.494" lon="5.94232">
        <ele>1572.8</ele>
        <time>2026-06-14T13:17:22.948Z</time>
      </trkpt>
      <trkpt lat="44.49401" lon="5.94227">
        <ele>1574.4</ele>
        <time>2026-06-14T13:17:41.378Z</time>
      </trkpt>
      <trkpt lat="44.494" lon="5.94218">
        <ele>1574.8</ele>
        <time>2026-06-14T13:17:48.405Z</time>
      </trkpt>
      <trkpt lat="44.494" lon="5.94215">
        <ele>1574.9</ele>
        <time>2026-06-14T13:17:50.647Z</time>
      </trkpt>
      <trkpt lat="44.49403" lon="5.9421">
        <ele>1577.1</ele>
        <time>2026-06-14T13:18:17.010Z</time>
      </trkpt>
      <trkpt lat="44.49405" lon="5.94202">
        <ele>1578.7</ele>
        <time>2026-06-14T13:18:29.911Z</time>
      </trkpt>
      <trkpt lat="44.49406" lon="5.94195">
        <ele>1579.7</ele>
        <time>2026-06-14T13:18:38.101Z</time>
      </trkpt>
      <trkpt lat="44.49407" lon="5.94192">
        <ele>1580.4</ele>
        <time>2026-06-14T13:18:43.962Z</time>
      </trkpt>
      <trkpt lat="44.49409" lon="5.94188">
        <ele>1581.8</ele>
        <time>2026-06-14T13:18:59.004Z</time>
      </trkpt>
      <trkpt lat="44.49411" lon="5.94184">
        <ele>1583.1</ele>
        <time>2026-06-14T13:19:11.940Z</time>
      </trkpt>
      <trkpt lat="44.49411" lon="5.94175">
        <ele>1583.1</ele>
        <time>2026-06-14T13:19:18.117Z</time>
      </trkpt>
      <trkpt lat="44.49415" lon="5.94164">
        <ele>1586</ele>
        <time>2026-06-14T13:19:43.977Z</time>
      </trkpt>
      <trkpt lat="44.49416" lon="5.94163">
        <ele>1586.7</ele>
        <time>2026-06-14T13:19:50.925Z</time>
      </trkpt>
      <trkpt lat="44.49417" lon="5.9416">
        <ele>1587.5</ele>
        <time>2026-06-14T13:19:58.215Z</time>
      </trkpt>
      <trkpt lat="44.49417" lon="5.94153">
        <ele>1587.7</ele>
        <time>2026-06-14T13:20:03.377Z</time>
      </trkpt>
      <trkpt lat="44.49418" lon="5.94149">
        <ele>1588.6</ele>
        <time>2026-06-14T13:20:10.929Z</time>
      </trkpt>
      <trkpt lat="44.49418" lon="5.94142">
        <ele>1588.8</ele>
        <time>2026-06-14T13:20:16.091Z</time>
      </trkpt>
      <trkpt lat="44.49419" lon="5.94138">
        <ele>1589.7</ele>
        <time>2026-06-14T13:20:23.643Z</time>
      </trkpt>
      <trkpt lat="44.49418" lon="5.94135">
        <ele>1589.2</ele>
        <time>2026-06-14T13:20:25.701Z</time>
      </trkpt>
      <trkpt lat="44.49418" lon="5.9413">
        <ele>1589.6</ele>
        <time>2026-06-14T13:20:30.073Z</time>
      </trkpt>
      <trkpt lat="44.49417" lon="5.94126">
        <ele>1589.2</ele>
        <time>2026-06-14T13:20:32.648Z</time>
      </trkpt>
      <trkpt lat="44.49415" lon="5.94122">
        <ele>1588</ele>
        <time>2026-06-14T13:20:36.730Z</time>
      </trkpt>
      <trkpt lat="44.49413" lon="5.94118">
        <ele>1586.9</ele>
        <time>2026-06-14T13:20:40.406Z</time>
      </trkpt>
      <trkpt lat="44.49413" lon="5.94115">
        <ele>1587.1</ele>
        <time>2026-06-14T13:20:42.903Z</time>
      </trkpt>
      <trkpt lat="44.49413" lon="5.94111">
        <ele>1587.4</ele>
        <time>2026-06-14T13:20:46.335Z</time>
      </trkpt>
      <trkpt lat="44.49417" lon="5.94099">
        <ele>1590.2</ele>
        <time>2026-06-14T13:21:09.782Z</time>
      </trkpt>
      <trkpt lat="44.49419" lon="5.94089">
        <ele>1591.6</ele>
        <time>2026-06-14T13:21:21.377Z</time>
      </trkpt>
      <trkpt lat="44.49422" lon="5.94082">
        <ele>1593.5</ele>
        <time>2026-06-14T13:21:38.205Z</time>
      </trkpt>
      <trkpt lat="44.49423" lon="5.9408">
        <ele>1594</ele>
        <time>2026-06-14T13:21:42.335Z</time>
      </trkpt>
      <trkpt lat="44.49429" lon="5.94062">
        <ele>1596.1</ele>
        <time>2026-06-14T13:22:01.654Z</time>
      </trkpt>
      <trkpt lat="44.49432" lon="5.94057">
        <ele>1597.6</ele>
        <time>2026-06-14T13:22:14.818Z</time>
      </trkpt>
      <trkpt lat="44.49435" lon="5.94054">
        <ele>1599.4</ele>
        <time>2026-06-14T13:22:35.662Z</time>
      </trkpt>
      <trkpt lat="44.49437" lon="5.94053">
        <ele>1600.6</ele>
        <time>2026-06-14T13:22:47.673Z</time>
      </trkpt>
      <trkpt lat="44.49439" lon="5.9405">
        <ele>1601.6</ele>
        <time>2026-06-14T13:22:56.845Z</time>
      </trkpt>
      <trkpt lat="44.49441" lon="5.94048">
        <ele>1602.6</ele>
        <time>2026-06-14T13:23:07.734Z</time>
      </trkpt>
      <trkpt lat="44.49443" lon="5.94044">
        <ele>1603.4</ele>
        <time>2026-06-14T13:23:14.118Z</time>
      </trkpt>
      <trkpt lat="44.49445" lon="5.9404">
        <ele>1604</ele>
        <time>2026-06-14T13:23:19.258Z</time>
      </trkpt>
      <trkpt lat="44.49447" lon="5.94036">
        <ele>1604.5</ele>
        <time>2026-06-14T13:23:23.939Z</time>
      </trkpt>
      <trkpt lat="44.4945" lon="5.94034">
        <ele>1605.9</ele>
        <time>2026-06-14T13:23:39.716Z</time>
      </trkpt>
      <trkpt lat="44.49454" lon="5.94026">
        <ele>1607.4</ele>
        <time>2026-06-14T13:23:51.764Z</time>
      </trkpt>
      <trkpt lat="44.49454" lon="5.94022">
        <ele>1607.2</ele>
        <time>2026-06-14T13:23:54.280Z</time>
      </trkpt>
      <trkpt lat="44.49456" lon="5.94014">
        <ele>1608.1</ele>
        <time>2026-06-14T13:24:02.540Z</time>
      </trkpt>
      <trkpt lat="44.49457" lon="5.94012">
        <ele>1608.6</ele>
        <time>2026-06-14T13:24:06.670Z</time>
      </trkpt>
      <trkpt lat="44.49459" lon="5.94011">
        <ele>1609.8</ele>
        <time>2026-06-14T13:24:18.681Z</time>
      </trkpt>
      <trkpt lat="44.49459" lon="5.94009">
        <ele>1609.7</ele>
        <time>2026-06-14T13:24:19.939Z</time>
      </trkpt>
      <trkpt lat="44.49462" lon="5.94006">
        <ele>1611.5</ele>
        <time>2026-06-14T13:24:40.783Z</time>
      </trkpt>
      <trkpt lat="44.49464" lon="5.93999">
        <ele>1612.6</ele>
        <time>2026-06-14T13:24:49.703Z</time>
      </trkpt>
      <trkpt lat="44.49464" lon="5.93995">
        <ele>1612.5</ele>
        <time>2026-06-14T13:24:52.314Z</time>
      </trkpt>
      <trkpt lat="44.49465" lon="5.93987">
        <ele>1612.9</ele>
        <time>2026-06-14T13:24:58.687Z</time>
      </trkpt>
      <trkpt lat="44.49465" lon="5.93986">
        <ele>1612.8</ele>
        <time>2026-06-14T13:24:59.293Z</time>
      </trkpt>
      <trkpt lat="44.49465" lon="5.93983">
        <ele>1612.7</ele>
        <time>2026-06-14T13:25:01.225Z</time>
      </trkpt>
      <trkpt lat="44.49467" lon="5.93979">
        <ele>1613.9</ele>
        <time>2026-06-14T13:25:12.311Z</time>
      </trkpt>
      <trkpt lat="44.49468" lon="5.93978">
        <ele>1614.5</ele>
        <time>2026-06-14T13:25:19.259Z</time>
      </trkpt>
      <trkpt lat="44.49469" lon="5.93976">
        <ele>1615</ele>
        <time>2026-06-14T13:25:23.389Z</time>
      </trkpt>
      <trkpt lat="44.49469" lon="5.93973">
        <ele>1614.9</ele>
        <time>2026-06-14T13:25:25.321Z</time>
      </trkpt>
      <trkpt lat="44.49469" lon="5.9397">
        <ele>1614.9</ele>
        <time>2026-06-14T13:25:27.380Z</time>
      </trkpt>
      <trkpt lat="44.49468" lon="5.93967">
        <ele>1614.3</ele>
        <time>2026-06-14T13:25:29.544Z</time>
      </trkpt>
      <trkpt lat="44.49468" lon="5.93966">
        <ele>1614.3</ele>
        <time>2026-06-14T13:25:30.230Z</time>
      </trkpt>
      <trkpt lat="44.4947" lon="5.93961">
        <ele>1615.6</ele>
        <time>2026-06-14T13:25:41.547Z</time>
      </trkpt>
      <trkpt lat="44.4947" lon="5.93957">
        <ele>1615.6</ele>
        <time>2026-06-14T13:25:44.292Z</time>
      </trkpt>
      <trkpt lat="44.49468" lon="5.93952">
        <ele>1614.5</ele>
        <time>2026-06-14T13:25:48.136Z</time>
      </trkpt>
      <trkpt lat="44.49468" lon="5.93949">
        <ele>1614.5</ele>
        <time>2026-06-14T13:25:50.195Z</time>
      </trkpt>
      <trkpt lat="44.49467" lon="5.93946">
        <ele>1614</ele>
        <time>2026-06-14T13:25:52.252Z</time>
      </trkpt>
      <trkpt lat="44.49467" lon="5.93943">
        <ele>1613.9</ele>
        <time>2026-06-14T13:25:54.184Z</time>
      </trkpt>
      <trkpt lat="44.49469" lon="5.93944">
        <ele>1615.1</ele>
        <time>2026-06-14T13:26:06.195Z</time>
      </trkpt>
      <trkpt lat="44.49472" lon="5.93951">
        <ele>1616.9</ele>
        <time>2026-06-14T13:26:21.598Z</time>
      </trkpt>
      <trkpt lat="44.49475" lon="5.93956">
        <ele>1618.7</ele>
        <time>2026-06-14T13:26:40.155Z</time>
      </trkpt>
      <trkpt lat="44.49476" lon="5.93959">
        <ele>1619.3</ele>
        <time>2026-06-14T13:26:44.960Z</time>
      </trkpt>
      <trkpt lat="44.49477" lon="5.93965">
        <ele>1620</ele>
        <time>2026-06-14T13:26:51.169Z</time>
      </trkpt>
      <trkpt lat="44.49477" lon="5.93966">
        <ele>1620</ele>
        <time>2026-06-14T13:26:51.855Z</time>
      </trkpt>
      <trkpt lat="44.4948" lon="5.93969">
        <ele>1622</ele>
        <time>2026-06-14T13:27:12.699Z</time>
      </trkpt>
      <trkpt lat="44.49481" lon="5.93972">
        <ele>1622.7</ele>
        <time>2026-06-14T13:27:18.561Z</time>
      </trkpt>
      <trkpt lat="44.49482" lon="5.93975">
        <ele>1623.4</ele>
        <time>2026-06-14T13:27:24.423Z</time>
      </trkpt>
      <trkpt lat="44.49482" lon="5.93981">
        <ele>1623.7</ele>
        <time>2026-06-14T13:27:29.142Z</time>
      </trkpt>
      <trkpt lat="44.49485" lon="5.93991">
        <ele>1626</ele>
        <time>2026-06-14T13:27:48.429Z</time>
      </trkpt>
      <trkpt lat="44.49486" lon="5.93991">
        <ele>1626.6</ele>
        <time>2026-06-14T13:27:54.086Z</time>
      </trkpt>
      <trkpt lat="44.49487" lon="5.93994">
        <ele>1627.4</ele>
        <time>2026-06-14T13:28:01.375Z</time>
      </trkpt>
      <trkpt lat="44.49489" lon="5.94001">
        <ele>1628.9</ele>
        <time>2026-06-14T13:28:13.640Z</time>
      </trkpt>
      <trkpt lat="44.49489" lon="5.94004">
        <ele>1628.9</ele>
        <time>2026-06-14T13:28:15.699Z</time>
      </trkpt>
      <trkpt lat="44.49488" lon="5.94007">
        <ele>1628.2</ele>
        <time>2026-06-14T13:28:18.058Z</time>
      </trkpt>
      <trkpt lat="44.49488" lon="5.94019">
        <ele>1628.2</ele>
        <time>2026-06-14T13:28:26.293Z</time>
      </trkpt>
      <trkpt lat="44.49488" lon="5.94024">
        <ele>1628.2</ele>
        <time>2026-06-14T13:28:29.724Z</time>
      </trkpt>
      <trkpt lat="44.4949" lon="5.94028">
        <ele>1629.5</ele>
        <time>2026-06-14T13:28:42.660Z</time>
      </trkpt>
      <trkpt lat="44.49491" lon="5.9403">
        <ele>1630</ele>
        <time>2026-06-14T13:28:46.790Z</time>
      </trkpt>
      <trkpt lat="44.49492" lon="5.94033">
        <ele>1630.4</ele>
        <time>2026-06-14T13:28:50.241Z</time>
      </trkpt>
      <trkpt lat="44.49495" lon="5.94039">
        <ele>1631.8</ele>
        <time>2026-06-14T13:29:01.560Z</time>
      </trkpt>
      <trkpt lat="44.49495" lon="5.94042">
        <ele>1631.5</ele>
        <time>2026-06-14T13:29:03.380Z</time>
      </trkpt>
      <trkpt lat="44.49496" lon="5.94045">
        <ele>1631.8</ele>
        <time>2026-06-14T13:29:06.400Z</time>
      </trkpt>
      <trkpt lat="44.49499" lon="5.94048">
        <ele>1633.2</ele>
        <time>2026-06-14T13:29:20.590Z</time>
      </trkpt>
      <trkpt lat="44.49498" lon="5.94055">
        <ele>1632</ele>
        <time>2026-06-14T13:29:25.136Z</time>
      </trkpt>
      <trkpt lat="44.49498" lon="5.94064">
        <ele>1632</ele>
        <time>2026-06-14T13:29:31.313Z</time>
      </trkpt>
      <trkpt lat="44.495" lon="5.94071">
        <ele>1633</ele>
        <time>2026-06-14T13:29:39.638Z</time>
      </trkpt>
      <trkpt lat="44.49501" lon="5.9408">
        <ele>1633.6</ele>
        <time>2026-06-14T13:29:47.198Z</time>
      </trkpt>
      <trkpt lat="44.49502" lon="5.94083">
        <ele>1634.1</ele>
        <time>2026-06-14T13:29:51.225Z</time>
      </trkpt>
      <trkpt lat="44.49505" lon="5.94103">
        <ele>1637.2</ele>
        <time>2026-06-14T13:30:16.172Z</time>
      </trkpt>
      <trkpt lat="44.49506" lon="5.94105">
        <ele>1638</ele>
        <time>2026-06-14T13:30:25.736Z</time>
      </trkpt>
      <trkpt lat="44.49505" lon="5.94109">
        <ele>1637.7</ele>
        <time>2026-06-14T13:30:28.345Z</time>
      </trkpt>
      <trkpt lat="44.49504" lon="5.94123">
        <ele>1639.8</ele>
        <time>2026-06-14T13:30:45.294Z</time>
      </trkpt>
      <trkpt lat="44.49502" lon="5.94126">
        <ele>1639.3</ele>
        <time>2026-06-14T13:30:47.789Z</time>
      </trkpt>
      <trkpt lat="44.49502" lon="5.94133">
        <ele>1640.8</ele>
        <time>2026-06-14T13:31:00.433Z</time>
      </trkpt>
      <trkpt lat="44.49503" lon="5.94136">
        <ele>1642</ele>
        <time>2026-06-14T13:31:13.794Z</time>
      </trkpt>
      <trkpt lat="44.49502" lon="5.94138">
        <ele>1641.9</ele>
        <time>2026-06-14T13:31:15.349Z</time>
      </trkpt>
      <trkpt lat="44.49503" lon="5.94145">
        <ele>1643.3</ele>
        <time>2026-06-14T13:31:26.746Z</time>
      </trkpt>
      <trkpt lat="44.49503" lon="5.94149">
        <ele>1643.7</ele>
        <time>2026-06-14T13:31:30.540Z</time>
      </trkpt>
      <trkpt lat="44.495" lon="5.94154">
        <ele>1642.6</ele>
        <time>2026-06-14T13:31:34.703Z</time>
      </trkpt>
      <trkpt lat="44.495" lon="5.94159">
        <ele>1643.2</ele>
        <time>2026-06-14T13:31:39.893Z</time>
      </trkpt>
      <trkpt lat="44.495" lon="5.94165">
        <ele>1643.8</ele>
        <time>2026-06-14T13:31:45.584Z</time>
      </trkpt>
      <trkpt lat="44.495" lon="5.94166">
        <ele>1643.9</ele>
        <time>2026-06-14T13:31:46.533Z</time>
      </trkpt>
      <trkpt lat="44.49502" lon="5.94174">
        <ele>1645.9</ele>
        <time>2026-06-14T13:32:04.427Z</time>
      </trkpt>
      <trkpt lat="44.49501" lon="5.94179">
        <ele>1645.9</ele>
        <time>2026-06-14T13:32:07.991Z</time>
      </trkpt>
      <trkpt lat="44.49502" lon="5.94183">
        <ele>1646.8</ele>
        <time>2026-06-14T13:32:15.543Z</time>
      </trkpt>
      <trkpt lat="44.49502" lon="5.94186">
        <ele>1647.1</ele>
        <time>2026-06-14T13:32:18.389Z</time>
      </trkpt>
      <trkpt lat="44.49503" lon="5.94191">
        <ele>1648.2</ele>
        <time>2026-06-14T13:32:27.609Z</time>
      </trkpt>
      <trkpt lat="44.49504" lon="5.94194">
        <ele>1649</ele>
        <time>2026-06-14T13:32:34.899Z</time>
      </trkpt>
      <trkpt lat="44.49504" lon="5.94197">
        <ele>1649</ele>
        <time>2026-06-14T13:32:36.958Z</time>
      </trkpt>
      <trkpt lat="44.49506" lon="5.94203">
        <ele>1650.1</ele>
        <time>2026-06-14T13:32:45.731Z</time>
      </trkpt>
      <trkpt lat="44.49506" lon="5.94205">
        <ele>1650.1</ele>
        <time>2026-06-14T13:32:47.103Z</time>
      </trkpt>
      <trkpt lat="44.49505" lon="5.94209">
        <ele>1649.6</ele>
        <time>2026-06-14T13:32:49.676Z</time>
      </trkpt>
      <trkpt lat="44.49506" lon="5.94215">
        <ele>1650.2</ele>
        <time>2026-06-14T13:32:55.456Z</time>
      </trkpt>
      <trkpt lat="44.49507" lon="5.94221">
        <ele>1650.8</ele>
        <time>2026-06-14T13:33:01.235Z</time>
      </trkpt>
      <trkpt lat="44.49506" lon="5.94224">
        <ele>1649.7</ele>
        <time>2026-06-14T13:33:07.916Z</time>
      </trkpt>
      <trkpt lat="44.49506" lon="5.94229">
        <ele>1648.1</ele>
        <time>2026-06-14T13:33:18.003Z</time>
      </trkpt>
      <trkpt lat="44.49506" lon="5.9423">
        <ele>1647.8</ele>
        <time>2026-06-14T13:33:19.405Z</time>
      </trkpt>
      <trkpt lat="44.49508" lon="5.94232">
        <ele>1648.4</ele>
        <time>2026-06-14T13:33:24.193Z</time>
      </trkpt>
      <trkpt lat="44.4951" lon="5.94235">
        <ele>1648.6</ele>
        <time>2026-06-14T13:33:27.409Z</time>
      </trkpt>
      <trkpt lat="44.49512" lon="5.94237">
        <ele>1649.2</ele>
        <time>2026-06-14T13:33:32.197Z</time>
      </trkpt>
      <trkpt lat="44.49515" lon="5.94244">
        <ele>1648.9</ele>
        <time>2026-06-14T13:33:37.428Z</time>
      </trkpt>
      <trkpt lat="44.49518" lon="5.94249">
        <ele>1649.3</ele>
        <time>2026-06-14T13:33:42.763Z</time>
      </trkpt>
      <trkpt lat="44.49521" lon="5.94251">
        <ele>1650.5</ele>
        <time>2026-06-14T13:33:54.333Z</time>
      </trkpt>
      <trkpt lat="44.49523" lon="5.94255">
        <ele>1650.2</ele>
        <time>2026-06-14T13:33:57.366Z</time>
      </trkpt>
      <trkpt lat="44.49527" lon="5.9426">
        <ele>1650.9</ele>
        <time>2026-06-14T13:34:04.290Z</time>
      </trkpt>
      <trkpt lat="44.49537" lon="5.94265">
        <ele>1655.8</ele>
        <time>2026-06-14T13:35:02.953Z</time>
      </trkpt>
      <trkpt lat="44.49543" lon="5.94269">
        <ele>1658.4</ele>
        <time>2026-06-14T13:35:30.129Z</time>
      </trkpt>
      <trkpt lat="44.49548" lon="5.94276">
        <ele>1659.4</ele>
        <time>2026-06-14T13:35:39.564Z</time>
      </trkpt>
      <trkpt lat="44.49548" lon="5.94278">
        <ele>1658.8</ele>
        <time>2026-06-14T13:35:42.367Z</time>
      </trkpt>
      <trkpt lat="44.49548" lon="5.94279">
        <ele>1658.9</ele>
        <time>2026-06-14T13:35:43.316Z</time>
      </trkpt>
      <trkpt lat="44.49546" lon="5.9428">
        <ele>1657.6</ele>
        <time>2026-06-14T13:35:49.321Z</time>
      </trkpt>
      <trkpt lat="44.49545" lon="5.94284">
        <ele>1657.2</ele>
        <time>2026-06-14T13:35:51.896Z</time>
      </trkpt>
      <trkpt lat="44.49545" lon="5.94292">
        <ele>1657.8</ele>
        <time>2026-06-14T13:35:58.760Z</time>
      </trkpt>
      <trkpt lat="44.49546" lon="5.94294">
        <ele>1658.6</ele>
        <time>2026-06-14T13:36:08.323Z</time>
      </trkpt>
      <trkpt lat="44.49547" lon="5.94296">
        <ele>1659.5</ele>
        <time>2026-06-14T13:36:18.178Z</time>
      </trkpt>
      <trkpt lat="44.49546" lon="5.94298">
        <ele>1658.9</ele>
        <time>2026-06-14T13:36:20.219Z</time>
      </trkpt>
      <trkpt lat="44.49544" lon="5.94301">
        <ele>1657.8</ele>
        <time>2026-06-14T13:36:24.233Z</time>
      </trkpt>
      <trkpt lat="44.49546" lon="5.94304">
        <ele>1659.4</ele>
        <time>2026-06-14T13:36:40.801Z</time>
      </trkpt>
      <trkpt lat="44.49547" lon="5.94307">
        <ele>1660.3</ele>
        <time>2026-06-14T13:36:49.951Z</time>
      </trkpt>
      <trkpt lat="44.49548" lon="5.94312">
        <ele>1661.7</ele>
        <time>2026-06-14T13:37:04.066Z</time>
      </trkpt>
      <trkpt lat="44.49548" lon="5.94318">
        <ele>1662.4</ele>
        <time>2026-06-14T13:37:10.198Z</time>
      </trkpt>
      <trkpt lat="44.49548" lon="5.94323">
        <ele>1663.1</ele>
        <time>2026-06-14T13:37:15.931Z</time>
      </trkpt>
      <trkpt lat="44.49547" lon="5.94327">
        <ele>1662.9</ele>
        <time>2026-06-14T13:37:18.606Z</time>
      </trkpt>
      <trkpt lat="44.49547" lon="5.94332">
        <ele>1663.6</ele>
        <time>2026-06-14T13:37:24.340Z</time>
      </trkpt>
      <trkpt lat="44.49548" lon="5.94339">
        <ele>1664.5</ele>
        <time>2026-06-14T13:37:31.970Z</time>
      </trkpt>
      <trkpt lat="44.49548" lon="5.94346">
        <ele>1664.7</ele>
        <time>2026-06-14T13:37:37.132Z</time>
      </trkpt>
      <trkpt lat="44.49549" lon="5.94351">
        <ele>1665.5</ele>
        <time>2026-06-14T13:37:43.554Z</time>
      </trkpt>
      <trkpt lat="44.4955" lon="5.94354">
        <ele>1666.2</ele>
        <time>2026-06-14T13:37:49.416Z</time>
      </trkpt>
      <trkpt lat="44.49551" lon="5.94358">
        <ele>1667</ele>
        <time>2026-06-14T13:37:55.867Z</time>
      </trkpt>
      <trkpt lat="44.49551" lon="5.94364">
        <ele>1667.3</ele>
        <time>2026-06-14T13:38:00.586Z</time>
      </trkpt>
      <trkpt lat="44.49552" lon="5.94375">
        <ele>1668.7</ele>
        <time>2026-06-14T13:38:12.449Z</time>
      </trkpt>
      <trkpt lat="44.49553" lon="5.94384">
        <ele>1670</ele>
        <time>2026-06-14T13:38:23.044Z</time>
      </trkpt>
      <trkpt lat="44.49555" lon="5.94392">
        <ele>1671.6</ele>
        <time>2026-06-14T13:38:35.945Z</time>
      </trkpt>
      <trkpt lat="44.49556" lon="5.94395">
        <ele>1672.3</ele>
        <time>2026-06-14T13:38:41.807Z</time>
      </trkpt>
      <trkpt lat="44.49556" lon="5.94398">
        <ele>1672.3</ele>
        <time>2026-06-14T13:38:43.866Z</time>
      </trkpt>
      <trkpt lat="44.49556" lon="5.94404">
        <ele>1672.3</ele>
        <time>2026-06-14T13:38:47.983Z</time>
      </trkpt>
      <trkpt lat="44.49557" lon="5.94411">
        <ele>1673.1</ele>
        <time>2026-06-14T13:38:55.126Z</time>
      </trkpt>
      <trkpt lat="44.49558" lon="5.94416">
        <ele>1673.8</ele>
        <time>2026-06-14T13:39:00.923Z</time>
      </trkpt>
      <trkpt lat="44.49559" lon="5.94421">
        <ele>1674.8</ele>
        <time>2026-06-14T13:39:09.024Z</time>
      </trkpt>
      <trkpt lat="44.49559" lon="5.94425">
        <ele>1674.9</ele>
        <time>2026-06-14T13:39:11.944Z</time>
      </trkpt>
      <trkpt lat="44.4956" lon="5.9443">
        <ele>1675.9</ele>
        <time>2026-06-14T13:39:20.045Z</time>
      </trkpt>
      <trkpt lat="44.49561" lon="5.94433">
        <ele>1676.8</ele>
        <time>2026-06-14T13:39:29.195Z</time>
      </trkpt>
      <trkpt lat="44.49562" lon="5.94437">
        <ele>1677.8</ele>
        <time>2026-06-14T13:39:38.142Z</time>
      </trkpt>
      <trkpt lat="44.49563" lon="5.94443">
        <ele>1678.8</ele>
        <time>2026-06-14T13:39:46.126Z</time>
      </trkpt>
      <trkpt lat="44.49563" lon="5.9445">
        <ele>1678.7</ele>
        <time>2026-06-14T13:39:50.788Z</time>
      </trkpt>
      <trkpt lat="44.49565" lon="5.94457">
        <ele>1680.2</ele>
        <time>2026-06-14T13:40:03.053Z</time>
      </trkpt>
      <trkpt lat="44.49567" lon="5.94464">
        <ele>1681.7</ele>
        <time>2026-06-14T13:40:15.317Z</time>
      </trkpt>
      <trkpt lat="44.4957" lon="5.94478">
        <ele>1684.1</ele>
        <time>2026-06-14T13:40:34.467Z</time>
      </trkpt>
      <trkpt lat="44.49572" lon="5.94491">
        <ele>1685.9</ele>
        <time>2026-06-14T13:40:49.355Z</time>
      </trkpt>
      <trkpt lat="44.49574" lon="5.94505">
        <ele>1688.3</ele>
        <time>2026-06-14T13:41:08.492Z</time>
      </trkpt>
      <trkpt lat="44.49575" lon="5.94511">
        <ele>1689.8</ele>
        <time>2026-06-14T13:41:22.245Z</time>
      </trkpt>
      <trkpt lat="44.49576" lon="5.94515">
        <ele>1691.1</ele>
        <time>2026-06-14T13:41:37.162Z</time>
      </trkpt>
      <trkpt lat="44.49576" lon="5.94519">
        <ele>1691.6</ele>
        <time>2026-06-14T13:41:41.415Z</time>
      </trkpt>
      <trkpt lat="44.49575" lon="5.94524">
        <ele>1691.5</ele>
        <time>2026-06-14T13:41:44.841Z</time>
      </trkpt>
      <trkpt lat="44.49574" lon="5.94532">
        <ele>1691</ele>
        <time>2026-06-14T13:41:49.883Z</time>
      </trkpt>
      <trkpt lat="44.49576" lon="5.9454">
        <ele>1691.9</ele>
        <time>2026-06-14T13:41:58.143Z</time>
      </trkpt>
      <trkpt lat="44.49577" lon="5.94546">
        <ele>1692.1</ele>
        <time>2026-06-14T13:42:02.736Z</time>
      </trkpt>
      <trkpt lat="44.49579" lon="5.94552">
        <ele>1692.8</ele>
        <time>2026-06-14T13:42:09.176Z</time>
      </trkpt>
      <trkpt lat="44.49582" lon="5.94556">
        <ele>1694.1</ele>
        <time>2026-06-14T13:42:20.405Z</time>
      </trkpt>
      <trkpt lat="44.49589" lon="5.94565">
        <ele>1695.7</ele>
        <time>2026-06-14T13:42:34.239Z</time>
      </trkpt>
      <trkpt lat="44.49594" lon="5.94573">
        <ele>1696.4</ele>
        <time>2026-06-14T13:42:43.064Z</time>
      </trkpt>
      <trkpt lat="44.49597" lon="5.94577">
        <ele>1697</ele>
        <time>2026-06-14T13:42:48.650Z</time>
      </trkpt>
      <trkpt lat="44.496" lon="5.94581">
        <ele>1697.6</ele>
        <time>2026-06-14T13:42:54.237Z</time>
      </trkpt>
      <trkpt lat="44.49602" lon="5.94585">
        <ele>1697.7</ele>
        <time>2026-06-14T13:42:57.760Z</time>
      </trkpt>
      <trkpt lat="44.49605" lon="5.94588">
        <ele>1698.5</ele>
        <time>2026-06-14T13:43:04.178Z</time>
      </trkpt>
      <trkpt lat="44.49608" lon="5.94591">
        <ele>1699.4</ele>
        <time>2026-06-14T13:43:11.360Z</time>
      </trkpt>
      <trkpt lat="44.49621" lon="5.94606">
        <ele>1702.3</ele>
        <time>2026-06-14T13:43:36.200Z</time>
      </trkpt>
      <trkpt lat="44.49625" lon="5.94612">
        <ele>1702.7</ele>
        <time>2026-06-14T13:43:42.632Z</time>
      </trkpt>
      <trkpt lat="44.49631" lon="5.94619">
        <ele>1703.9</ele>
        <time>2026-06-14T13:43:53.462Z</time>
      </trkpt>
      <trkpt lat="44.49636" lon="5.94626">
        <ele>1704.7</ele>
        <time>2026-06-14T13:44:02.149Z</time>
      </trkpt>
      <trkpt lat="44.49638" lon="5.94629">
        <ele>1705</ele>
        <time>2026-06-14T13:44:05.647Z</time>
      </trkpt>
      <trkpt lat="44.49643" lon="5.94636">
        <ele>1706.1</ele>
        <time>2026-06-14T13:44:15.512Z</time>
      </trkpt>
      <trkpt lat="44.49647" lon="5.94639">
        <ele>1707.6</ele>
        <time>2026-06-14T13:44:28.930Z</time>
      </trkpt>
      <trkpt lat="44.49649" lon="5.94641">
        <ele>1708.3</ele>
        <time>2026-06-14T13:44:34.696Z</time>
      </trkpt>
      <trkpt lat="44.49652" lon="5.94642">
        <ele>1709.8</ele>
        <time>2026-06-14T13:44:52.139Z</time>
      </trkpt>
      <trkpt lat="44.49654" lon="5.94646">
        <ele>1710.1</ele>
        <time>2026-06-14T13:44:56.130Z</time>
      </trkpt>
      <trkpt lat="44.49657" lon="5.9465">
        <ele>1710.9</ele>
        <time>2026-06-14T13:45:02.711Z</time>
      </trkpt>
      <trkpt lat="44.49659" lon="5.94652">
        <ele>1711.6</ele>
        <time>2026-06-14T13:45:08.478Z</time>
      </trkpt>
      <trkpt lat="44.49661" lon="5.94653">
        <ele>1712.6</ele>
        <time>2026-06-14T13:45:20.489Z</time>
      </trkpt>
      <trkpt lat="44.49663" lon="5.9466">
        <ele>1712.2</ele>
        <time>2026-06-14T13:45:25.214Z</time>
      </trkpt>
      <trkpt lat="44.49665" lon="5.94664">
        <ele>1712.6</ele>
        <time>2026-06-14T13:45:29.516Z</time>
      </trkpt>
      <trkpt lat="44.49667" lon="5.94669">
        <ele>1712.8</ele>
        <time>2026-06-14T13:45:33.820Z</time>
      </trkpt>
      <trkpt lat="44.4967" lon="5.94674">
        <ele>1713.9</ele>
        <time>2026-06-14T13:45:42.591Z</time>
        <extensions>
          <visugpx:TrkExtension xmlns:visugpx="https://www.visugpx.com/editgpx/">
            <visugpx:node>4</visugpx:node>
            </visugpx:TrkExtension>
        </extensions>
      </trkpt>
      <trkpt lat="44.49671" lon="5.94676">
        <ele>1714.2</ele>
        <time>2026-06-14T13:45:45.161Z</time>
      </trkpt>
      <trkpt lat="44.49674" lon="5.94682">
        <ele>1715</ele>
        <time>2026-06-14T13:45:52.397Z</time>
      </trkpt>
      <trkpt lat="44.49676" lon="5.94687">
        <ele>1715.2</ele>
        <time>2026-06-14T13:45:56.701Z</time>
      </trkpt>
      <trkpt lat="44.4968" lon="5.94692">
        <ele>1716.7</ele>
        <time>2026-06-14T13:46:08.980Z</time>
      </trkpt>
      <trkpt lat="44.49684" lon="5.94696">
        <ele>1718.4</ele>
        <time>2026-06-14T13:46:24.747Z</time>
      </trkpt>
      <trkpt lat="44.49687" lon="5.94699">
        <ele>1720</ele>
        <time>2026-06-14T13:46:43.255Z</time>
      </trkpt>
      <trkpt lat="44.49689" lon="5.94702">
        <ele>1720.9</ele>
        <time>2026-06-14T13:46:50.932Z</time>
      </trkpt>
      <trkpt lat="44.49691" lon="5.94709">
        <ele>1721.3</ele>
        <time>2026-06-14T13:46:56.922Z</time>
      </trkpt>
      <trkpt lat="44.49692" lon="5.94717">
        <ele>1721.1</ele>
        <time>2026-06-14T13:47:02.228Z</time>
      </trkpt>
      <trkpt lat="44.49693" lon="5.94725">
        <ele>1720.9</ele>
        <time>2026-06-14T13:47:07.535Z</time>
      </trkpt>
      <trkpt lat="44.49693" lon="5.94731">
        <ele>1720.5</ele>
        <time>2026-06-14T13:47:11.241Z</time>
      </trkpt>
      <trkpt lat="44.49696" lon="5.94736">
        <ele>1722.1</ele>
        <time>2026-06-14T13:47:25.983Z</time>
      </trkpt>
      <trkpt lat="44.49698" lon="5.94741">
        <ele>1723</ele>
        <time>2026-06-14T13:47:33.191Z</time>
      </trkpt>
      <trkpt lat="44.49701" lon="5.94744">
        <ele>1724.8</ele>
        <time>2026-06-14T13:47:54.035Z</time>
      </trkpt>
      <trkpt lat="44.49703" lon="5.94748">
        <ele>1725.7</ele>
        <time>2026-06-14T13:48:01.260Z</time>
      </trkpt>
      <trkpt lat="44.49705" lon="5.94751">
        <ele>1726.6</ele>
        <time>2026-06-14T13:48:08.937Z</time>
      </trkpt>
      <trkpt lat="44.49706" lon="5.94756">
        <ele>1726.1</ele>
        <time>2026-06-14T13:48:12.089Z</time>
      </trkpt>
      <trkpt lat="44.49709" lon="5.9476">
        <ele>1727.1</ele>
        <time>2026-06-14T13:48:20.065Z</time>
      </trkpt>
      <trkpt lat="44.49712" lon="5.94763">
        <ele>1728.3</ele>
        <time>2026-06-14T13:48:30.682Z</time>
      </trkpt>
      <trkpt lat="44.49714" lon="5.94765">
        <ele>1729.1</ele>
        <time>2026-06-14T13:48:37.759Z</time>
      </trkpt>
      <trkpt lat="44.49715" lon="5.94768">
        <ele>1729</ele>
        <time>2026-06-14T13:48:39.903Z</time>
      </trkpt>
      <trkpt lat="44.4972" lon="5.94775">
        <ele>1730.3</ele>
        <time>2026-06-14T13:48:50.764Z</time>
      </trkpt>
      <trkpt lat="44.49727" lon="5.94786">
        <ele>1731.9</ele>
        <time>2026-06-14T13:49:05.280Z</time>
      </trkpt>
      <trkpt lat="44.49735" lon="5.94799">
        <ele>1733.4</ele>
        <time>2026-06-14T13:49:20.734Z</time>
      </trkpt>
      <trkpt lat="44.49738" lon="5.94801">
        <ele>1734.6</ele>
        <time>2026-06-14T13:49:32.304Z</time>
      </trkpt>
      <trkpt lat="44.49741" lon="5.94802">
        <ele>1736</ele>
        <time>2026-06-14T13:49:48.967Z</time>
      </trkpt>
      <trkpt lat="44.49745" lon="5.94803">
        <ele>1737.9</ele>
        <time>2026-06-14T13:50:11.950Z</time>
      </trkpt>
      <trkpt lat="44.49747" lon="5.94805">
        <ele>1738.5</ele>
        <time>2026-06-14T13:50:16.738Z</time>
      </trkpt>
      <trkpt lat="44.49754" lon="5.94816">
        <ele>1741.1</ele>
        <time>2026-06-14T13:50:37.503Z</time>
      </trkpt>
      <trkpt lat="44.49757" lon="5.94824">
        <ele>1742</ele>
        <time>2026-06-14T13:50:46.060Z</time>
      </trkpt>
      <trkpt lat="44.49761" lon="5.94833">
        <ele>1743.6</ele>
        <time>2026-06-14T13:50:58.948Z</time>
      </trkpt>
      <trkpt lat="44.49764" lon="5.94841">
        <ele>1745.3</ele>
        <time>2026-06-14T13:51:12.646Z</time>
      </trkpt>
      <trkpt lat="44.49766" lon="5.94853">
        <ele>1746.2</ele>
        <time>2026-06-14T13:51:23.142Z</time>
      </trkpt>
      <trkpt lat="44.49768" lon="5.94859">
        <ele>1747.4</ele>
        <time>2026-06-14T13:51:32.752Z</time>
      </trkpt>
      <trkpt lat="44.49768" lon="5.94866">
        <ele>1747.1</ele>
        <time>2026-06-14T13:51:37.197Z</time>
      </trkpt>
      <trkpt lat="44.4977" lon="5.94873">
        <ele>1748.3</ele>
        <time>2026-06-14T13:51:46.793Z</time>
      </trkpt>
      <trkpt lat="44.49771" lon="5.94877">
        <ele>1748.8</ele>
        <time>2026-06-14T13:51:51.151Z</time>
      </trkpt>
      <trkpt lat="44.49771" lon="5.94879">
        <ele>1748.7</ele>
        <time>2026-06-14T13:51:52.409Z</time>
      </trkpt>
      <trkpt lat="44.49771" lon="5.94883">
        <ele>1748.6</ele>
        <time>2026-06-14T13:51:55.020Z</time>
      </trkpt>
      <trkpt lat="44.49772" lon="5.94887">
        <ele>1749.1</ele>
        <time>2026-06-14T13:51:59.378Z</time>
      </trkpt>
      <trkpt lat="44.49775" lon="5.94892">
        <ele>1750.7</ele>
        <time>2026-06-14T13:52:14.120Z</time>
      </trkpt>
      <trkpt lat="44.49777" lon="5.94898">
        <ele>1751.5</ele>
        <time>2026-06-14T13:52:21.021Z</time>
      </trkpt>
      <trkpt lat="44.49779" lon="5.94904">
        <ele>1752.5</ele>
        <time>2026-06-14T13:52:29.075Z</time>
      </trkpt>
      <trkpt lat="44.49782" lon="5.94915">
        <ele>1753.6</ele>
        <time>2026-06-14T13:52:39.939Z</time>
      </trkpt>
      <trkpt lat="44.49785" lon="5.94925">
        <ele>1753.7</ele>
        <time>2026-06-14T13:52:47.545Z</time>
      </trkpt>
      <trkpt lat="44.49788" lon="5.94936">
        <ele>1753.2</ele>
        <time>2026-06-14T13:52:55.026Z</time>
      </trkpt>
      <trkpt lat="44.4979" lon="5.94944">
        <ele>1752.5</ele>
        <time>2026-06-14T13:53:00.201Z</time>
      </trkpt>
      <trkpt lat="44.49792" lon="5.94948">
        <ele>1753.2</ele>
        <time>2026-06-14T13:53:05.901Z</time>
      </trkpt>
      <trkpt lat="44.49796" lon="5.94953">
        <ele>1755</ele>
        <time>2026-06-14T13:53:22.195Z</time>
      </trkpt>
      <trkpt lat="44.49798" lon="5.94958">
        <ele>1755.5</ele>
        <time>2026-06-14T13:53:27.352Z</time>
      </trkpt>
      <trkpt lat="44.49801" lon="5.94966">
        <ele>1756.1</ele>
        <time>2026-06-14T13:53:34.866Z</time>
      </trkpt>
      <trkpt lat="44.49806" lon="5.94982">
        <ele>1756.6</ele>
        <time>2026-06-14T13:53:47.748Z</time>
      </trkpt>
      <trkpt lat="44.4981" lon="5.94995">
        <ele>1757.2</ele>
        <time>2026-06-14T13:53:58.618Z</time>
      </trkpt>
      <trkpt lat="44.49813" lon="5.95003">
        <ele>1757.7</ele>
        <time>2026-06-14T13:54:05.851Z</time>
      </trkpt>
      <trkpt lat="44.49817" lon="5.95013">
        <ele>1758</ele>
        <time>2026-06-14T13:54:14.249Z</time>
      </trkpt>
      <trkpt lat="44.4982" lon="5.95022">
        <ele>1757.8</ele>
        <time>2026-06-14T13:54:20.792Z</time>
      </trkpt>
      <trkpt lat="44.49824" lon="5.95035">
        <ele>1757.6</ele>
        <time>2026-06-14T13:54:30.224Z</time>
      </trkpt>
      <trkpt lat="44.49825" lon="5.95041">
        <ele>1757</ele>
        <time>2026-06-14T13:54:33.963Z</time>
      </trkpt>
      <trkpt lat="44.49826" lon="5.95045">
        <ele>1756.9</ele>
        <time>2026-06-14T13:54:36.738Z</time>
      </trkpt>
      <trkpt lat="44.49829" lon="5.95052">
        <ele>1757.2</ele>
        <time>2026-06-14T13:54:42.902Z</time>
      </trkpt>
      <trkpt lat="44.49834" lon="5.95063">
        <ele>1758.5</ele>
        <time>2026-06-14T13:54:55.256Z</time>
      </trkpt>
      <trkpt lat="44.4984" lon="5.95076">
        <ele>1760.9</ele>
        <time>2026-06-14T13:55:14.508Z</time>
      </trkpt>
      <trkpt lat="44.49843" lon="5.95083">
        <ele>1761.7</ele>
        <time>2026-06-14T13:55:22.186Z</time>
      </trkpt>
      <trkpt lat="44.49845" lon="5.9509">
        <ele>1762.3</ele>
        <time>2026-06-14T13:55:28.769Z</time>
      </trkpt>
      <trkpt lat="44.49846" lon="5.95097">
        <ele>1762.2</ele>
        <time>2026-06-14T13:55:33.526Z</time>
      </trkpt>
      <trkpt lat="44.49849" lon="5.95109">
        <ele>1762.8</ele>
        <time>2026-06-14T13:55:43.437Z</time>
      </trkpt>
      <trkpt lat="44.4985" lon="5.95118">
        <ele>1762.7</ele>
        <time>2026-06-14T13:55:49.543Z</time>
      </trkpt>
      <trkpt lat="44.49852" lon="5.95124">
        <ele>1763.5</ele>
        <time>2026-06-14T13:55:56.444Z</time>
      </trkpt>
      <trkpt lat="44.49854" lon="5.95131">
        <ele>1764.2</ele>
        <time>2026-06-14T13:56:03.384Z</time>
      </trkpt>
      <trkpt lat="44.49856" lon="5.95138">
        <ele>1764.9</ele>
        <time>2026-06-14T13:56:10.323Z</time>
      </trkpt>
      <trkpt lat="44.49857" lon="5.95148">
        <ele>1764.6</ele>
        <time>2026-06-14T13:56:16.864Z</time>
      </trkpt>
      <trkpt lat="44.4986" lon="5.95158">
        <ele>1765.3</ele>
        <time>2026-06-14T13:56:25.824Z</time>
      </trkpt>
      <trkpt lat="44.49862" lon="5.95166">
        <ele>1765.7</ele>
        <time>2026-06-14T13:56:32.431Z</time>
      </trkpt>
      <trkpt lat="44.49866" lon="5.95175">
        <ele>1767.6</ele>
        <time>2026-06-14T13:56:47.627Z</time>
      </trkpt>
      <trkpt lat="44.49869" lon="5.95182">
        <ele>1769</ele>
        <time>2026-06-14T13:56:58.792Z</time>
      </trkpt>
      <trkpt lat="44.49872" lon="5.9519">
        <ele>1770.1</ele>
        <time>2026-06-14T13:57:08.251Z</time>
      </trkpt>
      <trkpt lat="44.49876" lon="5.952">
        <ele>1771</ele>
        <time>2026-06-14T13:57:18.218Z</time>
      </trkpt>
      <trkpt lat="44.49882" lon="5.95212">
        <ele>1772.1</ele>
        <time>2026-06-14T13:57:30.795Z</time>
      </trkpt>
      <trkpt lat="44.49885" lon="5.95219">
        <ele>1772.4</ele>
        <time>2026-06-14T13:57:36.959Z</time>
      </trkpt>
      <trkpt lat="44.49888" lon="5.95229">
        <ele>1772.3</ele>
        <time>2026-06-14T13:57:44.258Z</time>
      </trkpt>
      <trkpt lat="44.49895" lon="5.95244">
        <ele>1773.9</ele>
        <time>2026-06-14T13:58:00.515Z</time>
      </trkpt>
      <trkpt lat="44.49895" lon="5.95247">
        <ele>1773.3</ele>
        <time>2026-06-14T13:58:02.574Z</time>
      </trkpt>
      <trkpt lat="44.49895" lon="5.9525">
        <ele>1772.7</ele>
        <time>2026-06-14T13:58:04.632Z</time>
      </trkpt>
      <trkpt lat="44.49898" lon="5.95255">
        <ele>1774</ele>
        <time>2026-06-14T13:58:15.262Z</time>
      </trkpt>
      <trkpt lat="44.499" lon="5.95258">
        <ele>1774.9</ele>
        <time>2026-06-14T13:58:22.940Z</time>
      </trkpt>
      <trkpt lat="44.49902" lon="5.95264">
        <ele>1775.5</ele>
        <time>2026-06-14T13:58:28.979Z</time>
      </trkpt>
      <trkpt lat="44.49905" lon="5.95273">
        <ele>1776.4</ele>
        <time>2026-06-14T13:58:38.038Z</time>
      </trkpt>
      <trkpt lat="44.49906" lon="5.95279">
        <ele>1776.4</ele>
        <time>2026-06-14T13:58:42.266Z</time>
      </trkpt>
      <trkpt lat="44.49907" lon="5.9528">
        <ele>1777</ele>
        <time>2026-06-14T13:58:49.214Z</time>
      </trkpt>
      <trkpt lat="44.49908" lon="5.95286">
        <ele>1777.3</ele>
        <time>2026-06-14T13:58:54.040Z</time>
      </trkpt>
      <trkpt lat="44.49909" lon="5.95289">
        <ele>1777.8</ele>
        <time>2026-06-14T13:58:58.067Z</time>
      </trkpt>
      <trkpt lat="44.4991" lon="5.95296">
        <ele>1778.1</ele>
        <time>2026-06-14T13:59:03.542Z</time>
      </trkpt>
      <trkpt lat="44.4991" lon="5.95302">
        <ele>1777.8</ele>
        <time>2026-06-14T13:59:07.315Z</time>
      </trkpt>
      <trkpt lat="44.49911" lon="5.95307">
        <ele>1778.2</ele>
        <time>2026-06-14T13:59:11.805Z</time>
      </trkpt>
      <trkpt lat="44.49912" lon="5.95311">
        <ele>1778.6</ele>
        <time>2026-06-14T13:59:15.730Z</time>
      </trkpt>
      <trkpt lat="44.49913" lon="5.95314">
        <ele>1779</ele>
        <time>2026-06-14T13:59:19.181Z</time>
      </trkpt>
      <trkpt lat="44.49913" lon="5.95326">
        <ele>1778.2</ele>
        <time>2026-06-14T13:59:26.593Z</time>
      </trkpt>
      <trkpt lat="44.49914" lon="5.95333">
        <ele>1778.3</ele>
        <time>2026-06-14T13:59:31.658Z</time>
      </trkpt>
      <trkpt lat="44.49916" lon="5.95335">
        <ele>1779.4</ele>
        <time>2026-06-14T13:59:44.658Z</time>
      </trkpt>
      <trkpt lat="44.49917" lon="5.95337">
        <ele>1779.8</ele>
        <time>2026-06-14T13:59:47.850Z</time>
      </trkpt>
      <trkpt lat="44.49922" lon="5.95355">
        <ele>1781.1</ele>
        <time>2026-06-14T14:00:03.962Z</time>
      </trkpt>
      <trkpt lat="44.49925" lon="5.95365">
        <ele>1782</ele>
        <time>2026-06-14T14:00:13.557Z</time>
      </trkpt>
      <trkpt lat="44.49926" lon="5.95369">
        <ele>1782.3</ele>
        <time>2026-06-14T14:00:17.138Z</time>
      </trkpt>
      <trkpt lat="44.49927" lon="5.95372">
        <ele>1782.7</ele>
        <time>2026-06-14T14:00:20.588Z</time>
      </trkpt>
      <trkpt lat="44.49933" lon="5.95389">
        <ele>1785.2</ele>
        <time>2026-06-14T14:00:41.444Z</time>
      </trkpt>
      <trkpt lat="44.49935" lon="5.95394">
        <ele>1785.9</ele>
        <time>2026-06-14T14:00:47.455Z</time>
      </trkpt>
      <trkpt lat="44.4994" lon="5.95406">
        <ele>1787.6</ele>
        <time>2026-06-14T14:01:02.042Z</time>
      </trkpt>
      <trkpt lat="44.49941" lon="5.95412">
        <ele>1787.4</ele>
        <time>2026-06-14T14:01:06.016Z</time>
      </trkpt>
      <trkpt lat="44.49941" lon="5.95415">
        <ele>1787</ele>
        <time>2026-06-14T14:01:07.849Z</time>
      </trkpt>
      <trkpt lat="44.49945" lon="5.95425">
        <ele>1788.5</ele>
        <time>2026-06-14T14:01:20.395Z</time>
      </trkpt>
      <trkpt lat="44.49947" lon="5.95429">
        <ele>1789.4</ele>
        <time>2026-06-14T14:01:27.620Z</time>
      </trkpt>
      <trkpt lat="44.49949" lon="5.95437">
        <ele>1789.9</ele>
        <time>2026-06-14T14:01:34.488Z</time>
      </trkpt>
      <trkpt lat="44.49951" lon="5.95442">
        <ele>1790.7</ele>
        <time>2026-06-14T14:01:41.046Z</time>
      </trkpt>
      <trkpt lat="44.49953" lon="5.95447">
        <ele>1791.6</ele>
        <time>2026-06-14T14:01:48.254Z</time>
      </trkpt>
      <trkpt lat="44.49955" lon="5.95453">
        <ele>1792.3</ele>
        <time>2026-06-14T14:01:54.693Z</time>
      </trkpt>
      <trkpt lat="44.49956" lon="5.95455">
        <ele>1792.8</ele>
        <time>2026-06-14T14:01:58.823Z</time>
      </trkpt>
      <trkpt lat="44.49957" lon="5.95463">
        <ele>1792.6</ele>
        <time>2026-06-14T14:02:04.130Z</time>
      </trkpt>
      <trkpt lat="44.49963" lon="5.9548">
        <ele>1795.1</ele>
        <time>2026-06-14T14:02:24.986Z</time>
      </trkpt>
      <trkpt lat="44.49969" lon="5.95499">
        <ele>1797.9</ele>
        <time>2026-06-14T14:02:48.177Z</time>
      </trkpt>
      <trkpt lat="44.49969" lon="5.95503">
        <ele>1797.2</ele>
        <time>2026-06-14T14:02:50.757Z</time>
      </trkpt>
      <trkpt lat="44.4997" lon="5.9551">
        <ele>1796.4</ele>
        <time>2026-06-14T14:02:55.086Z</time>
      </trkpt>
      <trkpt lat="44.49971" lon="5.95515">
        <ele>1796</ele>
        <time>2026-06-14T14:02:58.267Z</time>
      </trkpt>
      <trkpt lat="44.49976" lon="5.95524">
        <ele>1797.9</ele>
        <time>2026-06-14T14:03:13.419Z</time>
      </trkpt>
      <trkpt lat="44.49978" lon="5.95527">
        <ele>1798.9</ele>
        <time>2026-06-14T14:03:22.591Z</time>
      </trkpt>
      <trkpt lat="44.49985" lon="5.95539">
        <ele>1800.9</ele>
        <time>2026-06-14T14:03:39.402Z</time>
      </trkpt>
      <trkpt lat="44.49988" lon="5.95545">
        <ele>1801.5</ele>
        <time>2026-06-14T14:03:45.856Z</time>
      </trkpt>
      <trkpt lat="44.49994" lon="5.95562">
        <ele>1801.3</ele>
        <time>2026-06-14T14:03:58.582Z</time>
      </trkpt>
      <trkpt lat="44.49996" lon="5.95569">
        <ele>1801</ele>
        <time>2026-06-14T14:04:03.390Z</time>
      </trkpt>
      <trkpt lat="44.49998" lon="5.95575">
        <ele>1800.9</ele>
        <time>2026-06-14T14:04:07.794Z</time>
      </trkpt>
      <trkpt lat="44.49999" lon="5.95575">
        <ele>1801.6</ele>
        <time>2026-06-14T14:04:13.450Z</time>
      </trkpt>
      <trkpt lat="44.49999" lon="5.95575">
        <ele>1801.6</ele>
        <time>2026-06-14T14:04:13.450Z</time>
      </trkpt>
      <trkpt lat="44.50001" lon="5.95577">
        <ele>1802.8</ele>
        <time>2026-06-14T14:04:27.346Z</time>
      </trkpt>
      <trkpt lat="44.50002" lon="5.9558">
        <ele>1803</ele>
        <time>2026-06-14T14:04:30.042Z</time>
      </trkpt>
      <trkpt lat="44.50003" lon="5.95581">
        <ele>1803.6</ele>
        <time>2026-06-14T14:04:36.990Z</time>
      </trkpt>
      <trkpt lat="44.50004" lon="5.95582">
        <ele>1804.3</ele>
        <time>2026-06-14T14:04:43.938Z</time>
      </trkpt>
      <trkpt lat="44.50008" lon="5.95592">
        <ele>1805.7</ele>
        <time>2026-06-14T14:04:55.959Z</time>
      </trkpt>
      <trkpt lat="44.50008" lon="5.95593">
        <ele>1805.4</ele>
        <time>2026-06-14T14:04:57.362Z</time>
      </trkpt>
      <trkpt lat="44.5001" lon="5.95596">
        <ele>1806.5</ele>
        <time>2026-06-14T14:05:08.381Z</time>
      </trkpt>
      <trkpt lat="44.50011" lon="5.95599">
        <ele>1806.5</ele>
        <time>2026-06-14T14:05:10.653Z</time>
      </trkpt>
      <trkpt lat="44.50014" lon="5.95608">
        <ele>1806.5</ele>
        <time>2026-06-14T14:05:17.470Z</time>
      </trkpt>
      <trkpt lat="44.50015" lon="5.9561">
        <ele>1806.7</ele>
        <time>2026-06-14T14:05:19.621Z</time>
      </trkpt>
      <trkpt lat="44.50016" lon="5.95612">
        <ele>1806.9</ele>
        <time>2026-06-14T14:05:21.773Z</time>
      </trkpt>
      <trkpt lat="44.50016" lon="5.95614">
        <ele>1806.3</ele>
        <time>2026-06-14T14:05:24.577Z</time>
      </trkpt>
      <trkpt lat="44.50016" lon="5.95619">
        <ele>1805.1</ele>
        <time>2026-06-14T14:05:28.623Z</time>
      </trkpt>
      <trkpt lat="44.50018" lon="5.95623">
        <ele>1805.3</ele>
        <time>2026-06-14T14:05:32.357Z</time>
      </trkpt>
      <trkpt lat="44.50019" lon="5.95627">
        <ele>1804.7</ele>
        <time>2026-06-14T14:05:34.965Z</time>
      </trkpt>
      <trkpt lat="44.50021" lon="5.9563">
        <ele>1804.9</ele>
        <time>2026-06-14T14:05:38.181Z</time>
      </trkpt>
      <trkpt lat="44.50023" lon="5.95632">
        <ele>1805.3</ele>
        <time>2026-06-14T14:05:41.692Z</time>
      </trkpt>
      <trkpt lat="44.50026" lon="5.95634">
        <ele>1806.1</ele>
        <time>2026-06-14T14:05:48.072Z</time>
      </trkpt>
      <trkpt lat="44.50031" lon="5.95636">
        <ele>1807.1</ele>
        <time>2026-06-14T14:05:56.310Z</time>
      </trkpt>
      <trkpt lat="44.50038" lon="5.95639">
        <ele>1807.9</ele>
        <time>2026-06-14T14:06:05.213Z</time>
      </trkpt>
      <trkpt lat="44.50046" lon="5.95642">
        <ele>1808.8</ele>
        <time>2026-06-14T14:06:15.270Z</time>
      </trkpt>
      <trkpt lat="44.50048" lon="5.95643">
        <ele>1808.9</ele>
        <time>2026-06-14T14:06:17.496Z</time>
      </trkpt>
      <trkpt lat="44.50058" lon="5.95647">
        <ele>1810.2</ele>
        <time>2026-06-14T14:06:30.714Z</time>
      </trkpt>
      <trkpt lat="44.50064" lon="5.95651">
        <ele>1810.7</ele>
        <time>2026-06-14T14:06:38.128Z</time>
      </trkpt>
      <trkpt lat="44.50068" lon="5.95653">
        <ele>1811.3</ele>
        <time>2026-06-14T14:06:43.794Z</time>
      </trkpt>
      <trkpt lat="44.50073" lon="5.95658">
        <ele>1810.7</ele>
        <time>2026-06-14T14:06:49.099Z</time>
      </trkpt>
      <trkpt lat="44.50082" lon="5.95663">
        <ele>1811.5</ele>
        <time>2026-06-14T14:07:00.094Z</time>
      </trkpt>
      <trkpt lat="44.50082" lon="5.95663">
        <ele>1811.5</ele>
        <time>2026-06-14T14:07:00.094Z</time>
      </trkpt>
      <trkpt lat="44.50086" lon="5.95666">
        <ele>1812.2</ele>
        <time>2026-06-14T14:07:06.399Z</time>
      </trkpt>
      <trkpt lat="44.5009" lon="5.95669">
        <ele>1813.3</ele>
        <time>2026-06-14T14:07:15.174Z</time>
      </trkpt>
      <trkpt lat="44.50094" lon="5.9567">
        <ele>1815.4</ele>
        <time>2026-06-14T14:07:38.157Z</time>
      </trkpt>
      <trkpt lat="44.501" lon="5.95674">
        <ele>1816.9</ele>
        <time>2026-06-14T14:07:50.140Z</time>
      </trkpt>
      <trkpt lat="44.50108" lon="5.95683">
        <ele>1816</ele>
        <time>2026-06-14T14:07:59.058Z</time>
      </trkpt>
      <trkpt lat="44.50112" lon="5.95685">
        <ele>1817.3</ele>
        <time>2026-06-14T14:08:10.124Z</time>
      </trkpt>
      <trkpt lat="44.50117" lon="5.95688">
        <ele>1820.1</ele>
        <time>2026-06-14T14:08:40.887Z</time>
      </trkpt>
      <trkpt lat="44.50132" lon="5.95702">
        <ele>1823.2</ele>
        <time>2026-06-14T14:09:07.453Z</time>
      </trkpt>
      <trkpt lat="44.50136" lon="5.95705">
        <ele>1824.1</ele>
        <time>2026-06-14T14:09:14.804Z</time>
      </trkpt>
      <trkpt lat="44.5014" lon="5.95709">
        <ele>1824.4</ele>
        <time>2026-06-14T14:09:20.112Z</time>
      </trkpt>
      <trkpt lat="44.50148" lon="5.95715">
        <ele>1829.7</ele>
        <time>2026-06-14T14:10:11.431Z</time>
      </trkpt>
      <trkpt lat="44.50169" lon="5.95734">
        <ele>1839.3</ele>
        <time>2026-06-14T14:11:49.843Z</time>
      </trkpt>
      <trkpt lat="44.50172" lon="5.95737">
        <ele>1841.4</ele>
        <time>2026-06-14T14:12:10.686Z</time>
      </trkpt>
      <trkpt lat="44.50178" lon="5.95739">
        <ele>1849.3</ele>
        <time>2026-06-14T14:12:45.571Z</time>
      </trkpt>
      <trkpt lat="44.50182" lon="5.95742">
        <ele>1852.7</ele>
        <time>2026-06-14T14:13:11.231Z</time>
      </trkpt>
      <trkpt lat="44.50186" lon="5.95746">
        <ele>1855</ele>
        <time>2026-06-14T14:13:39.022Z</time>
      </trkpt>
      <trkpt lat="44.50194" lon="5.95754">
        <ele>1859.3</ele>
        <time>2026-06-14T14:14:29.065Z</time>
      </trkpt>
      <trkpt lat="44.50197" lon="5.95758">
        <ele>1860.4</ele>
        <time>2026-06-14T14:14:37.943Z</time>
      </trkpt>
      <trkpt lat="44.50198" lon="5.95759">
        <ele>1861.2</ele>
        <time>2026-06-14T14:14:44.891Z</time>
      </trkpt>
      <trkpt lat="44.50203" lon="5.95766">
        <ele>1862.6</ele>
        <time>2026-06-14T14:14:56.329Z</time>
      </trkpt>
      <trkpt lat="44.50208" lon="5.95774">
        <ele>1862.5</ele>
        <time>2026-06-14T14:15:03.482Z</time>
        <extensions>
          <visugpx:TrkExtension xmlns:visugpx="https://www.visugpx.com/editgpx/">
            <visugpx:node>5</visugpx:node>
            </visugpx:TrkExtension>
        </extensions>
      </trkpt>
      <trkpt lat="44.50208" lon="5.95774">
        <ele>1862.5</ele>
        <time>2026-06-14T14:15:03.482Z</time>
      </trkpt>
      <trkpt lat="44.50211" lon="5.9578">
        <ele>1861.3</ele>
        <time>2026-06-14T14:15:08.115Z</time>
      </trkpt>
      <trkpt lat="44.50213" lon="5.95786">
        <ele>1858.5</ele>
        <time>2026-06-14T14:15:21.475Z</time>
      </trkpt>
      <trkpt lat="44.50216" lon="5.95792">
        <ele>1857</ele>
        <time>2026-06-14T14:15:26.577Z</time>
      </trkpt>
      <trkpt lat="44.5023" lon="5.95815">
        <ele>1853.5</ele>
        <time>2026-06-14T14:15:44.921Z</time>
      </trkpt>
      <trkpt lat="44.50233" lon="5.95821">
        <ele>1851.9</ele>
        <time>2026-06-14T14:15:50.280Z</time>
      </trkpt>
      <trkpt lat="44.50238" lon="5.95826">
        <ele>1852.9</ele>
        <time>2026-06-14T14:15:59.057Z</time>
      </trkpt>
      <trkpt lat="44.5024" lon="5.95831">
        <ele>1850.2</ele>
        <time>2026-06-14T14:16:10.621Z</time>
      </trkpt>
      <trkpt lat="44.50242" lon="5.95833">
        <ele>1850.3</ele>
        <time>2026-06-14T14:16:13.164Z</time>
      </trkpt>
      <trkpt lat="44.50245" lon="5.95839">
        <ele>1849.5</ele>
        <time>2026-06-14T14:16:17.606Z</time>
      </trkpt>
      <trkpt lat="44.50248" lon="5.95843">
        <ele>1849.8</ele>
        <time>2026-06-14T14:16:22.195Z</time>
      </trkpt>
      <trkpt lat="44.50251" lon="5.9585">
        <ele>1848.3</ele>
        <time>2026-06-14T14:16:27.561Z</time>
      </trkpt>
      <trkpt lat="44.50253" lon="5.95854">
        <ele>1847.7</ele>
        <time>2026-06-14T14:16:30.531Z</time>
      </trkpt>
      <trkpt lat="44.50257" lon="5.9586">
        <ele>1847.4</ele>
        <time>2026-06-14T14:16:35.793Z</time>
      </trkpt>
      <trkpt lat="44.50264" lon="5.95872">
        <ele>1848.2</ele>
        <time>2026-06-14T14:16:48.047Z</time>
      </trkpt>
      <trkpt lat="44.50267" lon="5.9588">
        <ele>1846.9</ele>
        <time>2026-06-14T14:16:53.619Z</time>
      </trkpt>
      <trkpt lat="44.50269" lon="5.95882">
        <ele>1847.4</ele>
        <time>2026-06-14T14:16:57.678Z</time>
      </trkpt>
      <trkpt lat="44.50272" lon="5.95889">
        <ele>1846</ele>
        <time>2026-06-14T14:17:02.909Z</time>
      </trkpt>
      <trkpt lat="44.50273" lon="5.95895">
        <ele>1844.9</ele>
        <time>2026-06-14T14:17:06.912Z</time>
      </trkpt>
      <trkpt lat="44.50275" lon="5.95898">
        <ele>1845.3</ele>
        <time>2026-06-14T14:17:10.764Z</time>
      </trkpt>
      <trkpt lat="44.50282" lon="5.95903">
        <ele>1848.8</ele>
        <time>2026-06-14T14:17:52.003Z</time>
      </trkpt>
      <trkpt lat="44.50283" lon="5.95904">
        <ele>1849.2</ele>
        <time>2026-06-14T14:17:55.542Z</time>
      </trkpt>
      <trkpt lat="44.50286" lon="5.95908">
        <ele>1849.9</ele>
        <time>2026-06-14T14:18:01.584Z</time>
      </trkpt>
      <trkpt lat="44.50294" lon="5.95914">
        <ele>1852.4</ele>
        <time>2026-06-14T14:18:21.950Z</time>
      </trkpt>
      <trkpt lat="44.50296" lon="5.95917">
        <ele>1852</ele>
        <time>2026-06-14T14:18:24.442Z</time>
      </trkpt>
      <trkpt lat="44.503" lon="5.9592">
        <ele>1853.1</ele>
        <time>2026-06-14T14:18:33.217Z</time>
      </trkpt>
      <trkpt lat="44.50303" lon="5.95923">
        <ele>1853.6</ele>
        <time>2026-06-14T14:18:38.050Z</time>
      </trkpt>
      <trkpt lat="44.50309" lon="5.95925">
        <ele>1856.7</ele>
        <time>2026-06-14T14:19:12.935Z</time>
      </trkpt>
      <trkpt lat="44.50315" lon="5.9593">
        <ele>1858.3</ele>
        <time>2026-06-14T14:19:25.704Z</time>
      </trkpt>
      <trkpt lat="44.50316" lon="5.95933">
        <ele>1857.2</ele>
        <time>2026-06-14T14:19:32.384Z</time>
      </trkpt>
      <trkpt lat="44.50323" lon="5.95936">
        <ele>1859.7</ele>
        <time>2026-06-14T14:19:55.320Z</time>
      </trkpt>
      <trkpt lat="44.50328" lon="5.95942">
        <ele>1858.2</ele>
        <time>2026-06-14T14:20:01.143Z</time>
      </trkpt>
      <trkpt lat="44.50333" lon="5.95945">
        <ele>1858.6</ele>
        <time>2026-06-14T14:20:07.187Z</time>
      </trkpt>
      <trkpt lat="44.50335" lon="5.95948">
        <ele>1858.2</ele>
        <time>2026-06-14T14:20:09.680Z</time>
      </trkpt>
      <trkpt lat="44.5034" lon="5.9595">
        <ele>1860.2</ele>
        <time>2026-06-14T14:20:30.212Z</time>
      </trkpt>
      <trkpt lat="44.50342" lon="5.95952">
        <ele>1860.3</ele>
        <time>2026-06-14T14:20:32.755Z</time>
      </trkpt>
      <trkpt lat="44.50344" lon="5.95953">
        <ele>1860.9</ele>
        <time>2026-06-14T14:20:37.682Z</time>
      </trkpt>
      <trkpt lat="44.50347" lon="5.95953">
        <ele>1862.6</ele>
        <time>2026-06-14T14:20:54.652Z</time>
      </trkpt>
      <trkpt lat="44.5035" lon="5.95955">
        <ele>1863.1</ele>
        <time>2026-06-14T14:20:59.214Z</time>
      </trkpt>
      <trkpt lat="44.50358" lon="5.95959">
        <ele>1864.9</ele>
        <time>2026-06-14T14:21:13.708Z</time>
      </trkpt>
      <trkpt lat="44.50362" lon="5.95962">
        <ele>1864.9</ele>
        <time>2026-06-14T14:21:18.072Z</time>
      </trkpt>
      <trkpt lat="44.50372" lon="5.95967">
        <ele>1866.4</ele>
        <time>2026-06-14T14:21:32.237Z</time>
      </trkpt>
      <trkpt lat="44.50378" lon="5.95972">
        <ele>1865.1</ele>
        <time>2026-06-14T14:21:38.217Z</time>
      </trkpt>
      <trkpt lat="44.50381" lon="5.95973">
        <ele>1865.9</ele>
        <time>2026-06-14T14:21:44.644Z</time>
      </trkpt>
      <trkpt lat="44.50385" lon="5.95976">
        <ele>1865.9</ele>
        <time>2026-06-14T14:21:49.008Z</time>
      </trkpt>
      <trkpt lat="44.50389" lon="5.95977">
        <ele>1867.2</ele>
        <time>2026-06-14T14:22:00.372Z</time>
      </trkpt>
      <trkpt lat="44.50394" lon="5.95981">
        <ele>1867.8</ele>
        <time>2026-06-14T14:22:07.280Z</time>
      </trkpt>
      <trkpt lat="44.50399" lon="5.95983">
        <ele>1869.6</ele>
        <time>2026-06-14T14:22:23.982Z</time>
      </trkpt>
      <trkpt lat="44.50407" lon="5.95985">
        <ele>1872.8</ele>
        <time>2026-06-14T14:22:57.649Z</time>
      </trkpt>
      <trkpt lat="44.50411" lon="5.95986">
        <ele>1874.3</ele>
        <time>2026-06-14T14:23:12.419Z</time>
      </trkpt>
      <trkpt lat="44.50415" lon="5.95987">
        <ele>1875.8</ele>
        <time>2026-06-14T14:23:27.189Z</time>
      </trkpt>
      <trkpt lat="44.50418" lon="5.95989">
        <ele>1875.9</ele>
        <time>2026-06-14T14:23:30.558Z</time>
      </trkpt>
      <trkpt lat="44.50429" lon="5.95993">
        <ele>1880.1</ele>
        <time>2026-06-14T14:24:11.960Z</time>
      </trkpt>
      <trkpt lat="44.50437" lon="5.95995">
        <ele>1883.6</ele>
        <time>2026-06-14T14:24:52.179Z</time>
      </trkpt>
      <trkpt lat="44.5044" lon="5.95997">
        <ele>1883.5</ele>
        <time>2026-06-14T14:24:55.239Z</time>
      </trkpt>
      <trkpt lat="44.50444" lon="5.95998">
        <ele>1885</ele>
        <time>2026-06-14T14:25:10.009Z</time>
      </trkpt>
      <trkpt lat="44.50447" lon="5.95999">
        <ele>1886.2</ele>
        <time>2026-06-14T14:25:22.479Z</time>
      </trkpt>
      <trkpt lat="44.50449" lon="5.96001">
        <ele>1885.7</ele>
        <time>2026-06-14T14:25:24.605Z</time>
      </trkpt>
      <trkpt lat="44.50453" lon="5.96002">
        <ele>1887.9</ele>
        <time>2026-06-14T14:25:47.588Z</time>
      </trkpt>
      <trkpt lat="44.5046" lon="5.96006">
        <ele>1889.2</ele>
        <time>2026-06-14T14:25:58.730Z</time>
      </trkpt>
      <trkpt lat="44.50462" lon="5.96006">
        <ele>1890.6</ele>
        <time>2026-06-14T14:26:10.043Z</time>
      </trkpt>
      <trkpt lat="44.50468" lon="5.96008">
        <ele>1892.8</ele>
        <time>2026-06-14T14:26:31.007Z</time>
      </trkpt>
      <trkpt lat="44.50469" lon="5.96009">
        <ele>1892.4</ele>
        <time>2026-06-14T14:26:32.347Z</time>
      </trkpt>
      <trkpt lat="44.50471" lon="5.96012">
        <ele>1890.4</ele>
        <time>2026-06-14T14:26:40.630Z</time>
      </trkpt>
      <trkpt lat="44.50477" lon="5.96016">
        <ele>1889.1</ele>
        <time>2026-06-14T14:26:46.351Z</time>
      </trkpt>
      <trkpt lat="44.50483" lon="5.96018">
        <ele>1890</ele>
        <time>2026-06-14T14:26:54.698Z</time>
      </trkpt>
      <trkpt lat="44.50486" lon="5.96021">
        <ele>1888</ele>
        <time>2026-06-14T14:27:05.120Z</time>
        <extensions>
          <visugpx:TrkExtension xmlns:visugpx="https://www.visugpx.com/editgpx/">
            <visugpx:node>6</visugpx:node>
            </visugpx:TrkExtension>
        </extensions>
      </trkpt>
      <trkpt lat="44.50483" lon="5.96018">
        <ele>1890</ele>
        <time>2026-06-14T14:27:25.963Z</time>
      </trkpt>
      <trkpt lat="44.50477" lon="5.96016">
        <ele>1889.1</ele>
        <time>2026-06-14T14:27:31.205Z</time>
      </trkpt>
      <trkpt lat="44.50471" lon="5.96012">
        <ele>1890.4</ele>
        <time>2026-06-14T14:27:41.862Z</time>
      </trkpt>
      <trkpt lat="44.50469" lon="5.96009">
        <ele>1892.4</ele>
        <time>2026-06-14T14:27:58.428Z</time>
      </trkpt>
      <trkpt lat="44.50468" lon="5.96008">
        <ele>1892.8</ele>
        <time>2026-06-14T14:28:01.967Z</time>
      </trkpt>
      <trkpt lat="44.50462" lon="5.96006">
        <ele>1890.6</ele>
        <time>2026-06-14T14:28:09.607Z</time>
      </trkpt>
      <trkpt lat="44.5046" lon="5.96006">
        <ele>1889.2</ele>
        <time>2026-06-14T14:28:15.263Z</time>
      </trkpt>
      <trkpt lat="44.50453" lon="5.96002">
        <ele>1887.9</ele>
        <time>2026-06-14T14:28:21.706Z</time>
      </trkpt>
      <trkpt lat="44.50449" lon="5.96001">
        <ele>1885.7</ele>
        <time>2026-06-14T14:28:33.198Z</time>
      </trkpt>
      <trkpt lat="44.50447" lon="5.95999">
        <ele>1886.2</ele>
        <time>2026-06-14T14:28:37.256Z</time>
      </trkpt>
      <trkpt lat="44.50444" lon="5.95998">
        <ele>1885</ele>
        <time>2026-06-14T14:28:41.870Z</time>
      </trkpt>
      <trkpt lat="44.5044" lon="5.95997">
        <ele>1883.5</ele>
        <time>2026-06-14T14:28:47.237Z</time>
      </trkpt>
      <trkpt lat="44.50437" lon="5.95995">
        <ele>1883.6</ele>
        <time>2026-06-14T14:28:50.606Z</time>
      </trkpt>
      <trkpt lat="44.50429" lon="5.95993">
        <ele>1880.1</ele>
        <time>2026-06-14T14:29:08.586Z</time>
      </trkpt>
      <trkpt lat="44.50418" lon="5.95989">
        <ele>1875.9</ele>
        <time>2026-06-14T14:29:23.633Z</time>
      </trkpt>
      <trkpt lat="44.50415" lon="5.95987">
        <ele>1875.8</ele>
        <time>2026-06-14T14:29:26.693Z</time>
      </trkpt>
      <trkpt lat="44.50411" lon="5.95986">
        <ele>1874.3</ele>
        <time>2026-06-14T14:29:32.061Z</time>
      </trkpt>
      <trkpt lat="44.50407" lon="5.95985">
        <ele>1872.8</ele>
        <time>2026-06-14T14:29:37.428Z</time>
      </trkpt>
      <trkpt lat="44.50399" lon="5.95983">
        <ele>1869.6</ele>
        <time>2026-06-14T14:29:49.999Z</time>
      </trkpt>
      <trkpt lat="44.50394" lon="5.95981">
        <ele>1867.8</ele>
        <time>2026-06-14T14:29:56.138Z</time>
      </trkpt>
      <trkpt lat="44.50389" lon="5.95977">
        <ele>1867.2</ele>
        <time>2026-06-14T14:30:01.092Z</time>
      </trkpt>
      <trkpt lat="44.50385" lon="5.95976">
        <ele>1865.9</ele>
        <time>2026-06-14T14:30:05.437Z</time>
      </trkpt>
      <trkpt lat="44.50381" lon="5.95973">
        <ele>1865.9</ele>
        <time>2026-06-14T14:30:09.802Z</time>
      </trkpt>
      <trkpt lat="44.50378" lon="5.95972">
        <ele>1865.1</ele>
        <time>2026-06-14T14:30:12.651Z</time>
      </trkpt>
      <trkpt lat="44.50372" lon="5.95967">
        <ele>1866.4</ele>
        <time>2026-06-14T14:30:23.468Z</time>
      </trkpt>
      <trkpt lat="44.50362" lon="5.95962">
        <ele>1864.9</ele>
        <time>2026-06-14T14:30:32.496Z</time>
      </trkpt>
      <trkpt lat="44.50358" lon="5.95959">
        <ele>1864.9</ele>
        <time>2026-06-14T14:30:36.860Z</time>
      </trkpt>
      <trkpt lat="44.5035" lon="5.95955">
        <ele>1863.1</ele>
        <time>2026-06-14T14:30:44.259Z</time>
      </trkpt>
      <trkpt lat="44.50347" lon="5.95953">
        <ele>1862.6</ele>
        <time>2026-06-14T14:30:47.082Z</time>
      </trkpt>
      <trkpt lat="44.50344" lon="5.95953">
        <ele>1860.9</ele>
        <time>2026-06-14T14:30:55.567Z</time>
      </trkpt>
      <trkpt lat="44.50342" lon="5.95952">
        <ele>1860.3</ele>
        <time>2026-06-14T14:30:57.619Z</time>
      </trkpt>
      <trkpt lat="44.5034" lon="5.9595">
        <ele>1860.2</ele>
        <time>2026-06-14T14:30:59.853Z</time>
      </trkpt>
      <trkpt lat="44.50335" lon="5.95948">
        <ele>1858.2</ele>
        <time>2026-06-14T14:31:07.397Z</time>
      </trkpt>
      <trkpt lat="44.50333" lon="5.95945">
        <ele>1858.6</ele>
        <time>2026-06-14T14:31:11.249Z</time>
      </trkpt>
      <trkpt lat="44.50328" lon="5.95942">
        <ele>1858.2</ele>
        <time>2026-06-14T14:31:16.030Z</time>
      </trkpt>
      <trkpt lat="44.50323" lon="5.95936">
        <ele>1859.7</ele>
        <time>2026-06-14T14:31:28.005Z</time>
      </trkpt>
      <trkpt lat="44.50316" lon="5.95933">
        <ele>1857.2</ele>
        <time>2026-06-14T14:31:36.479Z</time>
      </trkpt>
      <trkpt lat="44.50315" lon="5.9593">
        <ele>1858.3</ele>
        <time>2026-06-14T14:31:49.673Z</time>
      </trkpt>
      <trkpt lat="44.50309" lon="5.95925">
        <ele>1856.7</ele>
        <time>2026-06-14T14:31:55.857Z</time>
      </trkpt>
      <trkpt lat="44.50303" lon="5.95923">
        <ele>1853.6</ele>
        <time>2026-06-14T14:32:13.300Z</time>
      </trkpt>
      <trkpt lat="44.503" lon="5.9592">
        <ele>1853.1</ele>
        <time>2026-06-14T14:32:16.436Z</time>
      </trkpt>
      <trkpt lat="44.50296" lon="5.95917">
        <ele>1852</ele>
        <time>2026-06-14T14:32:20.522Z</time>
      </trkpt>
      <trkpt lat="44.50294" lon="5.95914">
        <ele>1852.4</ele>
        <time>2026-06-14T14:32:24.374Z</time>
      </trkpt>
      <trkpt lat="44.50286" lon="5.95908">
        <ele>1849.9</ele>
        <time>2026-06-14T14:32:33.013Z</time>
      </trkpt>
      <trkpt lat="44.50283" lon="5.95904">
        <ele>1849.2</ele>
        <time>2026-06-14T14:32:36.539Z</time>
      </trkpt>
      <trkpt lat="44.50282" lon="5.95903">
        <ele>1848.8</ele>
        <time>2026-06-14T14:32:37.878Z</time>
      </trkpt>
      <trkpt lat="44.50275" lon="5.95898">
        <ele>1845.3</ele>
        <time>2026-06-14T14:33:00.097Z</time>
      </trkpt>
      <trkpt lat="44.50273" lon="5.95895">
        <ele>1844.9</ele>
        <time>2026-06-14T14:33:02.589Z</time>
      </trkpt>
      <trkpt lat="44.50272" lon="5.95889">
        <ele>1846</ele>
        <time>2026-06-14T14:33:11.383Z</time>
      </trkpt>
      <trkpt lat="44.50269" lon="5.95882">
        <ele>1847.4</ele>
        <time>2026-06-14T14:33:22.548Z</time>
      </trkpt>
      <trkpt lat="44.50267" lon="5.9588">
        <ele>1846.9</ele>
        <time>2026-06-14T14:33:24.675Z</time>
      </trkpt>
      <trkpt lat="44.50264" lon="5.95872">
        <ele>1848.2</ele>
        <time>2026-06-14T14:33:35.249Z</time>
      </trkpt>
      <trkpt lat="44.50257" lon="5.9586">
        <ele>1847.4</ele>
        <time>2026-06-14T14:33:44.979Z</time>
      </trkpt>
      <trkpt lat="44.50253" lon="5.95854">
        <ele>1847.7</ele>
        <time>2026-06-14T14:33:51.174Z</time>
      </trkpt>
      <trkpt lat="44.50251" lon="5.9585">
        <ele>1848.3</ele>
        <time>2026-06-14T14:33:56.314Z</time>
      </trkpt>
      <trkpt lat="44.50248" lon="5.95843">
        <ele>1849.8</ele>
        <time>2026-06-14T14:34:08.350Z</time>
      </trkpt>
      <trkpt lat="44.50245" lon="5.95839">
        <ele>1849.5</ele>
        <time>2026-06-14T14:34:11.993Z</time>
      </trkpt>
      <trkpt lat="44.50242" lon="5.95833">
        <ele>1850.3</ele>
        <time>2026-06-14T14:34:19.228Z</time>
      </trkpt>
      <trkpt lat="44.5024" lon="5.95831">
        <ele>1850.2</ele>
        <time>2026-06-14T14:34:21.462Z</time>
      </trkpt>
      <trkpt lat="44.50238" lon="5.95826">
        <ele>1852.9</ele>
        <time>2026-06-14T14:34:44.589Z</time>
      </trkpt>
      <trkpt lat="44.50233" lon="5.95821">
        <ele>1851.9</ele>
        <time>2026-06-14T14:34:49.813Z</time>
      </trkpt>
      <trkpt lat="44.5023" lon="5.95815">
        <ele>1853.5</ele>
        <time>2026-06-14T14:35:03.434Z</time>
      </trkpt>
      <trkpt lat="44.50216" lon="5.95792">
        <ele>1857</ele>
        <time>2026-06-14T14:35:34.202Z</time>
      </trkpt>
      <trkpt lat="44.50213" lon="5.95786">
        <ele>1858.5</ele>
        <time>2026-06-14T14:35:46.593Z</time>
      </trkpt>
      <trkpt lat="44.50211" lon="5.9578">
        <ele>1861.3</ele>
        <time>2026-06-14T14:36:13.312Z</time>
      </trkpt>
      <trkpt lat="44.50208" lon="5.95774">
        <ele>1862.5</ele>
        <time>2026-06-14T14:36:22.888Z</time>
      </trkpt>
      <trkpt lat="44.50203" lon="5.95766">
        <ele>1862.6</ele>
        <time>2026-06-14T14:36:30.348Z</time>
      </trkpt>
      <trkpt lat="44.50198" lon="5.95759">
        <ele>1861.2</ele>
        <time>2026-06-14T14:36:36.442Z</time>
      </trkpt>
      <trkpt lat="44.50197" lon="5.95758">
        <ele>1860.4</ele>
        <time>2026-06-14T14:36:39.916Z</time>
      </trkpt>
      <trkpt lat="44.50194" lon="5.95754">
        <ele>1859.3</ele>
        <time>2026-06-14T14:36:43.784Z</time>
      </trkpt>
      <trkpt lat="44.50186" lon="5.95746">
        <ele>1855</ele>
        <time>2026-06-14T14:37:07.653Z</time>
      </trkpt>
      <trkpt lat="44.50182" lon="5.95742">
        <ele>1852.7</ele>
        <time>2026-06-14T14:37:21.549Z</time>
      </trkpt>
      <trkpt lat="44.50178" lon="5.95739">
        <ele>1849.3</ele>
        <time>2026-06-14T14:37:34.379Z</time>
      </trkpt>
      <trkpt lat="44.50172" lon="5.95737">
        <ele>1841.4</ele>
        <time>2026-06-14T14:37:51.821Z</time>
      </trkpt>
      <trkpt lat="44.50169" lon="5.95734">
        <ele>1839.3</ele>
        <time>2026-06-14T14:38:02.243Z</time>
      </trkpt>
      <trkpt lat="44.50148" lon="5.95715">
        <ele>1829.7</ele>
        <time>2026-06-14T14:38:38.377Z</time>
      </trkpt>
      <trkpt lat="44.5014" lon="5.95709">
        <ele>1824.4</ele>
        <time>2026-06-14T14:39:04.037Z</time>
      </trkpt>
      <trkpt lat="44.50136" lon="5.95705">
        <ele>1824.1</ele>
        <time>2026-06-14T14:39:08.406Z</time>
      </trkpt>
      <trkpt lat="44.50132" lon="5.95702">
        <ele>1823.2</ele>
        <time>2026-06-14T14:39:12.319Z</time>
      </trkpt>
      <trkpt lat="44.50117" lon="5.95688">
        <ele>1820.1</ele>
        <time>2026-06-14T14:39:27.678Z</time>
      </trkpt>
      <trkpt lat="44.50112" lon="5.95685">
        <ele>1817.3</ele>
        <time>2026-06-14T14:39:43.059Z</time>
      </trkpt>
      <trkpt lat="44.50108" lon="5.95683">
        <ele>1816</ele>
        <time>2026-06-14T14:39:47.413Z</time>
      </trkpt>
      <trkpt lat="44.501" lon="5.95674">
        <ele>1816.9</ele>
        <time>2026-06-14T14:39:59.210Z</time>
      </trkpt>
      <trkpt lat="44.50094" lon="5.9567">
        <ele>1815.4</ele>
        <time>2026-06-14T14:40:05.075Z</time>
      </trkpt>
      <trkpt lat="44.5009" lon="5.95669">
        <ele>1813.3</ele>
        <time>2026-06-14T14:40:16.566Z</time>
      </trkpt>
      <trkpt lat="44.50086" lon="5.95666">
        <ele>1812.2</ele>
        <time>2026-06-14T14:40:20.652Z</time>
      </trkpt>
      <trkpt lat="44.50082" lon="5.95663">
        <ele>1811.5</ele>
        <time>2026-06-14T14:40:24.508Z</time>
      </trkpt>
      <trkpt lat="44.50082" lon="5.95663">
        <ele>1811.5</ele>
        <time>2026-06-14T14:40:24.508Z</time>
      </trkpt>
      <trkpt lat="44.50073" lon="5.95658">
        <ele>1810.7</ele>
        <time>2026-06-14T14:40:32.956Z</time>
      </trkpt>
      <trkpt lat="44.50068" lon="5.95653">
        <ele>1811.3</ele>
        <time>2026-06-14T14:40:40.199Z</time>
      </trkpt>
      <trkpt lat="44.50064" lon="5.95651">
        <ele>1810.7</ele>
        <time>2026-06-14T14:40:43.811Z</time>
      </trkpt>
      <trkpt lat="44.50058" lon="5.95647">
        <ele>1810.2</ele>
        <time>2026-06-14T14:40:49.643Z</time>
      </trkpt>
      <trkpt lat="44.50048" lon="5.95643">
        <ele>1808.9</ele>
        <time>2026-06-14T14:40:58.515Z</time>
      </trkpt>
      <trkpt lat="44.50046" lon="5.95644">
        <ele>1807.9</ele>
        <time>2026-06-14T14:41:04.520Z</time>
      </trkpt>
      <trkpt lat="44.50044" lon="5.95644">
        <ele>1807.3</ele>
        <time>2026-06-14T14:41:06.537Z</time>
      </trkpt>
      <trkpt lat="44.50041" lon="5.95645">
        <ele>1805.9</ele>
        <time>2026-06-14T14:41:15.258Z</time>
      </trkpt>
      <trkpt lat="44.50038" lon="5.95646">
        <ele>1804.6</ele>
        <time>2026-06-14T14:41:21.384Z</time>
      </trkpt>
      <trkpt lat="44.50034" lon="5.95647">
        <ele>1803</ele>
        <time>2026-06-14T14:41:27.670Z</time>
      </trkpt>
      <trkpt lat="44.5003" lon="5.95647">
        <ele>1801.8</ele>
        <time>2026-06-14T14:41:31.703Z</time>
      </trkpt>
      <trkpt lat="44.50026" lon="5.95645">
        <ele>1801.4</ele>
        <time>2026-06-14T14:41:35.379Z</time>
      </trkpt>
      <trkpt lat="44.50021" lon="5.95644">
        <ele>1799.9</ele>
        <time>2026-06-14T14:41:40.431Z</time>
      </trkpt>
      <trkpt lat="44.50009" lon="5.95638">
        <ele>1797</ele>
        <time>2026-06-14T14:41:51.699Z</time>
      </trkpt>
      <trkpt lat="44.50007" lon="5.95636">
        <ele>1796.5</ele>
        <time>2026-06-14T14:41:53.825Z</time>
      </trkpt>
      <trkpt lat="44.50008" lon="5.95616">
        <ele>1800.2</ele>
        <time>2026-06-14T14:42:23.536Z</time>
      </trkpt>
      <trkpt lat="44.50007" lon="5.95609">
        <ele>1800.8</ele>
        <time>2026-06-14T14:42:29.877Z</time>
      </trkpt>
      <trkpt lat="44.50006" lon="5.95603">
        <ele>1801.4</ele>
        <time>2026-06-14T14:42:35.657Z</time>
      </trkpt>
      <trkpt lat="44.50004" lon="5.95597">
        <ele>1801</ele>
        <time>2026-06-14T14:42:39.773Z</time>
      </trkpt>
      <trkpt lat="44.50002" lon="5.9559">
        <ele>1800.6</ele>
        <time>2026-06-14T14:42:44.498Z</time>
      </trkpt>
      <trkpt lat="44.50001" lon="5.95586">
        <ele>1800.5</ele>
        <time>2026-06-14T14:42:47.272Z</time>
        <extensions>
          <visugpx:TrkExtension xmlns:visugpx="https://www.visugpx.com/editgpx/">
            <visugpx:node>7</visugpx:node>
            </visugpx:TrkExtension>
        </extensions>
      </trkpt>
      <trkpt lat="44.49999" lon="5.95581">
        <ele>1799.9</ele>
        <time>2026-06-14T14:42:50.747Z</time>
      </trkpt>
      <trkpt lat="44.49998" lon="5.95577">
        <ele>1800.3</ele>
        <time>2026-06-14T14:42:54.673Z</time>
      </trkpt>
      <trkpt lat="44.49998" lon="5.95575">
        <ele>1800.9</ele>
        <time>2026-06-14T14:43:01.422Z</time>
      </trkpt>
      <trkpt lat="44.49996" lon="5.95569">
        <ele>1801</ele>
        <time>2026-06-14T14:43:06.133Z</time>
      </trkpt>
      <trkpt lat="44.49994" lon="5.95562">
        <ele>1801.3</ele>
        <time>2026-06-14T14:43:11.877Z</time>
      </trkpt>
      <trkpt lat="44.49988" lon="5.95545">
        <ele>1801.5</ele>
        <time>2026-06-14T14:43:25.217Z</time>
      </trkpt>
      <trkpt lat="44.49985" lon="5.95539">
        <ele>1800.9</ele>
        <time>2026-06-14T14:43:29.692Z</time>
      </trkpt>
      <trkpt lat="44.49978" lon="5.95527">
        <ele>1798.9</ele>
        <time>2026-06-14T14:43:39.144Z</time>
      </trkpt>
      <trkpt lat="44.49976" lon="5.95524">
        <ele>1797.9</ele>
        <time>2026-06-14T14:43:42.534Z</time>
      </trkpt>
      <trkpt lat="44.49971" lon="5.95515">
        <ele>1796</ele>
        <time>2026-06-14T14:43:49.779Z</time>
      </trkpt>
      <trkpt lat="44.4997" lon="5.9551">
        <ele>1796.4</ele>
        <time>2026-06-14T14:43:54.268Z</time>
      </trkpt>
      <trkpt lat="44.49969" lon="5.95503">
        <ele>1797.2</ele>
        <time>2026-06-14T14:44:01.410Z</time>
      </trkpt>
      <trkpt lat="44.49969" lon="5.95499">
        <ele>1797.9</ele>
        <time>2026-06-14T14:44:06.998Z</time>
      </trkpt>
      <trkpt lat="44.49963" lon="5.9548">
        <ele>1795.1</ele>
        <time>2026-06-14T14:44:19.713Z</time>
      </trkpt>
      <trkpt lat="44.49957" lon="5.95463">
        <ele>1792.6</ele>
        <time>2026-06-14T14:44:31.296Z</time>
      </trkpt>
      <trkpt lat="44.49956" lon="5.95455">
        <ele>1792.8</ele>
        <time>2026-06-14T14:44:37.220Z</time>
      </trkpt>
      <trkpt lat="44.49955" lon="5.95453">
        <ele>1792.3</ele>
        <time>2026-06-14T14:44:38.921Z</time>
      </trkpt>
      <trkpt lat="44.49953" lon="5.95447">
        <ele>1791.6</ele>
        <time>2026-06-14T14:44:42.935Z</time>
      </trkpt>
      <trkpt lat="44.49951" lon="5.95442">
        <ele>1790.7</ele>
        <time>2026-06-14T14:44:46.524Z</time>
      </trkpt>
      <trkpt lat="44.49949" lon="5.95437">
        <ele>1789.9</ele>
        <time>2026-06-14T14:44:50.045Z</time>
      </trkpt>
      <trkpt lat="44.49947" lon="5.95429">
        <ele>1789.4</ele>
        <time>2026-06-14T14:44:55.321Z</time>
      </trkpt>
      <trkpt lat="44.49945" lon="5.95425">
        <ele>1788.5</ele>
        <time>2026-06-14T14:44:58.535Z</time>
      </trkpt>
      <trkpt lat="44.49941" lon="5.95415">
        <ele>1787</ele>
        <time>2026-06-14T14:45:05.533Z</time>
      </trkpt>
      <trkpt lat="44.49941" lon="5.95412">
        <ele>1787.4</ele>
        <time>2026-06-14T14:45:08.857Z</time>
      </trkpt>
      <trkpt lat="44.4994" lon="5.95406">
        <ele>1787.6</ele>
        <time>2026-06-14T14:45:13.450Z</time>
      </trkpt>
      <trkpt lat="44.49935" lon="5.95394">
        <ele>1785.9</ele>
        <time>2026-06-14T14:45:21.898Z</time>
      </trkpt>
      <trkpt lat="44.49933" lon="5.95389">
        <ele>1785.2</ele>
        <time>2026-06-14T14:45:25.382Z</time>
      </trkpt>
      <trkpt lat="44.49927" lon="5.95372">
        <ele>1782.7</ele>
        <time>2026-06-14T14:45:36.966Z</time>
      </trkpt>
      <trkpt lat="44.49926" lon="5.95369">
        <ele>1782.3</ele>
        <time>2026-06-14T14:45:38.978Z</time>
      </trkpt>
      <trkpt lat="44.49925" lon="5.95365">
        <ele>1782</ele>
        <time>2026-06-14T14:45:41.587Z</time>
      </trkpt>
      <trkpt lat="44.49922" lon="5.95355">
        <ele>1781.1</ele>
        <time>2026-06-14T14:45:48.209Z</time>
      </trkpt>
      <trkpt lat="44.49917" lon="5.95337">
        <ele>1779.8</ele>
        <time>2026-06-14T14:46:00.134Z</time>
      </trkpt>
      <trkpt lat="44.49916" lon="5.95335">
        <ele>1779.4</ele>
        <time>2026-06-14T14:46:01.678Z</time>
      </trkpt>
      <trkpt lat="44.49914" lon="5.95333">
        <ele>1778.3</ele>
        <time>2026-06-14T14:46:08.626Z</time>
      </trkpt>
      <trkpt lat="44.49913" lon="5.95326">
        <ele>1778.2</ele>
        <time>2026-06-14T14:46:13.383Z</time>
      </trkpt>
      <trkpt lat="44.49913" lon="5.95314">
        <ele>1779</ele>
        <time>2026-06-14T14:46:23.370Z</time>
      </trkpt>
      <trkpt lat="44.49912" lon="5.95311">
        <ele>1778.6</ele>
        <time>2026-06-14T14:46:25.382Z</time>
      </trkpt>
      <trkpt lat="44.49911" lon="5.95307">
        <ele>1778.2</ele>
        <time>2026-06-14T14:46:27.956Z</time>
      </trkpt>
      <trkpt lat="44.4991" lon="5.95302">
        <ele>1777.8</ele>
        <time>2026-06-14T14:46:31.137Z</time>
      </trkpt>
      <trkpt lat="44.4991" lon="5.95296">
        <ele>1778.1</ele>
        <time>2026-06-14T14:46:35.856Z</time>
      </trkpt>
      <trkpt lat="44.49909" lon="5.95289">
        <ele>1777.8</ele>
        <time>2026-06-14T14:46:40.394Z</time>
      </trkpt>
      <trkpt lat="44.49908" lon="5.95286">
        <ele>1777.3</ele>
        <time>2026-06-14T14:46:42.451Z</time>
      </trkpt>
      <trkpt lat="44.49907" lon="5.9528">
        <ele>1777</ele>
        <time>2026-06-14T14:46:46.332Z</time>
      </trkpt>
      <trkpt lat="44.49906" lon="5.95279">
        <ele>1776.4</ele>
        <time>2026-06-14T14:46:49.806Z</time>
      </trkpt>
      <trkpt lat="44.49905" lon="5.95273">
        <ele>1776.4</ele>
        <time>2026-06-14T14:46:54.034Z</time>
      </trkpt>
      <trkpt lat="44.49902" lon="5.95264">
        <ele>1775.5</ele>
        <time>2026-06-14T14:47:00.076Z</time>
      </trkpt>
      <trkpt lat="44.499" lon="5.95258">
        <ele>1774.9</ele>
        <time>2026-06-14T14:47:04.104Z</time>
      </trkpt>
      <trkpt lat="44.49898" lon="5.95255">
        <ele>1774</ele>
        <time>2026-06-14T14:47:07.117Z</time>
      </trkpt>
      <trkpt lat="44.49895" lon="5.9525">
        <ele>1772.7</ele>
        <time>2026-06-14T14:47:11.586Z</time>
      </trkpt>
      <trkpt lat="44.49895" lon="5.95247">
        <ele>1773.3</ele>
        <time>2026-06-14T14:47:16.501Z</time>
      </trkpt>
      <trkpt lat="44.49895" lon="5.95244">
        <ele>1773.9</ele>
        <time>2026-06-14T14:47:21.416Z</time>
      </trkpt>
      <trkpt lat="44.49888" lon="5.95229">
        <ele>1772.3</ele>
        <time>2026-06-14T14:47:32.324Z</time>
      </trkpt>
      <trkpt lat="44.49885" lon="5.95219">
        <ele>1772.4</ele>
        <time>2026-06-14T14:47:39.929Z</time>
      </trkpt>
      <trkpt lat="44.49882" lon="5.95212">
        <ele>1772.1</ele>
        <time>2026-06-14T14:47:45.160Z</time>
      </trkpt>
      <trkpt lat="44.49876" lon="5.952">
        <ele>1771</ele>
        <time>2026-06-14T14:47:54.151Z</time>
      </trkpt>
      <trkpt lat="44.49872" lon="5.9519">
        <ele>1770.1</ele>
        <time>2026-06-14T14:48:01.168Z</time>
      </trkpt>
      <trkpt lat="44.49869" lon="5.95182">
        <ele>1769</ele>
        <time>2026-06-14T14:48:06.661Z</time>
      </trkpt>
      <trkpt lat="44.49866" lon="5.95175">
        <ele>1767.6</ele>
        <time>2026-06-14T14:48:11.892Z</time>
      </trkpt>
      <trkpt lat="44.49862" lon="5.95166">
        <ele>1765.7</ele>
        <time>2026-06-14T14:48:18.790Z</time>
      </trkpt>
      <trkpt lat="44.4986" lon="5.95158">
        <ele>1765.3</ele>
        <time>2026-06-14T14:48:24.141Z</time>
      </trkpt>
      <trkpt lat="44.49857" lon="5.95148">
        <ele>1764.6</ele>
        <time>2026-06-14T14:48:30.856Z</time>
      </trkpt>
      <trkpt lat="44.49856" lon="5.95138">
        <ele>1764.9</ele>
        <time>2026-06-14T14:48:38.325Z</time>
      </trkpt>
      <trkpt lat="44.49854" lon="5.95131">
        <ele>1764.2</ele>
        <time>2026-06-14T14:48:42.907Z</time>
      </trkpt>
      <trkpt lat="44.49852" lon="5.95124">
        <ele>1763.5</ele>
        <time>2026-06-14T14:48:47.490Z</time>
      </trkpt>
      <trkpt lat="44.4985" lon="5.95118">
        <ele>1762.7</ele>
        <time>2026-06-14T14:48:51.513Z</time>
      </trkpt>
      <trkpt lat="44.49849" lon="5.95109">
        <ele>1762.8</ele>
        <time>2026-06-14T14:48:57.926Z</time>
      </trkpt>
      <trkpt lat="44.49846" lon="5.95097">
        <ele>1762.2</ele>
        <time>2026-06-14T14:49:05.952Z</time>
      </trkpt>
      <trkpt lat="44.49845" lon="5.9509">
        <ele>1762.3</ele>
        <time>2026-06-14T14:49:11.017Z</time>
      </trkpt>
      <trkpt lat="44.49843" lon="5.95083">
        <ele>1761.7</ele>
        <time>2026-06-14T14:49:15.629Z</time>
      </trkpt>
      <trkpt lat="44.4984" lon="5.95076">
        <ele>1760.9</ele>
        <time>2026-06-14T14:49:20.584Z</time>
      </trkpt>
      <trkpt lat="44.49834" lon="5.95063">
        <ele>1758.5</ele>
        <time>2026-06-14T14:49:30.252Z</time>
      </trkpt>
      <trkpt lat="44.49829" lon="5.95052">
        <ele>1757.2</ele>
        <time>2026-06-14T14:49:38.164Z</time>
      </trkpt>
      <trkpt lat="44.49826" lon="5.95045">
        <ele>1756.9</ele>
        <time>2026-06-14T14:49:43.395Z</time>
      </trkpt>
      <trkpt lat="44.49825" lon="5.95041">
        <ele>1757</ele>
        <time>2026-06-14T14:49:46.478Z</time>
      </trkpt>
      <trkpt lat="44.49824" lon="5.95035">
        <ele>1757.6</ele>
        <time>2026-06-14T14:49:52.257Z</time>
      </trkpt>
      <trkpt lat="44.4982" lon="5.95022">
        <ele>1757.8</ele>
        <time>2026-06-14T14:50:02.304Z</time>
      </trkpt>
      <trkpt lat="44.49817" lon="5.95013">
        <ele>1758</ele>
        <time>2026-06-14T14:50:09.463Z</time>
      </trkpt>
      <trkpt lat="44.49813" lon="5.95003">
        <ele>1757.7</ele>
        <time>2026-06-14T14:50:16.934Z</time>
      </trkpt>
      <trkpt lat="44.4981" lon="5.94995">
        <ele>1757.2</ele>
        <time>2026-06-14T14:50:22.582Z</time>
      </trkpt>
      <trkpt lat="44.49806" lon="5.94982">
        <ele>1756.6</ele>
        <time>2026-06-14T14:50:31.577Z</time>
      </trkpt>
      <trkpt lat="44.49801" lon="5.94966">
        <ele>1756.1</ele>
        <time>2026-06-14T14:50:42.911Z</time>
      </trkpt>
      <trkpt lat="44.49798" lon="5.94958">
        <ele>1755.5</ele>
        <time>2026-06-14T14:50:48.496Z</time>
      </trkpt>
      <trkpt lat="44.49796" lon="5.94953">
        <ele>1755</ele>
        <time>2026-06-14T14:50:51.988Z</time>
      </trkpt>
      <trkpt lat="44.49792" lon="5.94948">
        <ele>1753.2</ele>
        <time>2026-06-14T14:50:58.054Z</time>
      </trkpt>
      <trkpt lat="44.4979" lon="5.94944">
        <ele>1752.5</ele>
        <time>2026-06-14T14:51:01.064Z</time>
      </trkpt>
      <trkpt lat="44.49788" lon="5.94936">
        <ele>1753.2</ele>
        <time>2026-06-14T14:51:08.551Z</time>
      </trkpt>
      <trkpt lat="44.49785" lon="5.94925">
        <ele>1753.7</ele>
        <time>2026-06-14T14:51:17.595Z</time>
      </trkpt>
      <trkpt lat="44.49782" lon="5.94915">
        <ele>1753.6</ele>
        <time>2026-06-14T14:51:24.894Z</time>
      </trkpt>
      <trkpt lat="44.49779" lon="5.94904">
        <ele>1752.5</ele>
        <time>2026-06-14T14:51:32.049Z</time>
      </trkpt>
      <trkpt lat="44.49777" lon="5.94898">
        <ele>1751.5</ele>
        <time>2026-06-14T14:51:36.164Z</time>
      </trkpt>
      <trkpt lat="44.49775" lon="5.94892">
        <ele>1750.7</ele>
        <time>2026-06-14T14:51:40.187Z</time>
      </trkpt>
      <trkpt lat="44.49772" lon="5.94887">
        <ele>1749.1</ele>
        <time>2026-06-14T14:51:45.623Z</time>
      </trkpt>
      <trkpt lat="44.49771" lon="5.94883">
        <ele>1748.6</ele>
        <time>2026-06-14T14:51:48.196Z</time>
      </trkpt>
      <trkpt lat="44.49771" lon="5.94879">
        <ele>1748.7</ele>
        <time>2026-06-14T14:51:51.116Z</time>
      </trkpt>
      <trkpt lat="44.49771" lon="5.94877">
        <ele>1748.8</ele>
        <time>2026-06-14T14:51:52.689Z</time>
      </trkpt>
      <trkpt lat="44.4977" lon="5.94873">
        <ele>1748.3</ele>
        <time>2026-06-14T14:51:55.262Z</time>
      </trkpt>
      <trkpt lat="44.49768" lon="5.94866">
        <ele>1747.1</ele>
        <time>2026-06-14T14:51:59.997Z</time>
      </trkpt>
      <trkpt lat="44.49768" lon="5.94859">
        <ele>1747.4</ele>
        <time>2026-06-14T14:52:05.379Z</time>
      </trkpt>
      <trkpt lat="44.49766" lon="5.94853">
        <ele>1746.2</ele>
        <time>2026-06-14T14:52:09.706Z</time>
      </trkpt>
      <trkpt lat="44.49764" lon="5.94841">
        <ele>1745.3</ele>
        <time>2026-06-14T14:52:17.278Z</time>
      </trkpt>
      <trkpt lat="44.49761" lon="5.94833">
        <ele>1743.6</ele>
        <time>2026-06-14T14:52:23.280Z</time>
      </trkpt>
      <trkpt lat="44.49757" lon="5.94824">
        <ele>1742</ele>
        <time>2026-06-14T14:52:29.867Z</time>
      </trkpt>
      <trkpt lat="44.49754" lon="5.94816">
        <ele>1741.1</ele>
        <time>2026-06-14T14:52:35.350Z</time>
      </trkpt>
      <trkpt lat="44.49747" lon="5.94805">
        <ele>1738.5</ele>
        <time>2026-06-14T14:52:44.884Z</time>
      </trkpt>
      <trkpt lat="44.49745" lon="5.94803">
        <ele>1737.9</ele>
        <time>2026-06-14T14:52:47.102Z</time>
      </trkpt>
      <trkpt lat="44.49741" lon="5.94802">
        <ele>1736</ele>
        <time>2026-06-14T14:52:58.594Z</time>
      </trkpt>
      <trkpt lat="44.49738" lon="5.94801">
        <ele>1734.6</ele>
        <time>2026-06-14T14:53:07.315Z</time>
      </trkpt>
      <trkpt lat="44.49735" lon="5.94799">
        <ele>1733.4</ele>
        <time>2026-06-14T14:53:11.523Z</time>
      </trkpt>
      <trkpt lat="44.49727" lon="5.94786">
        <ele>1731.9</ele>
        <time>2026-06-14T14:53:21.980Z</time>
      </trkpt>
      <trkpt lat="44.4972" lon="5.94775">
        <ele>1730.3</ele>
        <time>2026-06-14T14:53:30.917Z</time>
      </trkpt>
      <trkpt lat="44.49715" lon="5.94768">
        <ele>1729</ele>
        <time>2026-06-14T14:53:36.965Z</time>
      </trkpt>
      <trkpt lat="44.49714" lon="5.94765">
        <ele>1729.1</ele>
        <time>2026-06-14T14:53:39.417Z</time>
      </trkpt>
      <trkpt lat="44.49712" lon="5.94763">
        <ele>1728.3</ele>
        <time>2026-06-14T14:53:42.096Z</time>
      </trkpt>
      <trkpt lat="44.49709" lon="5.9476">
        <ele>1727.1</ele>
        <time>2026-06-14T14:53:46.113Z</time>
      </trkpt>
      <trkpt lat="44.49706" lon="5.94756">
        <ele>1726.1</ele>
        <time>2026-06-14T14:53:49.837Z</time>
      </trkpt>
      <trkpt lat="44.49705" lon="5.94751">
        <ele>1726.6</ele>
        <time>2026-06-14T14:53:54.686Z</time>
      </trkpt>
      <trkpt lat="44.49703" lon="5.94748">
        <ele>1725.7</ele>
        <time>2026-06-14T14:53:57.699Z</time>
      </trkpt>
      <trkpt lat="44.49701" lon="5.94744">
        <ele>1724.8</ele>
        <time>2026-06-14T14:54:00.913Z</time>
      </trkpt>
      <trkpt lat="44.49698" lon="5.94741">
        <ele>1723</ele>
        <time>2026-06-14T14:54:11.335Z</time>
      </trkpt>
      <trkpt lat="44.49696" lon="5.94736">
        <ele>1722.1</ele>
        <time>2026-06-14T14:54:14.923Z</time>
      </trkpt>
      <trkpt lat="44.49693" lon="5.94731">
        <ele>1720.5</ele>
        <time>2026-06-14T14:54:20.359Z</time>
      </trkpt>
      <trkpt lat="44.49693" lon="5.94725">
        <ele>1720.9</ele>
        <time>2026-06-14T14:54:25.352Z</time>
      </trkpt>
      <trkpt lat="44.49692" lon="5.94717">
        <ele>1721.1</ele>
        <time>2026-06-14T14:54:31.276Z</time>
      </trkpt>
      <trkpt lat="44.49691" lon="5.94709">
        <ele>1721.3</ele>
        <time>2026-06-14T14:54:37.200Z</time>
      </trkpt>
      <trkpt lat="44.49689" lon="5.94702">
        <ele>1720.9</ele>
        <time>2026-06-14T14:54:41.925Z</time>
      </trkpt>
      <trkpt lat="44.49687" lon="5.94699">
        <ele>1720</ele>
        <time>2026-06-14T14:54:44.938Z</time>
      </trkpt>
      <trkpt lat="44.49684" lon="5.94696">
        <ele>1718.4</ele>
        <time>2026-06-14T14:54:53.473Z</time>
      </trkpt>
      <trkpt lat="44.4968" lon="5.94692">
        <ele>1716.7</ele>
        <time>2026-06-14T14:54:59.269Z</time>
      </trkpt>
      <trkpt lat="44.49676" lon="5.94687">
        <ele>1715.2</ele>
        <time>2026-06-14T14:55:04.419Z</time>
      </trkpt>
      <trkpt lat="44.49674" lon="5.94682">
        <ele>1715</ele>
        <time>2026-06-14T14:55:08.101Z</time>
      </trkpt>
      <trkpt lat="44.49671" lon="5.94676">
        <ele>1714.2</ele>
        <time>2026-06-14T14:55:12.543Z</time>
      </trkpt>
      <trkpt lat="44.4967" lon="5.94674">
        <ele>1713.9</ele>
        <time>2026-06-14T14:55:14.028Z</time>
      </trkpt>
      <trkpt lat="44.49667" lon="5.94669">
        <ele>1712.8</ele>
        <time>2026-06-14T14:55:18.191Z</time>
      </trkpt>
      <trkpt lat="44.49665" lon="5.94664">
        <ele>1712.6</ele>
        <time>2026-06-14T14:55:21.873Z</time>
      </trkpt>
      <trkpt lat="44.49663" lon="5.9466">
        <ele>1712.2</ele>
        <time>2026-06-14T14:55:24.857Z</time>
      </trkpt>
      <trkpt lat="44.49661" lon="5.94653">
        <ele>1712.6</ele>
        <time>2026-06-14T14:55:30.846Z</time>
      </trkpt>
      <trkpt lat="44.49659" lon="5.94652">
        <ele>1711.6</ele>
        <time>2026-06-14T14:55:36.852Z</time>
      </trkpt>
      <trkpt lat="44.49657" lon="5.9465">
        <ele>1710.9</ele>
        <time>2026-06-14T14:55:39.239Z</time>
      </trkpt>
      <trkpt lat="44.49654" lon="5.94646">
        <ele>1710.1</ele>
        <time>2026-06-14T14:55:42.799Z</time>
      </trkpt>
      <trkpt lat="44.49652" lon="5.94642">
        <ele>1709.8</ele>
        <time>2026-06-14T14:55:45.831Z</time>
      </trkpt>
      <trkpt lat="44.49649" lon="5.94641">
        <ele>1708.3</ele>
        <time>2026-06-14T14:55:54.553Z</time>
      </trkpt>
      <trkpt lat="44.49647" lon="5.94639">
        <ele>1707.6</ele>
        <time>2026-06-14T14:55:56.940Z</time>
      </trkpt>
      <trkpt lat="44.49643" lon="5.94636">
        <ele>1706.1</ele>
        <time>2026-06-14T14:56:01.975Z</time>
      </trkpt>
      <trkpt lat="44.49638" lon="5.94629">
        <ele>1705</ele>
        <time>2026-06-14T14:56:07.981Z</time>
      </trkpt>
      <trkpt lat="44.49636" lon="5.94626">
        <ele>1704.7</ele>
        <time>2026-06-14T14:56:10.504Z</time>
      </trkpt>
      <trkpt lat="44.49631" lon="5.94619">
        <ele>1703.9</ele>
        <time>2026-06-14T14:56:16.559Z</time>
      </trkpt>
      <trkpt lat="44.49625" lon="5.94612">
        <ele>1702.7</ele>
        <time>2026-06-14T14:56:23.193Z</time>
      </trkpt>
      <trkpt lat="44.49621" lon="5.94606">
        <ele>1702.3</ele>
        <time>2026-06-14T14:56:28.367Z</time>
      </trkpt>
      <trkpt lat="44.49608" lon="5.94591">
        <ele>1699.4</ele>
        <time>2026-06-14T14:56:42.719Z</time>
      </trkpt>
      <trkpt lat="44.49605" lon="5.94588">
        <ele>1698.5</ele>
        <time>2026-06-14T14:56:46.046Z</time>
      </trkpt>
      <trkpt lat="44.49602" lon="5.94585">
        <ele>1697.7</ele>
        <time>2026-06-14T14:56:49.271Z</time>
      </trkpt>
      <trkpt lat="44.496" lon="5.94581">
        <ele>1697.6</ele>
        <time>2026-06-14T14:56:52.486Z</time>
      </trkpt>
      <trkpt lat="44.49597" lon="5.94577">
        <ele>1697</ele>
        <time>2026-06-14T14:56:56.005Z</time>
      </trkpt>
      <trkpt lat="44.49594" lon="5.94573">
        <ele>1696.4</ele>
        <time>2026-06-14T14:56:59.525Z</time>
      </trkpt>
      <trkpt lat="44.49589" lon="5.94565">
        <ele>1695.7</ele>
        <time>2026-06-14T14:57:06.100Z</time>
      </trkpt>
      <trkpt lat="44.49582" lon="5.94556">
        <ele>1694.1</ele>
        <time>2026-06-14T14:57:14.189Z</time>
      </trkpt>
      <trkpt lat="44.49579" lon="5.94552">
        <ele>1692.8</ele>
        <time>2026-06-14T14:57:18.534Z</time>
      </trkpt>
      <trkpt lat="44.49577" lon="5.94546">
        <ele>1692.1</ele>
        <time>2026-06-14T14:57:22.549Z</time>
      </trkpt>
      <trkpt lat="44.49576" lon="5.9454">
        <ele>1691.9</ele>
        <time>2026-06-14T14:57:26.522Z</time>
      </trkpt>
      <trkpt lat="44.49574" lon="5.94532">
        <ele>1691</ele>
        <time>2026-06-14T14:57:31.661Z</time>
      </trkpt>
      <trkpt lat="44.49575" lon="5.94524">
        <ele>1691.5</ele>
        <time>2026-06-14T14:57:38.300Z</time>
      </trkpt>
      <trkpt lat="44.49576" lon="5.94519">
        <ele>1691.6</ele>
        <time>2026-06-14T14:57:42.034Z</time>
      </trkpt>
      <trkpt lat="44.49576" lon="5.94515">
        <ele>1691.1</ele>
        <time>2026-06-14T14:57:44.468Z</time>
      </trkpt>
      <trkpt lat="44.49575" lon="5.94511">
        <ele>1689.8</ele>
        <time>2026-06-14T14:57:51.097Z</time>
      </trkpt>
      <trkpt lat="44.49574" lon="5.94505">
        <ele>1688.3</ele>
        <time>2026-06-14T14:57:56.180Z</time>
      </trkpt>
      <trkpt lat="44.49572" lon="5.94491">
        <ele>1685.9</ele>
        <time>2026-06-14T14:58:05.273Z</time>
      </trkpt>
      <trkpt lat="44.4957" lon="5.94478">
        <ele>1684.1</ele>
        <time>2026-06-14T14:58:13.414Z</time>
      </trkpt>
      <trkpt lat="44.4957" lon="5.94477">
        <ele>1684</ele>
        <time>2026-06-14T14:58:14.021Z</time>
        <extensions>
          <visugpx:TrkExtension xmlns:visugpx="https://www.visugpx.com/editgpx/">
            <visugpx:node>8</visugpx:node>
            </visugpx:TrkExtension>
        </extensions>
      </trkpt>
      <trkpt lat="44.49567" lon="5.94464">
        <ele>1681.7</ele>
        <time>2026-06-14T14:58:22.725Z</time>
      </trkpt>
      <trkpt lat="44.49565" lon="5.94457">
        <ele>1680.2</ele>
        <time>2026-06-14T14:58:27.883Z</time>
      </trkpt>
      <trkpt lat="44.49563" lon="5.9445">
        <ele>1678.7</ele>
        <time>2026-06-14T14:58:33.040Z</time>
      </trkpt>
      <trkpt lat="44.49563" lon="5.94443">
        <ele>1678.8</ele>
        <time>2026-06-14T14:58:38.009Z</time>
      </trkpt>
      <trkpt lat="44.49562" lon="5.94437">
        <ele>1677.8</ele>
        <time>2026-06-14T14:58:41.896Z</time>
      </trkpt>
      <trkpt lat="44.49561" lon="5.94433">
        <ele>1676.8</ele>
        <time>2026-06-14T14:58:45.253Z</time>
      </trkpt>
      <trkpt lat="44.4956" lon="5.9443">
        <ele>1675.9</ele>
        <time>2026-06-14T14:58:48.601Z</time>
      </trkpt>
      <trkpt lat="44.49559" lon="5.94425">
        <ele>1674.9</ele>
        <time>2026-06-14T14:58:52.089Z</time>
      </trkpt>
      <trkpt lat="44.49559" lon="5.94421">
        <ele>1674.8</ele>
        <time>2026-06-14T14:58:54.701Z</time>
      </trkpt>
      <trkpt lat="44.49558" lon="5.94416">
        <ele>1673.8</ele>
        <time>2026-06-14T14:58:58.189Z</time>
      </trkpt>
      <trkpt lat="44.49557" lon="5.94411">
        <ele>1673.1</ele>
        <time>2026-06-14T14:59:01.367Z</time>
      </trkpt>
      <trkpt lat="44.49556" lon="5.94404">
        <ele>1672.3</ele>
        <time>2026-06-14T14:59:05.696Z</time>
      </trkpt>
      <trkpt lat="44.49556" lon="5.94398">
        <ele>1672.3</ele>
        <time>2026-06-14T14:59:09.814Z</time>
      </trkpt>
      <trkpt lat="44.49556" lon="5.94395">
        <ele>1672.3</ele>
        <time>2026-06-14T14:59:11.873Z</time>
      </trkpt>
      <trkpt lat="44.49555" lon="5.94392">
        <ele>1671.6</ele>
        <time>2026-06-14T14:59:14.231Z</time>
      </trkpt>
      <trkpt lat="44.49553" lon="5.94384">
        <ele>1670</ele>
        <time>2026-06-14T14:59:19.870Z</time>
      </trkpt>
      <trkpt lat="44.49552" lon="5.94375">
        <ele>1668.7</ele>
        <time>2026-06-14T14:59:25.480Z</time>
      </trkpt>
      <trkpt lat="44.49551" lon="5.94364">
        <ele>1667.3</ele>
        <time>2026-06-14T14:59:32.232Z</time>
      </trkpt>
      <trkpt lat="44.49551" lon="5.94358">
        <ele>1667</ele>
        <time>2026-06-14T14:59:36.006Z</time>
      </trkpt>
      <trkpt lat="44.4955" lon="5.94354">
        <ele>1666.2</ele>
        <time>2026-06-14T14:59:38.825Z</time>
      </trkpt>
      <trkpt lat="44.49549" lon="5.94351">
        <ele>1665.5</ele>
        <time>2026-06-14T14:59:41.184Z</time>
      </trkpt>
      <trkpt lat="44.49548" lon="5.94346">
        <ele>1664.7</ele>
        <time>2026-06-14T14:59:44.422Z</time>
      </trkpt>
      <trkpt lat="44.49548" lon="5.94339">
        <ele>1664.5</ele>
        <time>2026-06-14T14:59:48.965Z</time>
      </trkpt>
      <trkpt lat="44.49547" lon="5.94332">
        <ele>1663.6</ele>
        <time>2026-06-14T14:59:53.312Z</time>
      </trkpt>
      <trkpt lat="44.49547" lon="5.94327">
        <ele>1662.9</ele>
        <time>2026-06-14T14:59:56.384Z</time>
      </trkpt>
      <trkpt lat="44.49548" lon="5.94323">
        <ele>1663.1</ele>
        <time>2026-06-14T14:59:59.688Z</time>
      </trkpt>
      <trkpt lat="44.49548" lon="5.94318">
        <ele>1662.4</ele>
        <time>2026-06-14T15:00:02.760Z</time>
      </trkpt>
      <trkpt lat="44.49548" lon="5.94312">
        <ele>1661.7</ele>
        <time>2026-06-14T15:00:06.401Z</time>
      </trkpt>
      <trkpt lat="44.49547" lon="5.94307">
        <ele>1660.3</ele>
        <time>2026-06-14T15:00:11.551Z</time>
      </trkpt>
      <trkpt lat="44.49546" lon="5.94304">
        <ele>1659.4</ele>
        <time>2026-06-14T15:00:14.899Z</time>
      </trkpt>
      <trkpt lat="44.49544" lon="5.94301">
        <ele>1657.8</ele>
        <time>2026-06-14T15:00:23.183Z</time>
      </trkpt>
      <trkpt lat="44.49546" lon="5.94298">
        <ele>1658.9</ele>
        <time>2026-06-14T15:00:34.202Z</time>
      </trkpt>
      <trkpt lat="44.49547" lon="5.94296">
        <ele>1659.5</ele>
        <time>2026-06-14T15:00:39.744Z</time>
      </trkpt>
      <trkpt lat="44.49546" lon="5.94294">
        <ele>1658.6</ele>
        <time>2026-06-14T15:00:44.672Z</time>
      </trkpt>
      <trkpt lat="44.49545" lon="5.94292">
        <ele>1657.8</ele>
        <time>2026-06-14T15:00:49.599Z</time>
      </trkpt>
      <trkpt lat="44.49545" lon="5.94284">
        <ele>1657.2</ele>
        <time>2026-06-14T15:00:54.508Z</time>
      </trkpt>
      <trkpt lat="44.49546" lon="5.9428">
        <ele>1657.6</ele>
        <time>2026-06-14T15:00:58.434Z</time>
      </trkpt>
      <trkpt lat="44.49548" lon="5.94279">
        <ele>1658.9</ele>
        <time>2026-06-14T15:01:10.445Z</time>
      </trkpt>
      <trkpt lat="44.49548" lon="5.94278">
        <ele>1658.8</ele>
        <time>2026-06-14T15:01:11.051Z</time>
      </trkpt>
      <trkpt lat="44.49548" lon="5.94276">
        <ele>1659.4</ele>
        <time>2026-06-14T15:01:17.800Z</time>
      </trkpt>
      <trkpt lat="44.49543" lon="5.94269">
        <ele>1658.4</ele>
        <time>2026-06-14T15:01:23.808Z</time>
      </trkpt>
      <trkpt lat="44.49537" lon="5.94265">
        <ele>1655.8</ele>
        <time>2026-06-14T15:01:33.904Z</time>
      </trkpt>
      <trkpt lat="44.49527" lon="5.9426">
        <ele>1650.9</ele>
        <time>2026-06-14T15:02:03.931Z</time>
      </trkpt>
      <trkpt lat="44.49523" lon="5.94255">
        <ele>1650.2</ele>
        <time>2026-06-14T15:02:08.497Z</time>
      </trkpt>
      <trkpt lat="44.49521" lon="5.94251">
        <ele>1650.5</ele>
        <time>2026-06-14T15:02:12.488Z</time>
      </trkpt>
      <trkpt lat="44.49518" lon="5.94249">
        <ele>1649.3</ele>
        <time>2026-06-14T15:02:16.695Z</time>
      </trkpt>
      <trkpt lat="44.49515" lon="5.94244">
        <ele>1648.9</ele>
        <time>2026-06-14T15:02:20.753Z</time>
      </trkpt>
      <trkpt lat="44.49512" lon="5.94237">
        <ele>1649.2</ele>
        <time>2026-06-14T15:02:26.917Z</time>
      </trkpt>
      <trkpt lat="44.4951" lon="5.94235">
        <ele>1648.6</ele>
        <time>2026-06-14T15:02:29.135Z</time>
      </trkpt>
      <trkpt lat="44.49508" lon="5.94232">
        <ele>1648.4</ele>
        <time>2026-06-14T15:02:31.722Z</time>
      </trkpt>
      <trkpt lat="44.49506" lon="5.9423">
        <ele>1647.8</ele>
        <time>2026-06-14T15:02:33.940Z</time>
      </trkpt>
      <trkpt lat="44.49506" lon="5.94229">
        <ele>1648.1</ele>
        <time>2026-06-14T15:02:37.315Z</time>
      </trkpt>
      <trkpt lat="44.49506" lon="5.94224">
        <ele>1649.7</ele>
        <time>2026-06-14T15:02:56.244Z</time>
      </trkpt>
      <trkpt lat="44.49507" lon="5.94221">
        <ele>1650.8</ele>
        <time>2026-06-14T15:03:09.437Z</time>
      </trkpt>
      <trkpt lat="44.49506" lon="5.94215">
        <ele>1650.2</ele>
        <time>2026-06-14T15:03:13.177Z</time>
      </trkpt>
      <trkpt lat="44.49505" lon="5.94209">
        <ele>1649.6</ele>
        <time>2026-06-14T15:03:16.917Z</time>
      </trkpt>
      <trkpt lat="44.49506" lon="5.94205">
        <ele>1650.1</ele>
        <time>2026-06-14T15:03:21.275Z</time>
      </trkpt>
      <trkpt lat="44.49506" lon="5.94203">
        <ele>1650.1</ele>
        <time>2026-06-14T15:03:22.647Z</time>
      </trkpt>
      <trkpt lat="44.49504" lon="5.94197">
        <ele>1649</ele>
        <time>2026-06-14T15:03:26.850Z</time>
      </trkpt>
      <trkpt lat="44.49504" lon="5.94194">
        <ele>1649</ele>
        <time>2026-06-14T15:03:28.909Z</time>
      </trkpt>
      <trkpt lat="44.49503" lon="5.94191">
        <ele>1648.2</ele>
        <time>2026-06-14T15:03:31.613Z</time>
      </trkpt>
      <trkpt lat="44.49502" lon="5.94186">
        <ele>1647.1</ele>
        <time>2026-06-14T15:03:35.318Z</time>
      </trkpt>
      <trkpt lat="44.49502" lon="5.94183">
        <ele>1646.8</ele>
        <time>2026-06-14T15:03:37.137Z</time>
      </trkpt>
      <trkpt lat="44.49501" lon="5.94179">
        <ele>1645.9</ele>
        <time>2026-06-14T15:03:40.167Z</time>
      </trkpt>
      <trkpt lat="44.49502" lon="5.94174">
        <ele>1645.9</ele>
        <time>2026-06-14T15:03:43.731Z</time>
      </trkpt>
      <trkpt lat="44.495" lon="5.94166">
        <ele>1643.9</ele>
        <time>2026-06-14T15:03:50.444Z</time>
      </trkpt>
      <trkpt lat="44.495" lon="5.94165">
        <ele>1643.8</ele>
        <time>2026-06-14T15:03:51.051Z</time>
      </trkpt>
      <trkpt lat="44.495" lon="5.94159">
        <ele>1643.2</ele>
        <time>2026-06-14T15:03:54.691Z</time>
      </trkpt>
      <trkpt lat="44.495" lon="5.94154">
        <ele>1642.6</ele>
        <time>2026-06-14T15:03:57.728Z</time>
      </trkpt>
      <trkpt lat="44.49503" lon="5.94149">
        <ele>1643.7</ele>
        <time>2026-06-14T15:04:06.499Z</time>
      </trkpt>
      <trkpt lat="44.49503" lon="5.94145">
        <ele>1643.3</ele>
        <time>2026-06-14T15:04:08.925Z</time>
      </trkpt>
      <trkpt lat="44.49502" lon="5.94138">
        <ele>1641.9</ele>
        <time>2026-06-14T15:04:13.768Z</time>
      </trkpt>
      <trkpt lat="44.49503" lon="5.94136">
        <ele>1642</ele>
        <time>2026-06-14T15:04:15.635Z</time>
      </trkpt>
      <trkpt lat="44.49502" lon="5.94133">
        <ele>1640.8</ele>
        <time>2026-06-14T15:04:22.316Z</time>
      </trkpt>
      <trkpt lat="44.49502" lon="5.94126">
        <ele>1639.3</ele>
        <time>2026-06-14T15:04:27.355Z</time>
      </trkpt>
      <trkpt lat="44.49504" lon="5.94123">
        <ele>1639.8</ele>
        <time>2026-06-14T15:04:31.654Z</time>
      </trkpt>
      <trkpt lat="44.49505" lon="5.94109">
        <ele>1637.7</ele>
        <time>2026-06-14T15:04:40.378Z</time>
      </trkpt>
      <trkpt lat="44.49506" lon="5.94105">
        <ele>1638</ele>
        <time>2026-06-14T15:04:43.959Z</time>
      </trkpt>
      <trkpt lat="44.49505" lon="5.94103">
        <ele>1637.2</ele>
        <time>2026-06-14T15:04:48.886Z</time>
      </trkpt>
      <trkpt lat="44.49502" lon="5.94083">
        <ele>1634.1</ele>
        <time>2026-06-14T15:05:01.594Z</time>
      </trkpt>
      <trkpt lat="44.49501" lon="5.9408">
        <ele>1633.6</ele>
        <time>2026-06-14T15:05:03.651Z</time>
      </trkpt>
      <trkpt lat="44.495" lon="5.94071">
        <ele>1633</ele>
        <time>2026-06-14T15:05:09.282Z</time>
      </trkpt>
      <trkpt lat="44.49498" lon="5.94064">
        <ele>1632</ele>
        <time>2026-06-14T15:05:13.890Z</time>
      </trkpt>
      <trkpt lat="44.49498" lon="5.94055">
        <ele>1632</ele>
        <time>2026-06-14T15:05:20.066Z</time>
      </trkpt>
      <trkpt lat="44.49499" lon="5.94048">
        <ele>1633.2</ele>
        <time>2026-06-14T15:05:29.635Z</time>
      </trkpt>
      <trkpt lat="44.49496" lon="5.94045">
        <ele>1631.8</ele>
        <time>2026-06-14T15:05:34.821Z</time>
      </trkpt>
      <trkpt lat="44.49495" lon="5.94042">
        <ele>1631.5</ele>
        <time>2026-06-14T15:05:36.835Z</time>
      </trkpt>
      <trkpt lat="44.49495" lon="5.94039">
        <ele>1631.8</ele>
        <time>2026-06-14T15:05:39.680Z</time>
      </trkpt>
      <trkpt lat="44.49492" lon="5.94033">
        <ele>1630.4</ele>
        <time>2026-06-14T15:05:44.583Z</time>
      </trkpt>
      <trkpt lat="44.49491" lon="5.9403">
        <ele>1630</ele>
        <time>2026-06-14T15:05:46.595Z</time>
      </trkpt>
      <trkpt lat="44.4949" lon="5.94028">
        <ele>1629.5</ele>
        <time>2026-06-14T15:05:48.296Z</time>
      </trkpt>
      <trkpt lat="44.49488" lon="5.94024">
        <ele>1628.2</ele>
        <time>2026-06-14T15:05:53.002Z</time>
      </trkpt>
      <trkpt lat="44.49488" lon="5.94019">
        <ele>1628.2</ele>
        <time>2026-06-14T15:05:56.434Z</time>
      </trkpt>
      <trkpt lat="44.49488" lon="5.94007">
        <ele>1628.2</ele>
        <time>2026-06-14T15:06:04.669Z</time>
      </trkpt>
      <trkpt lat="44.49489" lon="5.94004">
        <ele>1628.9</ele>
        <time>2026-06-14T15:06:10.531Z</time>
      </trkpt>
      <trkpt lat="44.49489" lon="5.94001">
        <ele>1628.9</ele>
        <time>2026-06-14T15:06:12.589Z</time>
      </trkpt>
      <trkpt lat="44.49487" lon="5.93994">
        <ele>1627.4</ele>
        <time>2026-06-14T15:06:17.747Z</time>
      </trkpt>
      <trkpt lat="44.49486" lon="5.93991">
        <ele>1626.6</ele>
        <time>2026-06-14T15:06:20.450Z</time>
      </trkpt>
      <trkpt lat="44.49485" lon="5.93991">
        <ele>1626</ele>
        <time>2026-06-14T15:06:23.278Z</time>
      </trkpt>
      <trkpt lat="44.49482" lon="5.93981">
        <ele>1623.7</ele>
        <time>2026-06-14T15:06:31.023Z</time>
      </trkpt>
      <trkpt lat="44.49482" lon="5.93975">
        <ele>1623.4</ele>
        <time>2026-06-14T15:06:34.797Z</time>
      </trkpt>
      <trkpt lat="44.49481" lon="5.93972">
        <ele>1622.7</ele>
        <time>2026-06-14T15:06:37.156Z</time>
      </trkpt>
      <trkpt lat="44.4948" lon="5.93969">
        <ele>1622</ele>
        <time>2026-06-14T15:06:39.515Z</time>
      </trkpt>
      <trkpt lat="44.49477" lon="5.93966">
        <ele>1620</ele>
        <time>2026-06-14T15:06:49.937Z</time>
      </trkpt>
      <trkpt lat="44.49477" lon="5.93965">
        <ele>1620</ele>
        <time>2026-06-14T15:06:50.623Z</time>
      </trkpt>
      <trkpt lat="44.49476" lon="5.93959">
        <ele>1619.3</ele>
        <time>2026-06-14T15:06:54.361Z</time>
      </trkpt>
      <trkpt lat="44.49475" lon="5.93956">
        <ele>1618.7</ele>
        <time>2026-06-14T15:06:56.524Z</time>
      </trkpt>
      <trkpt lat="44.49472" lon="5.93951">
        <ele>1616.9</ele>
        <time>2026-06-14T15:07:03.358Z</time>
      </trkpt>
      <trkpt lat="44.49469" lon="5.93944">
        <ele>1615.1</ele>
        <time>2026-06-14T15:07:09.380Z</time>
      </trkpt>
      <trkpt lat="44.49467" lon="5.93943">
        <ele>1613.9</ele>
        <time>2026-06-14T15:07:15.386Z</time>
      </trkpt>
      <trkpt lat="44.49467" lon="5.93946">
        <ele>1614</ele>
        <time>2026-06-14T15:07:17.628Z</time>
      </trkpt>
      <trkpt lat="44.49468" lon="5.93949">
        <ele>1614.5</ele>
        <time>2026-06-14T15:07:21.655Z</time>
      </trkpt>
      <trkpt lat="44.49468" lon="5.93952">
        <ele>1614.5</ele>
        <time>2026-06-14T15:07:23.714Z</time>
      </trkpt>
      <trkpt lat="44.4947" lon="5.93957">
        <ele>1615.6</ele>
        <time>2026-06-14T15:07:32.617Z</time>
      </trkpt>
      <trkpt lat="44.4947" lon="5.93961">
        <ele>1615.6</ele>
        <time>2026-06-14T15:07:35.362Z</time>
      </trkpt>
      <trkpt lat="44.49468" lon="5.93966">
        <ele>1614.3</ele>
        <time>2026-06-14T15:07:39.706Z</time>
      </trkpt>
      <trkpt lat="44.49468" lon="5.93967">
        <ele>1614.3</ele>
        <time>2026-06-14T15:07:40.393Z</time>
      </trkpt>
      <trkpt lat="44.49469" lon="5.9397">
        <ele>1614.9</ele>
        <time>2026-06-14T15:07:45.198Z</time>
      </trkpt>
      <trkpt lat="44.49469" lon="5.93973">
        <ele>1614.9</ele>
        <time>2026-06-14T15:07:47.256Z</time>
      </trkpt>
      <trkpt lat="44.49469" lon="5.93976">
        <ele>1615</ele>
        <time>2026-06-14T15:07:49.499Z</time>
      </trkpt>
      <trkpt lat="44.49468" lon="5.93978">
        <ele>1614.5</ele>
        <time>2026-06-14T15:07:51.199Z</time>
      </trkpt>
      <trkpt lat="44.49467" lon="5.93979">
        <ele>1613.9</ele>
        <time>2026-06-14T15:07:54.673Z</time>
      </trkpt>
      <trkpt lat="44.49465" lon="5.93983">
        <ele>1612.7</ele>
        <time>2026-06-14T15:07:58.756Z</time>
      </trkpt>
      <trkpt lat="44.49465" lon="5.93986">
        <ele>1612.8</ele>
        <time>2026-06-14T15:08:00.998Z</time>
      </trkpt>
      <trkpt lat="44.49465" lon="5.93987">
        <ele>1612.9</ele>
        <time>2026-06-14T15:08:01.946Z</time>
      </trkpt>
      <trkpt lat="44.49464" lon="5.93995">
        <ele>1612.5</ele>
        <time>2026-06-14T15:08:07.060Z</time>
      </trkpt>
      <trkpt lat="44.49464" lon="5.93999">
        <ele>1612.6</ele>
        <time>2026-06-14T15:08:09.980Z</time>
      </trkpt>
      <trkpt lat="44.49462" lon="5.94006">
        <ele>1611.5</ele>
        <time>2026-06-14T15:08:14.639Z</time>
      </trkpt>
      <trkpt lat="44.49459" lon="5.94009">
        <ele>1609.7</ele>
        <time>2026-06-14T15:08:25.061Z</time>
      </trkpt>
      <trkpt lat="44.49459" lon="5.94011">
        <ele>1609.8</ele>
        <time>2026-06-14T15:08:26.634Z</time>
      </trkpt>
      <trkpt lat="44.49457" lon="5.94012">
        <ele>1608.6</ele>
        <time>2026-06-14T15:08:32.639Z</time>
      </trkpt>
      <trkpt lat="44.49456" lon="5.94014">
        <ele>1608.1</ele>
        <time>2026-06-14T15:08:34.340Z</time>
      </trkpt>
      <trkpt lat="44.49454" lon="5.94022">
        <ele>1607.2</ele>
        <time>2026-06-14T15:08:39.479Z</time>
      </trkpt>
      <trkpt lat="44.49454" lon="5.94026">
        <ele>1607.4</ele>
        <time>2026-06-14T15:08:42.625Z</time>
      </trkpt>
      <trkpt lat="44.4945" lon="5.94034">
        <ele>1605.9</ele>
        <time>2026-06-14T15:08:48.714Z</time>
      </trkpt>
      <trkpt lat="44.49447" lon="5.94036">
        <ele>1604.5</ele>
        <time>2026-06-14T15:08:55.304Z</time>
      </trkpt>
      <trkpt lat="44.49445" lon="5.9404">
        <ele>1604</ele>
        <time>2026-06-14T15:08:58.266Z</time>
      </trkpt>
      <trkpt lat="44.49443" lon="5.94044">
        <ele>1603.4</ele>
        <time>2026-06-14T15:09:01.236Z</time>
      </trkpt>
      <trkpt lat="44.49441" lon="5.94048">
        <ele>1602.6</ele>
        <time>2026-06-14T15:09:04.324Z</time>
      </trkpt>
      <trkpt lat="44.49439" lon="5.9405">
        <ele>1601.6</ele>
        <time>2026-06-14T15:09:08.556Z</time>
      </trkpt>
      <trkpt lat="44.49437" lon="5.94053">
        <ele>1600.6</ele>
        <time>2026-06-14T15:09:11.945Z</time>
      </trkpt>
      <trkpt lat="44.49435" lon="5.94054">
        <ele>1599.4</ele>
        <time>2026-06-14T15:09:17.950Z</time>
      </trkpt>
      <trkpt lat="44.49432" lon="5.94057">
        <ele>1597.6</ele>
        <time>2026-06-14T15:09:28.373Z</time>
      </trkpt>
      <trkpt lat="44.49429" lon="5.94062">
        <ele>1596.1</ele>
        <time>2026-06-14T15:09:33.388Z</time>
      </trkpt>
      <trkpt lat="44.49423" lon="5.9408">
        <ele>1594</ele>
        <time>2026-06-14T15:09:45.434Z</time>
      </trkpt>
      <trkpt lat="44.49422" lon="5.94082">
        <ele>1593.5</ele>
        <time>2026-06-14T15:09:47.134Z</time>
      </trkpt>
      <trkpt lat="44.49419" lon="5.94089">
        <ele>1591.6</ele>
        <time>2026-06-14T15:09:53.497Z</time>
      </trkpt>
      <trkpt lat="44.49417" lon="5.94099">
        <ele>1590.2</ele>
        <time>2026-06-14T15:09:59.853Z</time>
      </trkpt>
      <trkpt lat="44.49413" lon="5.94111">
        <ele>1587.4</ele>
        <time>2026-06-14T15:10:09.288Z</time>
      </trkpt>
      <trkpt lat="44.49413" lon="5.94115">
        <ele>1587.1</ele>
        <time>2026-06-14T15:10:11.743Z</time>
      </trkpt>
      <trkpt lat="44.49413" lon="5.94118">
        <ele>1586.9</ele>
        <time>2026-06-14T15:10:13.596Z</time>
      </trkpt>
      <trkpt lat="44.49415" lon="5.94122">
        <ele>1588</ele>
        <time>2026-06-14T15:10:23.129Z</time>
      </trkpt>
      <trkpt lat="44.49417" lon="5.94126">
        <ele>1589.2</ele>
        <time>2026-06-14T15:10:34.215Z</time>
      </trkpt>
      <trkpt lat="44.49418" lon="5.9413">
        <ele>1589.6</ele>
        <time>2026-06-14T15:10:38.141Z</time>
      </trkpt>
      <trkpt lat="44.49418" lon="5.94135">
        <ele>1589.2</ele>
        <time>2026-06-14T15:10:41.198Z</time>
      </trkpt>
      <trkpt lat="44.49419" lon="5.94138">
        <ele>1589.7</ele>
        <time>2026-06-14T15:10:45.225Z</time>
      </trkpt>
      <trkpt lat="44.49418" lon="5.94142">
        <ele>1588.8</ele>
        <time>2026-06-14T15:10:48.255Z</time>
      </trkpt>
      <trkpt lat="44.49418" lon="5.94149">
        <ele>1588.6</ele>
        <time>2026-06-14T15:10:52.798Z</time>
      </trkpt>
      <trkpt lat="44.49417" lon="5.94153">
        <ele>1587.7</ele>
        <time>2026-06-14T15:10:55.828Z</time>
      </trkpt>
      <trkpt lat="44.49417" lon="5.9416">
        <ele>1587.5</ele>
        <time>2026-06-14T15:11:00.371Z</time>
      </trkpt>
      <trkpt lat="44.49416" lon="5.94163">
        <ele>1586.7</ele>
        <time>2026-06-14T15:11:03.074Z</time>
      </trkpt>
      <trkpt lat="44.49415" lon="5.94164">
        <ele>1586</ele>
        <time>2026-06-14T15:11:06.548Z</time>
      </trkpt>
      <trkpt lat="44.49411" lon="5.94175">
        <ele>1583.1</ele>
        <time>2026-06-14T15:11:16.274Z</time>
      </trkpt>
      <trkpt lat="44.49411" lon="5.94184">
        <ele>1583.1</ele>
        <time>2026-06-14T15:11:22.450Z</time>
      </trkpt>
      <trkpt lat="44.49409" lon="5.94188">
        <ele>1581.8</ele>
        <time>2026-06-14T15:11:27.157Z</time>
      </trkpt>
      <trkpt lat="44.49407" lon="5.94192">
        <ele>1580.4</ele>
        <time>2026-06-14T15:11:32.895Z</time>
      </trkpt>
      <trkpt lat="44.49406" lon="5.94195">
        <ele>1579.7</ele>
        <time>2026-06-14T15:11:35.253Z</time>
      </trkpt>
      <trkpt lat="44.49405" lon="5.94202">
        <ele>1578.7</ele>
        <time>2026-06-14T15:11:39.640Z</time>
      </trkpt>
      <trkpt lat="44.49403" lon="5.9421">
        <ele>1577.1</ele>
        <time>2026-06-14T15:11:45.279Z</time>
      </trkpt>
      <trkpt lat="44.494" lon="5.94215">
        <ele>1574.9</ele>
        <time>2026-06-14T15:11:58.460Z</time>
      </trkpt>
      <trkpt lat="44.494" lon="5.94218">
        <ele>1574.8</ele>
        <time>2026-06-14T15:12:00.392Z</time>
      </trkpt>
      <trkpt lat="44.49401" lon="5.94227">
        <ele>1574.4</ele>
        <time>2026-06-14T15:12:06.167Z</time>
      </trkpt>
      <trkpt lat="44.494" lon="5.94232">
        <ele>1572.8</ele>
        <time>2026-06-14T15:12:14.495Z</time>
      </trkpt>
      <trkpt lat="44.494" lon="5.94234">
        <ele>1572.5</ele>
        <time>2026-06-14T15:12:15.736Z</time>
      </trkpt>
      <trkpt lat="44.494" lon="5.94236">
        <ele>1572.1</ele>
        <time>2026-06-14T15:12:17.108Z</time>
      </trkpt>
      <trkpt lat="44.49401" lon="5.9424">
        <ele>1572.1</ele>
        <time>2026-06-14T15:12:20.017Z</time>
      </trkpt>
      <trkpt lat="44.49401" lon="5.94242">
        <ele>1571.7</ele>
        <time>2026-06-14T15:12:21.389Z</time>
      </trkpt>
      <trkpt lat="44.49404" lon="5.94261">
        <ele>1569.9</ele>
        <time>2026-06-14T15:12:33.217Z</time>
      </trkpt>
      <trkpt lat="44.49406" lon="5.94269">
        <ele>1569.4</ele>
        <time>2026-06-14T15:12:38.494Z</time>
      </trkpt>
      <trkpt lat="44.49408" lon="5.94282">
        <ele>1568.5</ele>
        <time>2026-06-14T15:12:46.702Z</time>
      </trkpt>
      <trkpt lat="44.49406" lon="5.94294">
        <ele>1566.9</ele>
        <time>2026-06-14T15:12:54.220Z</time>
      </trkpt>
      <trkpt lat="44.49407" lon="5.94295">
        <ele>1567.5</ele>
        <time>2026-06-14T15:13:01.168Z</time>
      </trkpt>
      <trkpt lat="44.49408" lon="5.94297">
        <ele>1568</ele>
        <time>2026-06-14T15:13:05.298Z</time>
      </trkpt>
      <trkpt lat="44.49407" lon="5.94298">
        <ele>1567.4</ele>
        <time>2026-06-14T15:13:08.772Z</time>
      </trkpt>
      <trkpt lat="44.49405" lon="5.943">
        <ele>1566.1</ele>
        <time>2026-06-14T15:13:15.720Z</time>
      </trkpt>
      <trkpt lat="44.49404" lon="5.94307">
        <ele>1565.5</ele>
        <time>2026-06-14T15:13:20.076Z</time>
      </trkpt>
      <trkpt lat="44.494" lon="5.94315">
        <ele>1564.6</ele>
        <time>2026-06-14T15:13:26.015Z</time>
      </trkpt>
      <trkpt lat="44.49399" lon="5.94318">
        <ele>1564.5</ele>
        <time>2026-06-14T15:13:28.158Z</time>
      </trkpt>
      <trkpt lat="44.49397" lon="5.94321">
        <ele>1563.7</ele>
        <time>2026-06-14T15:13:30.933Z</time>
      </trkpt>
      <trkpt lat="44.49397" lon="5.94322">
        <ele>1563.9</ele>
        <time>2026-06-14T15:13:32.572Z</time>
      </trkpt>
      <trkpt lat="44.49396" lon="5.94325">
        <ele>1563.7</ele>
        <time>2026-06-14T15:13:34.630Z</time>
      </trkpt>
      <trkpt lat="44.49396" lon="5.94333">
        <ele>1565.1</ele>
        <time>2026-06-14T15:13:45.805Z</time>
      </trkpt>
      <trkpt lat="44.49393" lon="5.94335">
        <ele>1563</ele>
        <time>2026-06-14T15:13:55.200Z</time>
      </trkpt>
      <trkpt lat="44.49391" lon="5.94337">
        <ele>1561.5</ele>
        <time>2026-06-14T15:14:02.148Z</time>
      </trkpt>
      <trkpt lat="44.49391" lon="5.94339">
        <ele>1561.5</ele>
        <time>2026-06-14T15:14:03.521Z</time>
      </trkpt>
      <trkpt lat="44.49391" lon="5.9434">
        <ele>1561.5</ele>
        <time>2026-06-14T15:14:04.207Z</time>
      </trkpt>
      <trkpt lat="44.4939" lon="5.94345">
        <ele>1560.8</ele>
        <time>2026-06-14T15:14:07.385Z</time>
      </trkpt>
      <trkpt lat="44.49387" lon="5.94349">
        <ele>1558.7</ele>
        <time>2026-06-14T15:14:19.094Z</time>
      </trkpt>
      <trkpt lat="44.49386" lon="5.9435">
        <ele>1558.1</ele>
        <time>2026-06-14T15:14:22.568Z</time>
      </trkpt>
      <trkpt lat="44.49385" lon="5.94362">
        <ele>1557.2</ele>
        <time>2026-06-14T15:14:29.984Z</time>
      </trkpt>
      <trkpt lat="44.49386" lon="5.9437">
        <ele>1557.1</ele>
        <time>2026-06-14T15:14:35.415Z</time>
      </trkpt>
      <trkpt lat="44.49385" lon="5.94371">
        <ele>1556.3</ele>
        <time>2026-06-14T15:14:38.889Z</time>
      </trkpt>
      <trkpt lat="44.49384" lon="5.94376">
        <ele>1555</ele>
        <time>2026-06-14T15:14:43.355Z</time>
      </trkpt>
      <trkpt lat="44.49385" lon="5.94379">
        <ele>1555.4</ele>
        <time>2026-06-14T15:14:46.806Z</time>
      </trkpt>
      <trkpt lat="44.49384" lon="5.94388">
        <ele>1553.8</ele>
        <time>2026-06-14T15:14:52.689Z</time>
      </trkpt>
      <trkpt lat="44.49384" lon="5.94391">
        <ele>1553.3</ele>
        <time>2026-06-14T15:14:54.594Z</time>
      </trkpt>
      <trkpt lat="44.49384" lon="5.94393">
        <ele>1552.9</ele>
        <time>2026-06-14T15:14:55.967Z</time>
      </trkpt>
      <trkpt lat="44.49383" lon="5.94394">
        <ele>1552.1</ele>
        <time>2026-06-14T15:14:59.441Z</time>
      </trkpt>
      <trkpt lat="44.49383" lon="5.94391">
        <ele>1552.6</ele>
        <time>2026-06-14T15:15:03.428Z</time>
      </trkpt>
      <trkpt lat="44.49382" lon="5.9439">
        <ele>1552.1</ele>
        <time>2026-06-14T15:15:05.544Z</time>
      </trkpt>
      <trkpt lat="44.49379" lon="5.94378">
        <ele>1551.4</ele>
        <time>2026-06-14T15:15:13.493Z</time>
      </trkpt>
      <trkpt lat="44.49379" lon="5.94373">
        <ele>1552</ele>
        <time>2026-06-14T15:15:18.684Z</time>
      </trkpt>
      <trkpt lat="44.49376" lon="5.94364">
        <ele>1550.9</ele>
        <time>2026-06-14T15:15:24.707Z</time>
      </trkpt>
      <trkpt lat="44.49374" lon="5.9436">
        <ele>1549.8</ele>
        <time>2026-06-14T15:15:28.383Z</time>
      </trkpt>
      <trkpt lat="44.49371" lon="5.94353">
        <ele>1548</ele>
        <time>2026-06-14T15:15:34.405Z</time>
      </trkpt>
      <trkpt lat="44.49369" lon="5.9435">
        <ele>1546.7</ele>
        <time>2026-06-14T15:15:42.233Z</time>
      </trkpt>
      <trkpt lat="44.49368" lon="5.94344">
        <ele>1546.2</ele>
        <time>2026-06-14T15:15:45.998Z</time>
      </trkpt>
      <trkpt lat="44.49367" lon="5.94344">
        <ele>1545.5</ele>
        <time>2026-06-14T15:15:48.826Z</time>
      </trkpt>
      <trkpt lat="44.49368" lon="5.94335">
        <ele>1546.4</ele>
        <time>2026-06-14T15:15:57.422Z</time>
      </trkpt>
      <trkpt lat="44.49366" lon="5.9433">
        <ele>1545</ele>
        <time>2026-06-14T15:16:02.173Z</time>
      </trkpt>
      <trkpt lat="44.49366" lon="5.94327">
        <ele>1544.8</ele>
        <time>2026-06-14T15:16:04.026Z</time>
      </trkpt>
      <trkpt lat="44.49365" lon="5.94326">
        <ele>1544.1</ele>
        <time>2026-06-14T15:16:07.500Z</time>
      </trkpt>
      <trkpt lat="44.49366" lon="5.94323">
        <ele>1544.6</ele>
        <time>2026-06-14T15:16:11.527Z</time>
      </trkpt>
      <trkpt lat="44.49365" lon="5.94319">
        <ele>1543.8</ele>
        <time>2026-06-14T15:16:14.346Z</time>
        <extensions>
          <visugpx:TrkExtension xmlns:visugpx="https://www.visugpx.com/editgpx/">
            <visugpx:node>9</visugpx:node>
            </visugpx:TrkExtension>
        </extensions>
      </trkpt>
      <trkpt lat="44.49364" lon="5.94316">
        <ele>1543.1</ele>
        <time>2026-06-14T15:16:16.705Z</time>
      </trkpt>
      <trkpt lat="44.49366" lon="5.9431">
        <ele>1543.9</ele>
        <time>2026-06-14T15:16:23.606Z</time>
      </trkpt>
      <trkpt lat="44.49366" lon="5.94309">
        <ele>1543.8</ele>
        <time>2026-06-14T15:16:24.213Z</time>
      </trkpt>
      <trkpt lat="44.49365" lon="5.94305">
        <ele>1543.1</ele>
        <time>2026-06-14T15:16:26.899Z</time>
      </trkpt>
      <trkpt lat="44.49365" lon="5.94303">
        <ele>1543.1</ele>
        <time>2026-06-14T15:16:28.272Z</time>
      </trkpt>
      <trkpt lat="44.49364" lon="5.94298">
        <ele>1542.6</ele>
        <time>2026-06-14T15:16:31.424Z</time>
      </trkpt>
      <trkpt lat="44.49362" lon="5.94296">
        <ele>1541.5</ele>
        <time>2026-06-14T15:16:38.372Z</time>
      </trkpt>
      <trkpt lat="44.49361" lon="5.94292">
        <ele>1540.9</ele>
        <time>2026-06-14T15:16:40.980Z</time>
      </trkpt>
      <trkpt lat="44.49361" lon="5.94288">
        <ele>1540.9</ele>
        <time>2026-06-14T15:16:43.725Z</time>
      </trkpt>
      <trkpt lat="44.49362" lon="5.94285">
        <ele>1541.5</ele>
        <time>2026-06-14T15:16:48.530Z</time>
      </trkpt>
      <trkpt lat="44.49362" lon="5.94282">
        <ele>1541.5</ele>
        <time>2026-06-14T15:16:50.589Z</time>
      </trkpt>
      <trkpt lat="44.4936" lon="5.94279">
        <ele>1540.4</ele>
        <time>2026-06-14T15:16:54.603Z</time>
      </trkpt>
      <trkpt lat="44.49359" lon="5.94277">
        <ele>1540</ele>
        <time>2026-06-14T15:16:56.147Z</time>
      </trkpt>
      <trkpt lat="44.49359" lon="5.94275">
        <ele>1540.3</ele>
        <time>2026-06-14T15:16:58.566Z</time>
      </trkpt>
      <trkpt lat="44.49358" lon="5.94271">
        <ele>1540.3</ele>
        <time>2026-06-14T15:17:01.475Z</time>
      </trkpt>
      <trkpt lat="44.49355" lon="5.94268">
        <ele>1539</ele>
        <time>2026-06-14T15:17:05.956Z</time>
      </trkpt>
      <trkpt lat="44.49351" lon="5.94257">
        <ele>1538.3</ele>
        <time>2026-06-14T15:17:13.660Z</time>
      </trkpt>
      <trkpt lat="44.49348" lon="5.94251">
        <ele>1537.3</ele>
        <time>2026-06-14T15:17:18.150Z</time>
      </trkpt>
      <trkpt lat="44.49345" lon="5.94246">
        <ele>1536.3</ele>
        <time>2026-06-14T15:17:22.219Z</time>
      </trkpt>
      <trkpt lat="44.49344" lon="5.94244">
        <ele>1536</ele>
        <time>2026-06-14T15:17:23.704Z</time>
      </trkpt>
      <trkpt lat="44.49342" lon="5.9424">
        <ele>1535.4</ele>
        <time>2026-06-14T15:17:26.674Z</time>
      </trkpt>
      <trkpt lat="44.49338" lon="5.94235">
        <ele>1533.8</ele>
        <time>2026-06-14T15:17:32.057Z</time>
      </trkpt>
      <trkpt lat="44.49333" lon="5.94222">
        <ele>1532.8</ele>
        <time>2026-06-14T15:17:41.172Z</time>
      </trkpt>
      <trkpt lat="44.49331" lon="5.94215">
        <ele>1531.6</ele>
        <time>2026-06-14T15:17:45.907Z</time>
      </trkpt>
      <trkpt lat="44.49331" lon="5.94209">
        <ele>1531.6</ele>
        <time>2026-06-14T15:17:50.025Z</time>
      </trkpt>
      <trkpt lat="44.49329" lon="5.94207">
        <ele>1530.3</ele>
        <time>2026-06-14T15:17:56.973Z</time>
      </trkpt>
      <trkpt lat="44.49326" lon="5.94198">
        <ele>1528.5</ele>
        <time>2026-06-14T15:18:03.464Z</time>
      </trkpt>
      <trkpt lat="44.49326" lon="5.94196">
        <ele>1528.5</ele>
        <time>2026-06-14T15:18:04.837Z</time>
      </trkpt>
      <trkpt lat="44.49326" lon="5.94189">
        <ele>1528.4</ele>
        <time>2026-06-14T15:18:09.499Z</time>
      </trkpt>
      <trkpt lat="44.49325" lon="5.94186">
        <ele>1527.7</ele>
        <time>2026-06-14T15:18:11.858Z</time>
      </trkpt>
      <trkpt lat="44.49323" lon="5.9418">
        <ele>1526.3</ele>
        <time>2026-06-14T15:18:16.576Z</time>
      </trkpt>
      <trkpt lat="44.49323" lon="5.94177">
        <ele>1526.3</ele>
        <time>2026-06-14T15:18:18.635Z</time>
      </trkpt>
      <trkpt lat="44.49322" lon="5.94167">
        <ele>1525.5</ele>
        <time>2026-06-14T15:18:24.813Z</time>
      </trkpt>
      <trkpt lat="44.49321" lon="5.94165">
        <ele>1524.9</ele>
        <time>2026-06-14T15:18:26.854Z</time>
      </trkpt>
      <trkpt lat="44.4932" lon="5.94163">
        <ele>1524.3</ele>
        <time>2026-06-14T15:18:28.895Z</time>
      </trkpt>
      <trkpt lat="44.49319" lon="5.94159">
        <ele>1523.7</ele>
        <time>2026-06-14T15:18:31.503Z</time>
      </trkpt>
      <trkpt lat="44.49319" lon="5.94156">
        <ele>1523.7</ele>
        <time>2026-06-14T15:18:33.562Z</time>
      </trkpt>
      <trkpt lat="44.4932" lon="5.94154">
        <ele>1524.3</ele>
        <time>2026-06-14T15:18:39.104Z</time>
      </trkpt>
      <trkpt lat="44.4932" lon="5.9415">
        <ele>1524.3</ele>
        <time>2026-06-14T15:18:41.849Z</time>
      </trkpt>
      <trkpt lat="44.49316" lon="5.94144">
        <ele>1521.8</ele>
        <time>2026-06-14T15:18:54.196Z</time>
      </trkpt>
      <trkpt lat="44.49314" lon="5.94136">
        <ele>1520.4</ele>
        <time>2026-06-14T15:18:59.568Z</time>
      </trkpt>
      <trkpt lat="44.49314" lon="5.94133">
        <ele>1520.3</ele>
        <time>2026-06-14T15:19:01.500Z</time>
      </trkpt>
      <trkpt lat="44.49314" lon="5.94131">
        <ele>1520.3</ele>
        <time>2026-06-14T15:19:02.872Z</time>
      </trkpt>
      <trkpt lat="44.49314" lon="5.94121">
        <ele>1520.1</ele>
        <time>2026-06-14T15:19:09.461Z</time>
      </trkpt>
      <trkpt lat="44.49312" lon="5.94113">
        <ele>1518.7</ele>
        <time>2026-06-14T15:19:14.833Z</time>
      </trkpt>
      <trkpt lat="44.49308" lon="5.94101">
        <ele>1516.1</ele>
        <time>2026-06-14T15:19:23.823Z</time>
      </trkpt>
      <trkpt lat="44.49308" lon="5.941">
        <ele>1516.1</ele>
        <time>2026-06-14T15:19:24.509Z</time>
      </trkpt>
      <trkpt lat="44.49308" lon="5.94098">
        <ele>1516</ele>
        <time>2026-06-14T15:19:25.767Z</time>
      </trkpt>
      <trkpt lat="44.49308" lon="5.94094">
        <ele>1515.9</ele>
        <time>2026-06-14T15:19:28.379Z</time>
      </trkpt>
      <trkpt lat="44.49307" lon="5.94091">
        <ele>1515.2</ele>
        <time>2026-06-14T15:19:30.738Z</time>
      </trkpt>
      <trkpt lat="44.49306" lon="5.94087">
        <ele>1514.4</ele>
        <time>2026-06-14T15:19:33.557Z</time>
      </trkpt>
      <trkpt lat="44.49306" lon="5.94081">
        <ele>1514.3</ele>
        <time>2026-06-14T15:19:37.535Z</time>
      </trkpt>
      <trkpt lat="44.49306" lon="5.94078">
        <ele>1514.3</ele>
        <time>2026-06-14T15:19:39.594Z</time>
      </trkpt>
      <trkpt lat="44.49305" lon="5.94072">
        <ele>1513.6</ele>
        <time>2026-06-14T15:19:43.331Z</time>
      </trkpt>
      <trkpt lat="44.49304" lon="5.94068">
        <ele>1513</ele>
        <time>2026-06-14T15:19:45.939Z</time>
      </trkpt>
      <trkpt lat="44.49303" lon="5.94063">
        <ele>1512.3</ele>
        <time>2026-06-14T15:19:49.117Z</time>
      </trkpt>
      <trkpt lat="44.49302" lon="5.9406">
        <ele>1511.7</ele>
        <time>2026-06-14T15:19:51.281Z</time>
      </trkpt>
      <trkpt lat="44.493" lon="5.94053">
        <ele>1510.6</ele>
        <time>2026-06-14T15:19:55.940Z</time>
      </trkpt>
      <trkpt lat="44.49299" lon="5.94048">
        <ele>1510.4</ele>
        <time>2026-06-14T15:19:59.258Z</time>
      </trkpt>
      <trkpt lat="44.49297" lon="5.94041">
        <ele>1509.7</ele>
        <time>2026-06-14T15:20:03.840Z</time>
      </trkpt>
      <trkpt lat="44.49296" lon="5.94037">
        <ele>1509.4</ele>
        <time>2026-06-14T15:20:06.450Z</time>
      </trkpt>
      <trkpt lat="44.49294" lon="5.94031">
        <ele>1508.4</ele>
        <time>2026-06-14T15:20:10.564Z</time>
      </trkpt>
      <trkpt lat="44.49292" lon="5.94029">
        <ele>1507.2</ele>
        <time>2026-06-14T15:20:17.513Z</time>
      </trkpt>
      <trkpt lat="44.49291" lon="5.94027">
        <ele>1506.6</ele>
        <time>2026-06-14T15:20:19.554Z</time>
      </trkpt>
      <trkpt lat="44.49289" lon="5.94018">
        <ele>1505.6</ele>
        <time>2026-06-14T15:20:25.269Z</time>
      </trkpt>
      <trkpt lat="44.49288" lon="5.94013">
        <ele>1505.1</ele>
        <time>2026-06-14T15:20:28.421Z</time>
      </trkpt>
      <trkpt lat="44.49287" lon="5.94021">
        <ele>1504</ele>
        <time>2026-06-14T15:20:33.394Z</time>
      </trkpt>
      <trkpt lat="44.49285" lon="5.94037">
        <ele>1501.7</ele>
        <time>2026-06-14T15:20:43.389Z</time>
      </trkpt>
      <trkpt lat="44.49285" lon="5.94054">
        <ele>1500.8</ele>
        <time>2026-06-14T15:20:54.044Z</time>
      </trkpt>
      <trkpt lat="44.49283" lon="5.94069">
        <ele>1499.4</ele>
        <time>2026-06-14T15:21:03.321Z</time>
      </trkpt>
      <trkpt lat="44.49279" lon="5.94092">
        <ele>1497.1</ele>
        <time>2026-06-14T15:21:17.691Z</time>
      </trkpt>
      <trkpt lat="44.49277" lon="5.94106">
        <ele>1496.4</ele>
        <time>2026-06-14T15:21:26.683Z</time>
      </trkpt>
      <trkpt lat="44.49275" lon="5.94119">
        <ele>1495</ele>
        <time>2026-06-14T15:21:34.746Z</time>
      </trkpt>
      <trkpt lat="44.49272" lon="5.94137">
        <ele>1492.5</ele>
        <time>2026-06-14T15:21:46.062Z</time>
      </trkpt>
      <trkpt lat="44.49267" lon="5.9417">
        <ele>1488.9</ele>
        <time>2026-06-14T15:22:06.515Z</time>
      </trkpt>
      <trkpt lat="44.49266" lon="5.94182">
        <ele>1487.8</ele>
        <time>2026-06-14T15:22:13.862Z</time>
      </trkpt>
      <trkpt lat="44.49265" lon="5.94192">
        <ele>1486.8</ele>
        <time>2026-06-14T15:22:19.989Z</time>
      </trkpt>
      <trkpt lat="44.49266" lon="5.94203">
        <ele>1487.1</ele>
        <time>2026-06-14T15:22:28.132Z</time>
      </trkpt>
      <trkpt lat="44.49268" lon="5.94219">
        <ele>1487.8</ele>
        <time>2026-06-14T15:22:40.632Z</time>
      </trkpt>
      <trkpt lat="44.49268" lon="5.94231">
        <ele>1486.6</ele>
        <time>2026-06-14T15:22:47.912Z</time>
      </trkpt>
      <trkpt lat="44.49268" lon="5.94247">
        <ele>1484.7</ele>
        <time>2026-06-14T15:22:57.627Z</time>
      </trkpt>
      <trkpt lat="44.49266" lon="5.9427">
        <ele>1482.1</ele>
        <time>2026-06-14T15:23:11.678Z</time>
      </trkpt>
      <trkpt lat="44.49265" lon="5.9428">
        <ele>1481.1</ele>
        <time>2026-06-14T15:23:17.805Z</time>
      </trkpt>
      <trkpt lat="44.49265" lon="5.94294">
        <ele>1480.8</ele>
        <time>2026-06-14T15:23:27.005Z</time>
      </trkpt>
      <trkpt lat="44.49266" lon="5.94301">
        <ele>1481.2</ele>
        <time>2026-06-14T15:23:32.732Z</time>
      </trkpt>
      <trkpt lat="44.49264" lon="5.94308">
        <ele>1480.2</ele>
        <time>2026-06-14T15:23:37.340Z</time>
      </trkpt>
      <trkpt lat="44.49262" lon="5.94314">
        <ele>1479.7</ele>
        <time>2026-06-14T15:23:41.403Z</time>
      </trkpt>
      <trkpt lat="44.49258" lon="5.94328">
        <ele>1478.6</ele>
        <time>2026-06-14T15:23:50.671Z</time>
      </trkpt>
      <trkpt lat="44.49255" lon="5.94343">
        <ele>1478.2</ele>
        <time>2026-06-14T15:24:00.831Z</time>
      </trkpt>
      <trkpt lat="44.49251" lon="5.94359">
        <ele>1477.4</ele>
        <time>2026-06-14T15:24:11.533Z</time>
      </trkpt>
      <trkpt lat="44.49245" lon="5.94383">
        <ele>1476.4</ele>
        <time>2026-06-14T15:24:27.762Z</time>
      </trkpt>
      <trkpt lat="44.49241" lon="5.94395">
        <ele>1476.5</ele>
        <time>2026-06-14T15:24:37.012Z</time>
      </trkpt>
      <trkpt lat="44.49236" lon="5.94404">
        <ele>1476.5</ele>
        <time>2026-06-14T15:24:44.841Z</time>
      </trkpt>
      <trkpt lat="44.49233" lon="5.94408">
        <ele>1476.2</ele>
        <time>2026-06-14T15:24:48.484Z</time>
      </trkpt>
      <trkpt lat="44.49231" lon="5.9441">
        <ele>1475.9</ele>
        <time>2026-06-14T15:24:50.582Z</time>
        <extensions>
          <visugpx:TrkExtension xmlns:visugpx="https://www.visugpx.com/editgpx/">
            <visugpx:node>10</visugpx:node>
            </visugpx:TrkExtension>
        </extensions>
      </trkpt>
      <trkpt lat="44.49229" lon="5.94412">
        <ele>1475.5</ele>
        <time>2026-06-14T15:24:52.672Z</time>
      </trkpt>
      <trkpt lat="44.49225" lon="5.94415">
        <ele>1474.7</ele>
        <time>2026-06-14T15:24:56.543Z</time>
      </trkpt>
      <trkpt lat="44.4922" lon="5.94418">
        <ele>1473.7</ele>
        <time>2026-06-14T15:25:01.198Z</time>
      </trkpt>
      <trkpt lat="44.49213" lon="5.9442">
        <ele>1471.9</ele>
        <time>2026-06-14T15:25:07.722Z</time>
      </trkpt>
      <trkpt lat="44.49208" lon="5.94423">
        <ele>1471.3</ele>
        <time>2026-06-14T15:25:12.388Z</time>
      </trkpt>
      <trkpt lat="44.492" lon="5.94428">
        <ele>1470.4</ele>
        <time>2026-06-14T15:25:19.932Z</time>
      </trkpt>
      <trkpt lat="44.49192" lon="5.94435">
        <ele>1470.6</ele>
        <time>2026-06-14T15:25:29.337Z</time>
      </trkpt>
      <trkpt lat="44.49181" lon="5.94442">
        <ele>1470.2</ele>
        <time>2026-06-14T15:25:40.422Z</time>
      </trkpt>
      <trkpt lat="44.49166" lon="5.94449">
        <ele>1468.3</ele>
        <time>2026-06-14T15:25:53.932Z</time>
      </trkpt>
      <trkpt lat="44.49149" lon="5.94457">
        <ele>1465.7</ele>
        <time>2026-06-14T15:26:09.175Z</time>
      </trkpt>
      <trkpt lat="44.49138" lon="5.94465">
        <ele>1464.6</ele>
        <time>2026-06-14T15:26:19.941Z</time>
      </trkpt>
      <trkpt lat="44.49129" lon="5.94471">
        <ele>1463.1</ele>
        <time>2026-06-14T15:26:28.411Z</time>
      </trkpt>
      <trkpt lat="44.49124" lon="5.94477">
        <ele>1462.4</ele>
        <time>2026-06-14T15:26:34.069Z</time>
      </trkpt>
      <trkpt lat="44.49119" lon="5.94482">
        <ele>1461.2</ele>
        <time>2026-06-14T15:26:39.357Z</time>
      </trkpt>
      <trkpt lat="44.49116" lon="5.94486">
        <ele>1460.5</ele>
        <time>2026-06-14T15:26:42.883Z</time>
      </trkpt>
      <trkpt lat="44.49114" lon="5.9449">
        <ele>1460.2</ele>
        <time>2026-06-14T15:26:45.916Z</time>
      </trkpt>
      <trkpt lat="44.49112" lon="5.94496">
        <ele>1460</ele>
        <time>2026-06-14T15:26:50.203Z</time>
      </trkpt>
      <trkpt lat="44.49111" lon="5.94506">
        <ele>1460.2</ele>
        <time>2026-06-14T15:26:57.474Z</time>
      </trkpt>
      <trkpt lat="44.49108" lon="5.94535">
        <ele>1459.4</ele>
        <time>2026-06-14T15:27:16.533Z</time>
      </trkpt>
      <trkpt lat="44.49107" lon="5.94559">
        <ele>1458.9</ele>
        <time>2026-06-14T15:27:32.350Z</time>
      </trkpt>
      <trkpt lat="44.49104" lon="5.94582">
        <ele>1457.4</ele>
        <time>2026-06-14T15:27:46.829Z</time>
      </trkpt>
      <trkpt lat="44.49098" lon="5.94614">
        <ele>1454.9</ele>
        <time>2026-06-14T15:28:07.123Z</time>
      </trkpt>
      <trkpt lat="44.49092" lon="5.94649">
        <ele>1452</ele>
        <time>2026-06-14T15:28:29.129Z</time>
      </trkpt>
      <trkpt lat="44.4909" lon="5.94662">
        <ele>1451.4</ele>
        <time>2026-06-14T15:28:37.547Z</time>
      </trkpt>
      <trkpt lat="44.49086" lon="5.94685">
        <ele>1450</ele>
        <time>2026-06-14T15:28:52.282Z</time>
      </trkpt>
      <trkpt lat="44.49083" lon="5.94698">
        <ele>1449</ele>
        <time>2026-06-14T15:29:00.677Z</time>
      </trkpt>
      <trkpt lat="44.49083" lon="5.94702">
        <ele>1449.1</ele>
        <time>2026-06-14T15:29:03.598Z</time>
      </trkpt>
      <trkpt lat="44.4908" lon="5.94715">
        <ele>1448.1</ele>
        <time>2026-06-14T15:29:11.993Z</time>
      </trkpt>
      <trkpt lat="44.49075" lon="5.94726">
        <ele>1446.4</ele>
        <time>2026-06-14T15:29:19.953Z</time>
      </trkpt>
      <trkpt lat="44.49068" lon="5.94738">
        <ele>1444.3</ele>
        <time>2026-06-14T15:29:29.444Z</time>
      </trkpt>
      <trkpt lat="44.49063" lon="5.94748">
        <ele>1443.4</ele>
        <time>2026-06-14T15:29:36.945Z</time>
      </trkpt>
      <trkpt lat="44.49054" lon="5.94757">
        <ele>1441.2</ele>
        <time>2026-06-14T15:29:46.484Z</time>
      </trkpt>
      <trkpt lat="44.49046" lon="5.94764">
        <ele>1439.4</ele>
        <time>2026-06-14T15:29:54.582Z</time>
      </trkpt>
      <trkpt lat="44.49041" lon="5.94769">
        <ele>1438.5</ele>
        <time>2026-06-14T15:29:59.803Z</time>
      </trkpt>
      <trkpt lat="44.49037" lon="5.94774">
        <ele>1438.1</ele>
        <time>2026-06-14T15:30:04.510Z</time>
      </trkpt>
      <trkpt lat="44.49033" lon="5.94785">
        <ele>1437.8</ele>
        <time>2026-06-14T15:30:12.582Z</time>
      </trkpt>
      <trkpt lat="44.49029" lon="5.94801">
        <ele>1437.9</ele>
        <time>2026-06-14T15:30:24.376Z</time>
      </trkpt>
      <trkpt lat="44.49025" lon="5.94814">
        <ele>1436.3</ele>
        <time>2026-06-14T15:30:32.963Z</time>
      </trkpt>
      <trkpt lat="44.49023" lon="5.94821">
        <ele>1435.1</ele>
        <time>2026-06-14T15:30:37.698Z</time>
      </trkpt>
      <trkpt lat="44.49021" lon="5.94825">
        <ele>1434.2</ele>
        <time>2026-06-14T15:30:40.912Z</time>
      </trkpt>
      <trkpt lat="44.4902" lon="5.94828">
        <ele>1433.7</ele>
        <time>2026-06-14T15:30:42.970Z</time>
      </trkpt>
      <trkpt lat="44.49019" lon="5.94832">
        <ele>1433.2</ele>
        <time>2026-06-14T15:30:45.543Z</time>
      </trkpt>
      <trkpt lat="44.49019" lon="5.94836">
        <ele>1432.4</ele>
        <time>2026-06-14T15:30:48.287Z</time>
      </trkpt>
      <trkpt lat="44.4902" lon="5.94839">
        <ele>1431.9</ele>
        <time>2026-06-14T15:30:50.345Z</time>
      </trkpt>
      <trkpt lat="44.49021" lon="5.94841">
        <ele>1431.5</ele>
        <time>2026-06-14T15:30:51.889Z</time>
      </trkpt>
      <trkpt lat="44.49023" lon="5.94843">
        <ele>1431.4</ele>
        <time>2026-06-14T15:30:54.123Z</time>
      </trkpt>
      <trkpt lat="44.49032" lon="5.94846">
        <ele>1431.1</ele>
        <time>2026-06-14T15:31:02.619Z</time>
      </trkpt>
      <trkpt lat="44.49045" lon="5.94845">
        <ele>1430.9</ele>
        <time>2026-06-14T15:31:14.856Z</time>
      </trkpt>
      <trkpt lat="44.49059" lon="5.94844">
        <ele>1430.1</ele>
        <time>2026-06-14T15:31:27.371Z</time>
      </trkpt>
      <trkpt lat="44.4907" lon="5.94843">
        <ele>1428.2</ele>
        <time>2026-06-14T15:31:36.768Z</time>
      </trkpt>
      <trkpt lat="44.49078" lon="5.94843">
        <ele>1426.6</ele>
        <time>2026-06-14T15:31:43.675Z</time>
      </trkpt>
      <trkpt lat="44.49084" lon="5.94841">
        <ele>1426.3</ele>
        <time>2026-06-14T15:31:49.231Z</time>
      </trkpt>
      <trkpt lat="44.4909" lon="5.94838">
        <ele>1426.6</ele>
        <time>2026-06-14T15:31:55.911Z</time>
      </trkpt>
      <trkpt lat="44.49096" lon="5.94832">
        <ele>1428.3</ele>
        <time>2026-06-14T15:32:09.473Z</time>
      </trkpt>
      <trkpt lat="44.491" lon="5.94829">
        <ele>1429</ele>
        <time>2026-06-14T15:32:15.779Z</time>
      </trkpt>
      <trkpt lat="44.49108" lon="5.94828">
        <ele>1428.2</ele>
        <time>2026-06-14T15:32:22.709Z</time>
      </trkpt>
      <trkpt lat="44.49118" lon="5.94828">
        <ele>1427.8</ele>
        <time>2026-06-14T15:32:31.807Z</time>
      </trkpt>
      <trkpt lat="44.49128" lon="5.94828">
        <ele>1428.1</ele>
        <time>2026-06-14T15:32:41.944Z</time>
      </trkpt>
      <trkpt lat="44.49133" lon="5.94829">
        <ele>1427.7</ele>
        <time>2026-06-14T15:32:46.364Z</time>
      </trkpt>
      <trkpt lat="44.49137" lon="5.9483">
        <ele>1427.4</ele>
        <time>2026-06-14T15:32:49.935Z</time>
      </trkpt>
      <trkpt lat="44.49139" lon="5.94834">
        <ele>1425.8</ele>
        <time>2026-06-14T15:32:59.790Z</time>
      </trkpt>
      <trkpt lat="44.49141" lon="5.94836">
        <ele>1425.6</ele>
        <time>2026-06-14T15:33:01.936Z</time>
      </trkpt>
      <trkpt lat="44.49143" lon="5.94841">
        <ele>1424.3</ele>
        <time>2026-06-14T15:33:06.280Z</time>
      </trkpt>
      <trkpt lat="44.49145" lon="5.94848">
        <ele>1422.3</ele>
        <time>2026-06-14T15:33:13.492Z</time>
      </trkpt>
      <trkpt lat="44.49149" lon="5.94855">
        <ele>1421.2</ele>
        <time>2026-06-14T15:33:18.946Z</time>
      </trkpt>
      <trkpt lat="44.49155" lon="5.94866">
        <ele>1420.2</ele>
        <time>2026-06-14T15:33:27.460Z</time>
      </trkpt>
      <trkpt lat="44.49166" lon="5.94884">
        <ele>1420.8</ele>
        <time>2026-06-14T15:33:44.781Z</time>
      </trkpt>
      <trkpt lat="44.4917" lon="5.94894">
        <ele>1420.2</ele>
        <time>2026-06-14T15:33:51.972Z</time>
      </trkpt>
      <trkpt lat="44.4918" lon="5.9491">
        <ele>1420.7</ele>
        <time>2026-06-14T15:34:07.442Z</time>
      </trkpt>
      <trkpt lat="44.49183" lon="5.94917">
        <ele>1420.4</ele>
        <time>2026-06-14T15:34:12.673Z</time>
      </trkpt>
      <trkpt lat="44.49191" lon="5.94931">
        <ele>1420.1</ele>
        <time>2026-06-14T15:34:24.565Z</time>
      </trkpt>
      <trkpt lat="44.49199" lon="5.94945">
        <ele>1419.8</ele>
        <time>2026-06-14T15:34:36.456Z</time>
      </trkpt>
      <trkpt lat="44.49207" lon="5.94958">
        <ele>1419.8</ele>
        <time>2026-06-14T15:34:48.239Z</time>
      </trkpt>
      <trkpt lat="44.49214" lon="5.94969">
        <ele>1419.6</ele>
        <time>2026-06-14T15:34:58.071Z</time>
      </trkpt>
      <trkpt lat="44.49218" lon="5.94977">
        <ele>1419.2</ele>
        <time>2026-06-14T15:35:04.291Z</time>
      </trkpt>
      <trkpt lat="44.4922" lon="5.94984">
        <ele>1418.2</ele>
        <time>2026-06-14T15:35:08.899Z</time>
      </trkpt>
      <trkpt lat="44.49223" lon="5.94996">
        <ele>1416.4</ele>
        <time>2026-06-14T15:35:16.723Z</time>
      </trkpt>
      <trkpt lat="44.49226" lon="5.9501">
        <ele>1414.9</ele>
        <time>2026-06-14T15:35:25.588Z</time>
      </trkpt>
      <trkpt lat="44.49227" lon="5.9502">
        <ele>1413.5</ele>
        <time>2026-06-14T15:35:31.786Z</time>
      </trkpt>
      <trkpt lat="44.49228" lon="5.95025">
        <ele>1413</ele>
        <time>2026-06-14T15:35:34.938Z</time>
      </trkpt>
      <trkpt lat="44.4923" lon="5.95035">
        <ele>1412.6</ele>
        <time>2026-06-14T15:35:41.574Z</time>
      </trkpt>
      <trkpt lat="44.49235" lon="5.9505">
        <ele>1413.1</ele>
        <time>2026-06-14T15:35:53.839Z</time>
      </trkpt>
      <trkpt lat="44.49241" lon="5.95067">
        <ele>1413.5</ele>
        <time>2026-06-14T15:36:07.543Z</time>
      </trkpt>
      <trkpt lat="44.4925" lon="5.9509">
        <ele>1413.8</ele>
        <time>2026-06-14T15:36:26.036Z</time>
      </trkpt>
      <trkpt lat="44.49258" lon="5.95111">
        <ele>1413.8</ele>
        <time>2026-06-14T15:36:42.374Z</time>
      </trkpt>
      <trkpt lat="44.49267" lon="5.95135">
        <ele>1412.3</ele>
        <time>2026-06-14T15:36:59.321Z</time>
      </trkpt>
      <trkpt lat="44.49275" lon="5.95159">
        <ele>1410.5</ele>
        <time>2026-06-14T15:37:15.668Z</time>
      </trkpt>
      <trkpt lat="44.49283" lon="5.95182">
        <ele>1410.2</ele>
        <time>2026-06-14T15:37:32.798Z</time>
      </trkpt>
      <trkpt lat="44.49289" lon="5.95198">
        <ele>1410.9</ele>
        <time>2026-06-14T15:37:46.524Z</time>
      </trkpt>
      <trkpt lat="44.4929" lon="5.95204">
        <ele>1410.9</ele>
        <time>2026-06-14T15:37:50.753Z</time>
      </trkpt>
      <trkpt lat="44.4929" lon="5.95209">
        <ele>1410.4</ele>
        <time>2026-06-14T15:37:53.786Z</time>
      </trkpt>
      <trkpt lat="44.4929" lon="5.95215">
        <ele>1409.9</ele>
        <time>2026-06-14T15:37:57.448Z</time>
      </trkpt>
      <trkpt lat="44.49289" lon="5.95223">
        <ele>1408.8</ele>
        <time>2026-06-14T15:38:02.421Z</time>
      </trkpt>
      <trkpt lat="44.49288" lon="5.9523">
        <ele>1407.9</ele>
        <time>2026-06-14T15:38:06.768Z</time>
      </trkpt>
      <trkpt lat="44.49289" lon="5.95239">
        <ele>1407.6</ele>
        <time>2026-06-14T15:38:12.637Z</time>
      </trkpt>
      <trkpt lat="44.49289" lon="5.95246">
        <ele>1407.1</ele>
        <time>2026-06-14T15:38:16.944Z</time>
      </trkpt>
      <trkpt lat="44.49291" lon="5.95256">
        <ele>1407.4</ele>
        <time>2026-06-14T15:38:24.609Z</time>
      </trkpt>
      <trkpt lat="44.49293" lon="5.95267">
        <ele>1407.7</ele>
        <time>2026-06-14T15:38:32.930Z</time>
      </trkpt>
      <trkpt lat="44.49294" lon="5.95278">
        <ele>1407.6</ele>
        <time>2026-06-14T15:38:40.394Z</time>
      </trkpt>
      <trkpt lat="44.49294" lon="5.95291">
        <ele>1407</ele>
        <time>2026-06-14T15:38:48.611Z</time>
      </trkpt>
      <trkpt lat="44.49294" lon="5.95302">
        <ele>1406.6</ele>
        <time>2026-06-14T15:38:55.662Z</time>
      </trkpt>
      <trkpt lat="44.49293" lon="5.95315">
        <ele>1406.2</ele>
        <time>2026-06-14T15:39:04.120Z</time>
      </trkpt>
      <trkpt lat="44.49292" lon="5.95327">
        <ele>1406</ele>
        <time>2026-06-14T15:39:12.131Z</time>
      </trkpt>
      <trkpt lat="44.4929" lon="5.9534">
        <ele>1405.5</ele>
        <time>2026-06-14T15:39:20.640Z</time>
      </trkpt>
      <trkpt lat="44.49289" lon="5.95349">
        <ele>1405.4</ele>
        <time>2026-06-14T15:39:26.746Z</time>
      </trkpt>
      <trkpt lat="44.49286" lon="5.9536">
        <ele>1404.5</ele>
        <time>2026-06-14T15:39:33.965Z</time>
      </trkpt>
      <trkpt lat="44.49282" lon="5.95376">
        <ele>1402.9</ele>
        <time>2026-06-14T15:39:44.264Z</time>
      </trkpt>
      <trkpt lat="44.49278" lon="5.9539">
        <ele>1401.1</ele>
        <time>2026-06-14T15:39:53.423Z</time>
      </trkpt>
      <trkpt lat="44.49277" lon="5.95402">
        <ele>1400.6</ele>
        <time>2026-06-14T15:40:01.110Z</time>
      </trkpt>
      <trkpt lat="44.49277" lon="5.95411">
        <ele>1400.6</ele>
        <time>2026-06-14T15:40:07.287Z</time>
      </trkpt>
      <trkpt lat="44.49278" lon="5.95424">
        <ele>1400.6</ele>
        <time>2026-06-14T15:40:16.260Z</time>
      </trkpt>
      <trkpt lat="44.4928" lon="5.95438">
        <ele>1400.6</ele>
        <time>2026-06-14T15:40:26.059Z</time>
      </trkpt>
      <trkpt lat="44.4928" lon="5.95451">
        <ele>1400.1</ele>
        <time>2026-06-14T15:40:34.365Z</time>
      </trkpt>
      <trkpt lat="44.49278" lon="5.9546">
        <ele>1399.1</ele>
        <time>2026-06-14T15:40:40.080Z</time>
      </trkpt>
      <trkpt lat="44.49277" lon="5.95466">
        <ele>1398.6</ele>
        <time>2026-06-14T15:40:43.846Z</time>
      </trkpt>
      <trkpt lat="44.49273" lon="5.95473">
        <ele>1396.8</ele>
        <time>2026-06-14T15:40:50.013Z</time>
      </trkpt>
      <trkpt lat="44.49269" lon="5.9548">
        <ele>1394.9</ele>
        <time>2026-06-14T15:40:56.412Z</time>
      </trkpt>
      <trkpt lat="44.49268" lon="5.95485">
        <ele>1394.4</ele>
        <time>2026-06-14T15:40:59.565Z</time>
      </trkpt>
      <trkpt lat="44.49267" lon="5.95494">
        <ele>1394</ele>
        <time>2026-06-14T15:41:05.340Z</time>
      </trkpt>
      <trkpt lat="44.49266" lon="5.95507">
        <ele>1393.1</ele>
        <time>2026-06-14T15:41:13.402Z</time>
      </trkpt>
      <trkpt lat="44.49267" lon="5.95519">
        <ele>1393</ele>
        <time>2026-06-14T15:41:21.547Z</time>
      </trkpt>
      <trkpt lat="44.49269" lon="5.95527">
        <ele>1393.6</ele>
        <time>2026-06-14T15:41:28.708Z</time>
      </trkpt>
      <trkpt lat="44.49271" lon="5.95531">
        <ele>1394.7</ele>
        <time>2026-06-14T15:41:38.241Z</time>
      </trkpt>
      <trkpt lat="44.49273" lon="5.95539">
        <ele>1395.9</ele>
        <time>2026-06-14T15:41:48.041Z</time>
      </trkpt>
      <trkpt lat="44.49274" lon="5.95546">
        <ele>1396.7</ele>
        <time>2026-06-14T15:41:55.184Z</time>
      </trkpt>
      <trkpt lat="44.49273" lon="5.95557">
        <ele>1396.5</ele>
        <time>2026-06-14T15:42:02.517Z</time>
      </trkpt>
      <trkpt lat="44.4927" lon="5.95571">
        <ele>1395.8</ele>
        <time>2026-06-14T15:42:11.736Z</time>
      </trkpt>
      <trkpt lat="44.49264" lon="5.95588">
        <ele>1393.8</ele>
        <time>2026-06-14T15:42:23.235Z</time>
      </trkpt>
      <trkpt lat="44.49256" lon="5.95605">
        <ele>1392.2</ele>
        <time>2026-06-14T15:42:35.701Z</time>
      </trkpt>
      <trkpt lat="44.49254" lon="5.95615">
        <ele>1392.9</ele>
        <time>2026-06-14T15:42:44.368Z</time>
      </trkpt>
      <trkpt lat="44.49252" lon="5.95622">
        <ele>1393.1</ele>
        <time>2026-06-14T15:42:49.896Z</time>
      </trkpt>
      <trkpt lat="44.4925" lon="5.95629">
        <ele>1393.2</ele>
        <time>2026-06-14T15:42:55.236Z</time>
      </trkpt>
      <trkpt lat="44.49244" lon="5.95646">
        <ele>1392.8</ele>
        <time>2026-06-14T15:43:07.708Z</time>
      </trkpt>
      <trkpt lat="44.49238" lon="5.95662">
        <ele>1392.2</ele>
        <time>2026-06-14T15:43:19.352Z</time>
      </trkpt>
      <trkpt lat="44.49231" lon="5.95682">
        <ele>1390.7</ele>
        <time>2026-06-14T15:43:33.106Z</time>
      </trkpt>
      <trkpt lat="44.49228" lon="5.95694">
        <ele>1389.9</ele>
        <time>2026-06-14T15:43:40.990Z</time>
      </trkpt>
      <trkpt lat="44.49223" lon="5.95714">
        <ele>1388.7</ele>
        <time>2026-06-14T15:43:54.216Z</time>
      </trkpt>
      <trkpt lat="44.49216" lon="5.95735">
        <ele>1387</ele>
        <time>2026-06-14T15:44:08.456Z</time>
      </trkpt>
      <trkpt lat="44.49209" lon="5.95754">
        <ele>1385.2</ele>
        <time>2026-06-14T15:44:21.502Z</time>
      </trkpt>
      <trkpt lat="44.49203" lon="5.95775">
        <ele>1383</ele>
        <time>2026-06-14T15:44:35.233Z</time>
      </trkpt>
      <trkpt lat="44.492" lon="5.95792">
        <ele>1382.3</ele>
        <time>2026-06-14T15:44:46.398Z</time>
      </trkpt>
      <trkpt lat="44.49197" lon="5.95808">
        <ele>1381.6</ele>
        <time>2026-06-14T15:44:56.910Z</time>
      </trkpt>
      <trkpt lat="44.49193" lon="5.95823">
        <ele>1379.9</ele>
        <time>2026-06-14T15:45:06.619Z</time>
      </trkpt>
      <trkpt lat="44.4919" lon="5.95837">
        <ele>1378.8</ele>
        <time>2026-06-14T15:45:15.587Z</time>
      </trkpt>
      <trkpt lat="44.49187" lon="5.95847">
        <ele>1377.4</ele>
        <time>2026-06-14T15:45:22.203Z</time>
      </trkpt>
      <trkpt lat="44.49185" lon="5.95859">
        <ele>1376.6</ele>
        <time>2026-06-14T15:45:29.828Z</time>
      </trkpt>
      <trkpt lat="44.49184" lon="5.95872">
        <ele>1375.5</ele>
        <time>2026-06-14T15:45:37.805Z</time>
      </trkpt>
      <trkpt lat="44.49184" lon="5.95881">
        <ele>1374.9</ele>
        <time>2026-06-14T15:45:43.365Z</time>
      </trkpt>
      <trkpt lat="44.49186" lon="5.95894">
        <ele>1374.7</ele>
        <time>2026-06-14T15:45:52.210Z</time>
      </trkpt>
      <trkpt lat="44.49188" lon="5.95902">
        <ele>1374.5</ele>
        <time>2026-06-14T15:45:57.759Z</time>
      </trkpt>
      <trkpt lat="44.4919" lon="5.95912">
        <ele>1374</ele>
        <time>2026-06-14T15:46:04.307Z</time>
      </trkpt>
      <trkpt lat="44.49193" lon="5.95927">
        <ele>1372.3</ele>
        <time>2026-06-14T15:46:13.752Z</time>
      </trkpt>
      <trkpt lat="44.49197" lon="5.95939">
        <ele>1371.2</ele>
        <time>2026-06-14T15:46:21.837Z</time>
      </trkpt>
      <trkpt lat="44.49198" lon="5.95944">
        <ele>1370.5</ele>
        <time>2026-06-14T15:46:25.015Z</time>
      </trkpt>
      <trkpt lat="44.49202" lon="5.95952">
        <ele>1371</ele>
        <time>2026-06-14T15:46:32.729Z</time>
      </trkpt>
      <trkpt lat="44.49206" lon="5.95961">
        <ele>1371.4</ele>
        <time>2026-06-14T15:46:40.757Z</time>
      </trkpt>
      <trkpt lat="44.49209" lon="5.95977">
        <ele>1370.9</ele>
        <time>2026-06-14T15:46:51.465Z</time>
      </trkpt>
      <trkpt lat="44.4921" lon="5.95986">
        <ele>1370.7</ele>
        <time>2026-06-14T15:46:57.444Z</time>
      </trkpt>
      <trkpt lat="44.4921" lon="5.95993">
        <ele>1370.2</ele>
        <time>2026-06-14T15:47:01.751Z</time>
      </trkpt>
      <trkpt lat="44.4921" lon="5.96001">
        <ele>1369.7</ele>
        <time>2026-06-14T15:47:06.713Z</time>
      </trkpt>
      <trkpt lat="44.49209" lon="5.96007">
        <ele>1369</ele>
        <time>2026-06-14T15:47:10.451Z</time>
      </trkpt>
      <trkpt lat="44.49208" lon="5.96018">
        <ele>1368.2</ele>
        <time>2026-06-14T15:47:17.270Z</time>
      </trkpt>
      <trkpt lat="44.49207" lon="5.96033">
        <ele>1367</ele>
        <time>2026-06-14T15:47:26.484Z</time>
      </trkpt>
      <trkpt lat="44.49208" lon="5.96053">
        <ele>1366</ele>
        <time>2026-06-14T15:47:39.097Z</time>
      </trkpt>
      <trkpt lat="44.4921" lon="5.96076">
        <ele>1363.8</ele>
        <time>2026-06-14T15:47:53.170Z</time>
      </trkpt>
      <trkpt lat="44.49214" lon="5.96096">
        <ele>1362.3</ele>
        <time>2026-06-14T15:48:05.942Z</time>
      </trkpt>
      <trkpt lat="44.49219" lon="5.96119">
        <ele>1361.1</ele>
        <time>2026-06-14T15:48:21.067Z</time>
      </trkpt>
      <trkpt lat="44.49222" lon="5.96128">
        <ele>1361.7</ele>
        <time>2026-06-14T15:48:29.156Z</time>
      </trkpt>
      <trkpt lat="44.49222" lon="5.96136">
        <ele>1361.1</ele>
        <time>2026-06-14T15:48:34.064Z</time>
      </trkpt>
      <trkpt lat="44.49221" lon="5.96143">
        <ele>1360.4</ele>
        <time>2026-06-14T15:48:38.397Z</time>
      </trkpt>
      <trkpt lat="44.49219" lon="5.96156">
        <ele>1359.3</ele>
        <time>2026-06-14T15:48:46.516Z</time>
      </trkpt>
      <trkpt lat="44.49216" lon="5.9618">
        <ele>1357.3</ele>
        <time>2026-06-14T15:49:01.398Z</time>
      </trkpt>
      <trkpt lat="44.49211" lon="5.96207">
        <ele>1353.8</ele>
        <time>2026-06-14T15:49:18.378Z</time>
      </trkpt>
      <trkpt lat="44.49209" lon="5.96217">
        <ele>1352.5</ele>
        <time>2026-06-14T15:49:24.699Z</time>
      </trkpt>
      <trkpt lat="44.49209" lon="5.96227">
        <ele>1351.3</ele>
        <time>2026-06-14T15:49:30.774Z</time>
      </trkpt>
      <trkpt lat="44.4921" lon="5.96237">
        <ele>1349.7</ele>
        <time>2026-06-14T15:49:37.108Z</time>
      </trkpt>
      <trkpt lat="44.49215" lon="5.96247">
        <ele>1349.3</ele>
        <time>2026-06-14T15:49:44.980Z</time>
      </trkpt>
      <trkpt lat="44.49222" lon="5.96256">
        <ele>1348.8</ele>
        <time>2026-06-14T15:49:53.499Z</time>
      </trkpt>
      <trkpt lat="44.49229" lon="5.96262">
        <ele>1348</ele>
        <time>2026-06-14T15:50:00.587Z</time>
      </trkpt>
      <trkpt lat="44.49238" lon="5.96266">
        <ele>1348.4</ele>
        <time>2026-06-14T15:50:10.392Z</time>
      </trkpt>
      <trkpt lat="44.49248" lon="5.96271">
        <ele>1348.8</ele>
        <time>2026-06-14T15:50:21.315Z</time>
      </trkpt>
      <trkpt lat="44.49252" lon="5.96272">
        <ele>1349.4</ele>
        <time>2026-06-14T15:50:26.845Z</time>
      </trkpt>
      <trkpt lat="44.49256" lon="5.96275">
        <ele>1349.6</ele>
        <time>2026-06-14T15:50:31.573Z</time>
      </trkpt>
      <trkpt lat="44.49259" lon="5.9628">
        <ele>1349.1</ele>
        <time>2026-06-14T15:50:35.577Z</time>
      </trkpt>
      <trkpt lat="44.49263" lon="5.96287">
        <ele>1348.7</ele>
        <time>2026-06-14T15:50:41.258Z</time>
      </trkpt>
      <trkpt lat="44.49267" lon="5.96298">
        <ele>1347.9</ele>
        <time>2026-06-14T15:50:48.899Z</time>
      </trkpt>
      <trkpt lat="44.49272" lon="5.96312">
        <ele>1347.9</ele>
        <time>2026-06-14T15:50:59.644Z</time>
      </trkpt>
      <trkpt lat="44.49275" lon="5.96326">
        <ele>1348.2</ele>
        <time>2026-06-14T15:51:10.190Z</time>
      </trkpt>
      <trkpt lat="44.49275" lon="5.96337">
        <ele>1347</ele>
        <time>2026-06-14T15:51:16.859Z</time>
      </trkpt>
      <trkpt lat="44.49276" lon="5.96347">
        <ele>1345.7</ele>
        <time>2026-06-14T15:51:23.016Z</time>
      </trkpt>
      <trkpt lat="44.49277" lon="5.96353">
        <ele>1345.1</ele>
        <time>2026-06-14T15:51:26.756Z</time>
      </trkpt>
      <trkpt lat="44.49281" lon="5.96359">
        <ele>1345.8</ele>
        <time>2026-06-14T15:51:34.086Z</time>
      </trkpt>
      <trkpt lat="44.49286" lon="5.96365">
        <ele>1346.5</ele>
        <time>2026-06-14T15:51:42.028Z</time>
      </trkpt>
      <trkpt lat="44.49294" lon="5.96375">
        <ele>1346.9</ele>
        <time>2026-06-14T15:51:53.048Z</time>
      </trkpt>
      <trkpt lat="44.49302" lon="5.96388">
        <ele>1346</ele>
        <time>2026-06-14T15:52:03.815Z</time>
      </trkpt>
      <trkpt lat="44.4931" lon="5.964">
        <ele>1343.4</ele>
        <time>2026-06-14T15:52:14.116Z</time>
      </trkpt>
      <trkpt lat="44.49318" lon="5.9641">
        <ele>1341</ele>
        <time>2026-06-14T15:52:23.559Z</time>
      </trkpt>
      <trkpt lat="44.49323" lon="5.96412">
        <ele>1341</ele>
        <time>2026-06-14T15:52:28.561Z</time>
      </trkpt>
      <trkpt lat="44.49326" lon="5.96413">
        <ele>1341.1</ele>
        <time>2026-06-14T15:52:31.702Z</time>
      </trkpt>
      <trkpt lat="44.49328" lon="5.96413">
        <ele>1341.3</ele>
        <time>2026-06-14T15:52:34.075Z</time>
      </trkpt>
      <trkpt lat="44.49331" lon="5.96413">
        <ele>1341.7</ele>
        <time>2026-06-14T15:52:37.982Z</time>
      </trkpt>
      <trkpt lat="44.49335" lon="5.96413">
        <ele>1342.2</ele>
        <time>2026-06-14T15:52:43.067Z</time>
      </trkpt>
      <trkpt lat="44.49338" lon="5.96414">
        <ele>1342.1</ele>
        <time>2026-06-14T15:52:45.899Z</time>
      </trkpt>
      <trkpt lat="44.49343" lon="5.96416">
        <ele>1341.9</ele>
        <time>2026-06-14T15:52:50.638Z</time>
      </trkpt>
      <trkpt lat="44.49344" lon="5.96417">
        <ele>1341.7</ele>
        <time>2026-06-14T15:52:51.683Z</time>
      </trkpt>
      <trkpt lat="44.49346" lon="5.96419">
        <ele>1341.3</ele>
        <time>2026-06-14T15:52:53.773Z</time>
      </trkpt>
      <trkpt lat="44.49353" lon="5.96427">
        <ele>1340</ele>
        <time>2026-06-14T15:53:01.451Z</time>
      </trkpt>
      <trkpt lat="44.49356" lon="5.96431">
        <ele>1339.3</ele>
        <time>2026-06-14T15:53:04.977Z</time>
        <extensions>
          <visugpx:TrkExtension xmlns:visugpx="https://www.visugpx.com/editgpx/">
            <visugpx:node>11</visugpx:node>
            </visugpx:TrkExtension>
        </extensions>
      </trkpt>
    </trkseg>
  </trk>
</gpx>